     2              OBSERVATION DATA    GPS                 RINEX VERSION / TYPE
teqc 1999Jul19 19991123 03:06:18UTC                         PGM / RUN BY / DATE
                                                            COMMENT
Original Marker Name: 0608                                  COMMENT
Campaign Name: HPGN 1991                                    COMMENT
4-Character Station Name: 0608                              COMMENT
6-Character Antenna Code: TRMSST                            COMMENT
Vertical Measurement Point: BPA                             COMMENT
Vertical Offset to Rinex Ref. Point: 0.0000                 COMMENT
Radial Measurement Point: RRP                               COMMENT
Radial Offset to Rinex Ref. Point: 0.0000                   COMMENT
Antenna Height from Field Measurement: 2.2200 m             COMMENT
                                                            COMMENT
Original XYZ: -2471997.1767 -4503094.6285 3769970.7239      COMMENT
New XYZ position is based on association with SCEC monument COMMENT
E1F7I0F9+0011. Position of that monument is believed to be  COMMENT
valid to within 1 m horizontally; vertical accuracy         COMMENT
should be no worse than 3-times this value.                 COMMENT
                                                            COMMENT
Revised Rinex header created by UCSD GPS archive for        COMMENT
GSAC on 10-Mar-2000 (2000:070) 17:17:11 GMT                 COMMENT
For assistance contact dagnew@ucsd.edu or hjohnson@ucsd.edu COMMENT
                                                            COMMENT
HPGN CA 06 08                                               MARKER NAME
0608                                                        MARKER NUMBER
-Unknown- CALIF DEPT TRANSPORTATION                         OBSERVER / AGENCY
290 TRIMBLE 4000 SST NP 4.30 / SP 4.20                      REC # / TYPE / VERS
103 TR 4000SST L1/L2 GEO                                    ANT # / TYPE
 -2471998.4779 -4503099.2952  3769964.4304                  APPROX POSITION XYZ
        2.2200        0.0000        0.0000                  ANTENNA: DELTA H/E/N
     1     1     0                                          WAVELENGTH FACT L1/2
     5    C1    L1    L2    S1    S2                        # / TYPES OF OBSERV
     0                                                      INTERVAL
  1991     6     6    16    47   30.000000                  TIME OF FIRST OBS
  1991     6     6    22    48   30.000000                  TIME OF LAST OBS
                                                            END OF HEADER
 91  6  6 16 47 30.0000000  0  3G18G11G 2
  20685801.375          -0.57918                        28.000
  24154020.117          -0.68916                        12.500
  24251780.508          -0.63415                         9.250
 91  6  6 16 47 45.0000000  0  3G18G11G 2
  20687826.359       10621.719 8        -0.41933        28.750           2.563
  24146026.148      -42005.602 5                        10.250
  24241312.234      -54999.394 5                         8.750
 91  6  6 16 48  0.0000000  0  3G18G11G 2
  20689862.883       21352.830 7      8361.44623        27.750           2.656
  24138044.930      -83934.267 5        -0.07131        11.000           0.406
  24230846.398     -109963.986 5                         9.000
 91  6  6 16 48 15.0000000  0  3G18G11G 2
  20691927.992       32191.499 8     16807.13623        28.250           2.688
  24130083.586     -125787.663 5    -32613.02921        10.750           0.406
  24220396.570     -164895.420 5        -0.06031         9.250           0.438
 91  6  6 16 48 30.0000000  0  3G18G11G 2
  20694008.234       43133.341 8     25333.21823        28.000           2.656
  24122129.688     -167569.616 5    -65170.29221        11.000           0.500
  24209952.125     -219797.861 5    -42781.09721        10.000           0.531
 91  6  6 16 48 45.0000000  0  3G18G11G 2
  20696109.594       54178.301 8     33939.64923        28.000           2.781
  24114196.789     -209279.843 5    -97671.67821        11.750           0.531
  24199506.648     -274671.292 5    -85539.49621         9.500           0.438
 91  6  6 16 49  0.0000000  0  3G18G11G 2
  20698233.359       65330.016 7     42629.26323        27.750           2.594
  24106271.289     -250914.020 6   -130113.81521        12.250           0.438
  24189074.977     -329511.512 5   -128272.05721        10.000           0.406
 91  6  6 16 49 15.0000000  0  3G18G11G 2
  20700373.586       76587.891 8     51401.59623        28.000           2.625
  24098355.016     -292472.513 5   -162496.98821        11.250           0.438
  24178646.242     -384319.186 5   -170979.23521        10.000           0.469
 91  6  6 16 49 30.0000000  0  3G18G11G 2
  20702536.953       87950.024 8     60255.18223        28.000           2.594
  24090465.922     -333956.749 6   -194822.31021        12.500           0.313
  24168219.430     -439096.012 5   -213662.38721         9.250           0.438
 91  6  6 16 49 45.0000000  0  3G18G11G 2
  20704720.109       99415.464 8     69189.26423        28.250           2.656
  24082587.930     -375367.155 5   -227090.08321        11.750           0.406
  24157799.742     -493842.505 5   -256321.90121         9.500           0.438
 91  6  6 16 50  0.0000000  0  3G18G11G 2
  20706920.328      110987.465 7     78206.37023        27.750           2.563
  24074725.766     -416700.085 5   -259297.49721        11.750           0.281
  24147400.023     -548555.188 5   -298955.07021         9.500           0.406
 91  6  6 16 50 15.0000000  0  3G18G11G 2
  20709144.383      122664.927 8     87305.65023        28.000           2.688
  24066874.930     -457956.790 6   -291445.49521        12.000           0.375
  24136983.516     -603235.487 5   -341563.00521         9.250           0.406
 91  6  6 16 50 30.0000000  0  3G18G11G 2
  20711385.414      134443.892 7     96484.02923        27.750           2.531
  24059037.961     -499140.119 6   -323536.31321        13.000           0.500
  24126589.766     -657886.703 5   -384148.27021         9.000           0.375
 91  6  6 16 50 45.0000000  0  3G18G11G 2
  20713645.039      146328.455 7    105744.70023        27.500           2.594
  24051211.984     -540245.879 6   -355566.70221        13.500           0.531
  24116196.047     -712504.451 5   -426707.44821         9.750           0.438
 91  6  6 16 51  0.0000000  0  3G18G11G 2
  20715928.789      158319.418 7    115088.28323        27.250           2.656
  24043407.063     -581272.951 6   -387535.77121        13.500           0.500
  24105804.984     -767087.967 5   -469239.97921         9.500           0.500
 91  6  6 16 51 15.0000000  0  3G18G11G 2
  20718231.320      170415.523 7    124513.78423        27.500           2.719
  24035612.719     -622221.898 6   -419443.97421        13.250           0.469
  24095423.867     -821638.196 5   -511746.56021         9.750           0.344
 91  6  6 16 51 30.0000000  0  3G18G11G 2
  20720553.594      182618.689 7    134022.70623        27.750           2.688
  24027832.555     -663090.610 6   -451289.64121        12.250           0.375
  24085053.242     -876153.175 5   -554225.67921         9.750           0.531
 91  6  6 16 51 45.0000000  0  3G18G11G 2
  20722894.039      194924.385 7    143611.52123        27.000           2.719
  24020075.492     -703883.176 6   -483075.97521        12.750           0.344
  24074686.680     -930637.032 5   -596680.53121         9.500           0.375
 91  6  6 16 52  0.0000000  0  3G18G11G 2
  20725253.344      207334.370 7    153281.60323        27.000           2.656
  24012324.719     -744597.442 6   -514801.32121        13.250           0.375
  24064317.477     -985088.003 5   -639109.77421         9.500           0.375
 91  6  6 16 52 15.0000000  0  3G18G11G 2
  20727635.648      219846.269 7    163031.09723        27.000           2.719
  24004594.297     -785235.215 6   -546467.04721        13.500           0.375
  24053970.000    -1039508.090 5   -681514.93821         9.750           0.438
 91  6  6 16 52 30.0000000  0  3G18G11G 2
  20730039.953      232461.571 7    172861.17523        27.750           2.719
  23996873.984     -825794.685 6   -578071.75921        12.750           0.469
  24043614.086    -1093895.662 5   -723894.77821         9.000           0.438
 91  6  6 16 52 45.0000000  0  3G18G11G 2
  20732456.922      245177.459 7    182769.62723        27.250           2.656
  23989172.883     -866278.232 6   -609617.31621        13.250           0.500
  24033268.703    -1148253.425 5   -766251.35621         9.500           0.406
 91  6  6 16 53  0.0000000  0  3G18G11G 2
  20734896.883      257999.553 8    192760.83923        28.000           2.750
  23981481.555     -906679.869 6   -641099.03421        12.750           0.438
  24022935.586    -1202575.499 5   -808580.17721         9.750           0.313
 91  6  6 16 53 15.0000000  0  3G18G11G 2
  20737358.023      270925.918 7    202833.29423        27.500           2.656
  23973813.289     -947000.929 6   -672517.96821        13.750           0.438
  24012605.055    -1256863.398 5   -850882.32921        10.250           0.406
 91  6  6 16 53 30.0000000  0  3G18G11G 2
  20739837.227      283952.956 7    212984.19223        27.500           2.594
  23966154.016     -987244.764 6   -703876.73921        13.250           0.563
  24002279.703    -1311120.597 5   -893160.58321        10.250           0.500
 91  6  6 16 53 45.0000000  0  3G18G11G 2
  20742332.422      297082.908 7    223215.28523        27.500           2.594
  23958507.953    -1027408.699 6   -735173.24421        13.250           0.563
  23991954.070    -1365344.564 5   -935412.95121         9.500           0.438
 91  6  6 16 54  0.0000000  0  3G18G11G 2
  20744852.336      310314.532 7    233525.61723        26.750           2.625
  23950879.445    -1067493.420 6   -766408.01721        13.000           0.438
  23981646.133    -1419536.451 5   -977640.29721        10.500           0.469
 91  6  6 16 54 15.0000000  0  3G18G11G 2
  20747388.273      323644.805 7    243912.80723        26.500           2.688
  23943269.203    -1107501.597 6   -797583.16821        13.250           0.500
  23971336.141    -1473699.047 5  -1019844.81421        10.250           0.438
 91  6  6 16 54 30.0000000  0  3G18G11G 2
  20749944.375      337073.829 7    254376.94223        26.750           2.625
  23935669.320    -1147432.878 6   -828698.39121        12.750           0.500
  23961045.328    -1527832.132 5  -1062026.34621        10.500           0.469
 91  6  6 16 54 45.0000000  0  3G18G11G 2
  20752519.938      350600.754 7    264917.36823        27.000           2.594
  23928087.727    -1187287.387 6   -859753.80721        13.000           0.531
  23950746.016    -1581936.086 5  -1104185.18021        10.750           0.469
 91  6  6 16 55  0.0000000  0  3G18G11G 2
  20755112.984      364223.608 7    275532.55723        26.750           2.594
  23920510.180    -1227067.017 5   -890750.84421        11.750           0.594
  23940457.117    -1636013.010 5  -1146322.95021        10.750           0.469
 91  6  6 16 55 15.0000000  0  3G18G11G 2
  20757720.797      377938.281 7    286219.27823        26.500           2.688
  23912959.250    -1266775.357 6   -921692.35021        13.000           0.531
  23930167.023    -1690066.650 5  -1188442.57321        10.750           0.469
 91  6  6 16 55 30.0000000  0  3G18G11G 2
  20760346.539      391747.141 7    296979.38623        26.500           2.688
  23905411.172    -1306409.535 6   -952576.06321        12.000           0.500
  23919887.930    -1744094.376 5  -1230542.00521        11.000           0.531
 91  6  6 16 55 45.0000000  0  3G18G11G 2
  20762995.664      405652.936 7    307815.03623        27.000           2.719
  23897889.945    -1345966.394 6   -983399.52621        13.000           0.438
  23909614.797    -1798093.257 5  -1272618.96321        10.250           0.469
 91  6  6 16 56  0.0000000  0  3G18G11G 2
  20765658.930      419646.557 7    318719.13123        26.750           2.719
  23890374.500    -1385454.622 6  -1014169.52421        13.250           0.375
  23899337.938    -1852072.149 5  -1314680.34021        10.500           0.438
 91  6  6 16 56 15.0000000  0  3G18G11G 2
  20768337.039      433729.143 7    329692.54423        26.750           2.656
  23882873.445    -1424872.688 6  -1044884.85321        13.000           0.531
  23889071.180    -1906029.617 5  -1356725.03221        10.750           0.406
 91  6  6 16 56 30.0000000  0  3G18G11G 2
  20771035.609      447901.823 7    340736.15523        26.750           2.719
  23875383.320    -1464219.096 6  -1075544.33021        13.000           0.375
  23878804.016    -1959964.456 5  -1398752.08721        10.250           0.438
 91  6  6 16 56 45.0000000  0  3G18G11G 2
  20773750.617      462163.022 7    351848.74023        26.750           2.750
  23867908.461    -1503495.138 6  -1106149.00621        13.000           0.469
  23868545.539    -2013878.187 5  -1440762.70221        10.500           0.500
 91  6  6 16 57  0.0000000  0  3G18G11G 2
  20776479.477      476511.535 7    363029.36623        26.250           2.719
  23860454.430    -1542701.120 6  -1136699.06121        13.500           0.406
  23858295.508    -2067771.350 5  -1482757.27621        10.750           0.594
 91  6  6 16 57 15.0000000  0  3G18G11G 2
  20779226.898      490947.769 7    374278.34523        26.500           2.719
  23853006.258    -1581836.425 6  -1167194.06421        13.250           0.406
  23848040.078    -2121643.451 5  -1524735.43921        10.500           0.531
 91  6  6 16 57 30.0000000  0  3G18G11G 2
  20781990.320      505472.355 7    385596.17023        26.250           2.750
  23845567.875    -1620899.996 6  -1197633.16521        12.750           0.500
  23837795.328    -2175493.795 5  -1566696.65521        11.000           0.563
 91  6  6 16 57 45.0000000  0  3G18G11G 2
  20784768.781      520081.241 7    396979.67823        26.500           2.781
  23838147.234    -1659895.416 6  -1228019.16121        12.750           0.469
  23827547.953    -2229326.130 5  -1608643.82421        11.000           0.625
 91  6  6 16 58  0.0000000  0  3G18G11G 2
  20787566.219      534777.327 7    408431.13723        26.750           2.688
  23830742.148    -1698819.293 6  -1258349.40121        12.750           0.406
  23817310.641    -2283137.205 5  -1650574.46121        11.250           0.563
 91  6  6 16 58 15.0000000  0  3G18G11G 2
  20790379.391      549558.067 7    419948.56823        26.500           2.750
  23823347.438    -1737674.267 6  -1288625.96221        12.500           0.406
  23807076.125    -2336929.806 5  -1692490.66621        11.750           0.531
 91  6  6 16 58 30.0000000  0  3G18G11G 2
  20793209.047      564427.170 7    431534.84623        26.500           2.656
  23815970.781    -1776455.857 6  -1318845.33821        12.000           0.531
  23796839.953    -2390699.751 5  -1734389.26121        11.500           0.531
 91  6  6 16 58 45.0000000  0  3G18G11G 2
  20796055.156      579382.767 7    443188.52323        27.000           2.813
  23808599.781    -1815165.385 6  -1349008.55621        12.000           0.375
  23786615.594    -2444448.612 6  -1776271.38121        12.000           0.500
 91  6  6 16 59  0.0000000  0  3G18G11G 2
  20798916.984      594426.418 7    454910.81023        26.500           2.688
  23801250.180    -1853801.041 6  -1379114.23021        13.000           0.406
  23776395.117    -2498174.782 5  -1818135.84721        11.500           0.656
 91  6  6 16 59 15.0000000  0  3G18G11G 2
  20801798.609      609557.214 7    466701.00223        26.500           2.750
  23793913.273    -1892363.162 6  -1409162.58121        13.750           0.438
  23766171.336    -2551878.675 5  -1859982.95821        11.500           0.625
 91  6  6 16 59 30.0000000  0  3G18G11G 2
  20804689.352      624767.522 7    478553.15023        25.750           2.813
  23786589.797    -1930859.115 6  -1439159.42221        13.750           0.438
  23755954.906    -2605567.861 5  -1901818.60621        11.750           0.563
 91  6  6 16 59 45.0000000  0  3G18G11G 2
  20807603.711      640062.681 7    490471.41223        26.250           2.813
  23779277.688    -1969283.322 6  -1469100.32921        14.000           0.500
  23745738.828    -2659236.995 5  -1943638.62621        11.250           0.563
 91  6  6 17  0  0.0000000  0  3G18G11G 2
  20810530.477      655445.549 7    502458.01423        26.500           2.813
  23771970.930    -2007632.187 5  -1498982.53021        11.750           0.500
  23735529.078    -2712882.644 5  -1985440.36421        11.500           0.750
 91  6  6 17  0 15.0000000  0  3G18G11G 2
  20813470.828      670914.937 7    514512.04123        26.250           2.875
  23764694.875    -2045906.413 6  -1528806.58621        13.000           0.500
  23725321.930    -2766505.832 5  -2027224.59221        11.000           0.563
 91  6  6 17  0 30.0000000  0  3G18G11G 2
  20816434.039      686470.059 7    526632.86723        26.750           2.750
  23757426.133    -2084106.533 6  -1558572.86321        13.250           0.563
  23715123.531    -2820107.139 5  -2068991.76221        11.750           0.563
 91  6  6 17  0 45.0000000  0  3G18G11G 2
  20819407.531      702111.738 7    538821.14923        26.500           2.719
  23750170.828    -2122231.220 6  -1588280.38921        13.750           0.531
  23704934.523    -2873685.537 6  -2110741.08321        12.250           0.563
 91  6  6 17  1  0.0000000  0  3G18G11G 2
  20822401.859      717834.646 7    551072.73523        26.750           2.875
  23742931.086    -2160285.152 6  -1617932.75921        14.750           0.438
  23694736.719    -2927245.839 5  -2152476.30021        11.750           0.563
 91  6  6 17  1 15.0000000  0  4G18G11G 2G16
  20825410.195      733643.150 7    563391.01323        26.750           2.938
  23735699.414    -2198263.817 6  -1647526.48421        13.250           0.500
  23684553.414    -2980783.812 6  -2194194.10421        12.250           0.594
  24339267.633          -0.67715                         9.500
 91  6  6 17  1 30.0000000  0  4G18G11G 2G16
  20828433.563      749533.474 7    575773.04423        26.750           2.875
  23728490.266    -2236170.582 6  -1677064.18221        14.500           0.500
  23674365.977    -3034302.800 6  -2235897.12821        12.000           0.594
  24332338.672      -36358.077 5                         9.000
 91  6  6 17  1 45.0000000  0  4G18G11G 2G16
  20831474.070      765506.826 7    588219.77623        26.750           2.938
  23721287.867    -2274003.633 6  -1706544.43221        14.000           0.500
  23664180.188    -3087801.453 5  -2277584.28521        11.750           0.625
  24325435.773      -72628.147 5                         8.750
 91  6  6 17  2  0.0000000  0  4G18G11G 2G16
  20834530.602      781562.349 7    600730.53223        26.750           2.844
  23714103.281    -2311763.731 6  -1735967.84121        13.750           0.469
  23654009.164    -3141280.653 6  -2319256.30821        12.250           0.469
  24318556.102     -108811.683 5                         8.750
 91  6  6 17  2 15.0000000  0  4G18G11G 2G16
  20837602.695      797702.458 7    613307.20123        26.500           2.844
  23706935.516    -2349447.562 6  -1765331.82021        14.750           0.438
  23643835.719    -3194737.225 5  -2360910.69621        11.750           0.594
  24311683.914     -144905.781 5                         9.750
 91  6  6 17  2 30.0000000  0  4G18G11G 2G16
  20840687.352      813924.576 7    625947.77423        26.500           2.906
  23699774.961    -2387057.705 6  -1794638.38121        14.000           0.531
  23633669.664    -3248173.936 6  -2402549.59521        12.500           0.625
  24304829.414     -180913.248 5        -0.44431         8.750           0.375
 91  6  6 17  2 45.0000000  0  4G18G11G 2G16
  20843790.430      830230.304 7    638653.49723        26.750           2.813
  23692630.242    -2424591.928 6  -1823885.78221        13.250           0.500
  23623506.703    -3301588.659 6  -2444171.36621        12.500           0.625
  24297998.461     -216831.929 5    -27988.99121         8.500           0.375
 91  6  6 17  3  0.0000000  0  4G18G11G 2G16
  20846912.078      846619.662 7    651424.38623        27.000           2.875
  23685502.938    -2462049.874 6  -1853073.75421        13.750           0.406
  23613346.805    -3354981.349 6  -2485775.98621        12.500           0.625
  24291179.898     -252661.504 5    -55908.11721         9.750           0.281
 91  6  6 17  3 15.0000000  0  4G18G11G 2G16
  20850045.438      863088.203 7    664256.98523        26.500           2.906
  23678389.336    -2499435.402 6  -1882205.28521        13.500           0.531
  23603188.531    -3408356.068 6  -2527366.58521        12.750           0.656
  24284375.594     -288405.903 5    -83760.88221         9.500           0.281
 91  6  6 17  3 30.0000000  0  4G18G11G 2G16
  20853195.461      879637.898 7    677152.81223        26.750           2.969
  23671292.461    -2536746.182 6  -1911278.57921        14.500           0.469
  23593029.117    -3461710.707 6  -2568941.54421        12.250           0.625
  24277592.930     -324062.820 5   -111545.46621         9.500           0.406
 91  6  6 17  3 45.0000000  0  4G18G11G 2G16
  20856358.695      896270.877 7    690113.53923        27.000           2.906
  23664205.102    -2573979.703 6  -1940291.67321        13.500           0.563
  23582880.750    -3515042.870 6  -2610498.98521        12.500           0.469
  24270818.984     -359629.930 5   -139260.12521         9.250           0.375
 91  6  6 17  4  0.0000000  0  4G18G11G 2G16
  20859539.148      912986.429 7    703138.60723        27.000           2.906
  23657128.555    -2611136.216 6  -1969244.75221        12.750           0.563
  23572739.188    -3568353.087 6  -2652039.33421        12.500           0.500
  24264070.453     -395108.124 5   -166905.43321         9.000           0.313
 91  6  6 17  4 15.0000000  0  4G18G11G 2G16
  20862736.734      929787.527 7    716230.32923        26.000           2.906
  23650080.672    -2648212.393 6  -1998135.23121        14.250           0.469
  23562600.703    -3621638.027 6  -2693559.98421        12.500           0.688
  24257341.477     -430493.988 5   -194478.83821         9.000           0.375
 91  6  6 17  4 30.0000000  0  4G18G11G 2G16
  20865953.195      946675.194 7    729389.50823        26.750           2.906
  23643040.281    -2685206.967 6  -2026962.13221        14.250           0.438
  23552459.805    -3674896.645 6  -2735060.12921        12.000           0.656
  24250625.680     -465786.302 5   -221979.30421         9.250           0.375
 91  6  6 17  4 45.0000000  0  4G18G11G 2G16
  20869180.836      963647.900 7    742614.94923        26.750           2.906
  23636014.047    -2722120.603 6  -2055725.97221        13.750           0.531
  23542329.414    -3728129.805 6  -2776540.41721        12.000           0.625
  24243926.539     -500985.829 5   -249407.52921         9.500           0.281
 91  6  6 17  5  0.0000000  0  4G18G11G 2G16
  20872425.672      980707.078 7    755907.77423        26.750           2.906
  23629007.953    -2758951.594 6  -2084425.40921        13.750           0.500
  23532214.055    -3781336.131 6  -2817999.81021        12.750           0.656
  24237244.344     -536090.985 5   -276762.16021         9.250           0.375
 91  6  6 17  5 15.0000000  0  4G18G11G 2G16
  20875688.633      997856.953 7    769271.26823        26.250           2.844
  23622017.391    -2795695.339 6  -2113056.85921        14.000           0.594
  23522090.352    -3834511.225 6  -2859434.87321        12.250           0.594
  24230582.828     -571097.609 5   -304040.05421         9.750           0.438
 91  6  6 17  5 30.0000000  0  4G18G11G 2G16
  20878969.258     1015091.920 7    782701.06723        26.000           2.844
  23615039.727    -2832356.909 6  -2141624.25621        14.000           0.500
  23511978.422    -3887660.381 6  -2900849.71421        12.750           0.656
  24223940.258     -606010.917 5   -331245.22821        10.000           0.406
 91  6  6 17  5 45.0000000  0  4G18G11G 2G16
  20882262.367     1032411.526 7    796196.81823        25.500           2.938
  23608076.008    -2868936.440 6  -2170127.73821        14.250           0.469
  23501864.375    -3940783.939 6  -2942244.61121        12.250           0.625
  24217312.563     -640830.790 5   -358377.58621         9.500           0.281
 91  6  6 17  6  0.0000000  0  4G18G11G 2G16
  20885576.477     1049817.383 7    809759.77923        26.000           2.844
  23601131.430    -2905432.126 6  -2198565.88321        14.000           0.469
  23491768.063    -3993880.079 6  -2983618.14821        12.750           0.594
  24210703.063     -675555.764 5   -385435.98421         9.000           0.406
 91  6  6 17  6 15.0000000  0  4G18G11G 2G16
  20888905.391     1067314.851 7    823394.13023        26.000           2.844
  23594205.594    -2941837.791 6  -2226933.89021        14.250           0.500
  23481664.961    -4046942.827 6  -3024965.65321        12.250           0.656
  24204115.148     -710179.959 5   -412415.87621         9.000           0.406
 91  6  6 17  6 30.0000000  0  4G18G11G 2G16
  20892253.078     1084897.559 7    837094.89523        26.000           2.875
  23587293.461    -2978159.654 6  -2255236.61521        13.750           0.594
  23471574.016    -4099978.470 6  -3066292.05521        12.750           0.750
  24197547.750     -744709.409 5   -439321.92021         9.250           0.313
 91  6  6 17  6 45.0000000  0  4G18G11G 2G16
  20895614.141     1102568.472 7    850864.39723        25.750           2.813
  23580394.750    -3014394.216 6  -2283471.28721        14.000           0.594
  23461485.148    -4152983.829 6  -3107594.84421        12.750           0.625
  24190994.227     -779140.887 5   -466151.64121        10.000           0.344
 91  6  6 17  7  0.0000000  0  4G18G11G 2G16
  20898996.219     1120325.209 7    864700.77423        26.000           2.875
  23573520.383    -3050543.359 6  -2311639.40421        14.000           0.656
  23451408.797    -4205961.059 6  -3148875.72121        13.000           0.594
  24184460.219     -813476.478 5   -492906.64321         9.000           0.344
 91  6  6 17  7 15.0000000  0  4G18G11G 2G16
  20902391.875     1138169.763 7    878605.58223        26.000           2.875
  23566658.477    -3086604.735 6  -2339739.12421        14.000           0.594
  23441331.141    -4258908.022 6  -3190133.02721        13.000           0.688
  24177943.891     -847714.023 5   -519585.22921         9.500           0.188
 91  6  6 17  7 30.0000000  0  4G18G11G 2G16
  20905801.547     1156101.402 7    892578.23923        25.750           2.813
  23559808.414    -3122578.631 6  -2367770.69321        13.750           0.563
  23431261.953    -4311825.126 6  -3231367.05321        13.250           0.656
  24171447.930     -881854.155 5   -546187.93421         9.250           0.156
 91  6  6 17  7 45.0000000  0  4G18G11G 2G16
  20909231.367     1174119.846 7    906618.54023        25.500           2.813
  23552984.344    -3158464.731 6  -2395733.84721        13.750           0.656
  23421195.500    -4364712.136 6  -3272577.63521        13.500           0.656
  24164971.531     -915896.345 5   -572714.31721        10.000           0.313
 91  6  6 17  8  0.0000000  0  4G18G11G 2G16
  20912675.461     1192225.687 7    920726.94123        25.250           2.781
  23546167.602    -3194262.283 6  -2423627.98421        13.250           0.594
  23411136.977    -4417568.489 6  -3313764.33021        13.500           0.688
  24158513.555     -949839.989 5   -599163.90521         9.750           0.344
 91  6  6 17  8 15.0000000  0  4G18G11G 2G16
  20916139.438     1210421.690 7    934905.60723        25.250           2.750
  23539375.453    -3229967.881 6  -2451450.48221        14.000           0.531
  23401087.469    -4470391.225 6  -3354924.83021        13.750           0.719
  24152071.648     -983682.024 5   -625534.30021        10.000           0.313
 91  6  6 17  8 30.0000000  0  4G18G11G 2G16
  20919618.805     1228706.490 7    949153.46023        25.750           2.750
  23532594.352    -3265582.446 6  -2479202.03821        13.500           0.563
  23391044.828    -4523181.246 6  -3396059.83621        14.000           0.625
  24145653.625    -1017423.572 5   -651826.43221         9.750           0.313
 91  6  6 17  8 45.0000000  0  4G18G11G 2G16
  20923114.625     1247081.007 7    963471.22223        25.500           2.688
  23525839.586    -3301104.900 6  -2506881.82121        13.750           0.594
  23381005.836    -4575937.639 6  -3437168.64021        13.750           0.656
  24139255.523    -1051063.502 5   -678039.34321        10.000           0.281
 91  6  6 17  9  0.0000000  0  4G18G11G 2G16
  20926628.023     1265545.951 7    977859.44123        25.250           2.844
  23519096.063    -3336534.164 6  -2534488.98821        14.000           0.594
  23370967.828    -4628659.597 6  -3478250.62821        13.000           0.781
  24132871.570    -1084600.763 5   -704172.27521        10.500           0.406
 91  6  6 17  9 15.0000000  0  4G18G11G 2G16
  20930160.617     1284101.717 7    992318.43223        25.500           2.750
  23512367.750    -3371869.089 6  -2562022.63621        13.750           0.563
  23360943.438    -4681346.182 6  -3519305.02421        13.500           0.719
  24126503.672    -1118034.932 5   -730224.87521        10.000           0.281
 91  6  6 17  9 30.0000000  0  4G18G11G 2G16
  20933709.641     1302748.756 7   1006848.55523        25.500           2.688
  23505669.539    -3407109.019 6  -2589482.27521        14.500           0.688
  23350926.008    -4733996.633 6  -3560331.28121        13.750           0.594
  24120162.320    -1151364.906 5   -756196.29121         9.250           0.344
 91  6  6 17  9 45.0000000  0  4G18G11G 2G16
  20937274.656     1321483.026 7   1021446.63823        25.750           2.750
  23498973.813    -3442257.281 6  -2616870.48121        14.000           0.656
  23340910.734    -4786614.631 6  -3601332.24721        13.250           0.750
  24113835.016    -1184594.493 5   -782089.47421         9.750           0.438
 91  6  6 17 10  0.0000000  0  4G18G11G 2G16
  20940854.398     1340304.918 7   1036113.00423        25.250           2.750
  23492305.297    -3477313.206 6  -2644186.75321        14.750           0.625
  23330902.523    -4839199.796 6  -3642307.63621        13.250           0.719
  24107537.461    -1217723.314 5   -807904.11921        10.000           0.344
 91  6  6 17 10 15.0000000  0  4G18G11G 2G16
  20944453.039     1359212.570 7   1050846.19523        25.250           2.813
  23485650.172    -3512278.299 6  -2671432.21121        13.750           0.594
  23320901.625    -4891753.652 6  -3683258.61521        13.500           0.750
  24101250.633    -1250752.614 5   -833641.24921        10.000           0.250
 91  6  6 17 10 30.0000000  0  4G18G11G 2G16
  20948067.047     1378211.833 7   1065650.76523        25.250           2.813
  23479017.781    -3547146.461 6  -2698602.16921        14.000           0.625
  23310906.773    -4944270.331 6  -3724180.63321        13.250           0.563
  24094987.227    -1283676.453 5   -859296.16721         9.500           0.344
 91  6  6 17 10 45.0000000  0  4G18G11G 2G16
  20951699.664     1397301.930 7   1080526.12223        25.000           2.781
  23472398.078    -3581917.749 6  -2725696.61721        14.000           0.594
  23300926.492    -4996750.056 6  -3765073.85521        13.500           0.750
  24088743.914    -1316495.207 5   -884869.22621        10.750           0.281
 91  6  6 17 11  0.0000000  0  4G18G11G 2G16
  20955351.641     1416487.011 7   1095475.48623        25.250           2.781
  23465806.406    -3616587.684 6  -2752712.10421        15.000           0.563
  23290942.414    -5049188.433 6  -3805934.86721        13.500           0.719
  24082516.094    -1349204.277 5   -910356.81521         9.500           0.250
 91  6  6 17 11 15.0000000  0  4G18G11G 2G16
  20959024.703     1435764.792 7   1110497.08623        25.750           2.844
  23459223.094    -3651158.049 6  -2779650.01121        14.500           0.594
  23280973.977    -5101587.631 6  -3846765.35021        13.250           0.781
  24076311.117    -1381805.751 5   -935760.57021         9.750           0.281
 91  6  6 17 11 30.0000000  0  4G18G11G 2G16
  20962706.695     1455138.775 7   1125593.64623        25.250           2.844
  23452667.297    -3685624.972 6  -2806507.29921        14.500           0.625
  23271011.375    -5153943.916 6  -3887562.38121        13.750           0.750
  24070128.367    -1414296.134 5   -961077.74021         9.750           0.375
 91  6  6 17 11 45.0000000  0  4G18G11G 2G16
  20966412.703     1474607.858 7   1140764.31623        25.250           2.781
  23446124.711    -3719989.021 6  -2833284.42721        14.000           0.563
  23261059.414    -5206258.148 6  -3928326.66221        14.250           0.781
  24063971.250    -1446676.071 5   -986308.85521         9.750           0.406
 91  6  6 17 12  0.0000000  0  4G18G11G 2G16
  20970135.938     1494168.348 7   1156006.20223        25.750           2.781
  23439604.828    -3754253.766 6  -2859984.17921        14.750           0.531
  23251105.789    -5258533.958 6  -3969060.99721        13.250           0.781
  24057822.250    -1478949.180 5  -1011456.74121         9.000           0.375
 91  6  6 17 12 15.0000000  0  4G18G11G 2G16
  20973874.219     1513818.931 7   1171318.29423        25.250           2.688
  23433107.625    -3788419.778 6  -2886606.98721        15.500           0.625
  23241170.078    -5310772.127 6  -4009765.99521        14.000           0.750
  24051698.008    -1511116.489 5  -1036522.15921         9.250           0.375
 91  6  6 17 12 30.0000000  0  4G18G11G 2G16
  20977631.266     1533562.365 7   1186702.74123        25.250           2.719
  23426620.039    -3822484.185 6  -2913150.63621        14.500           0.594
  23231234.313    -5362969.824 6  -4050439.45521        13.750           0.656
  24045609.836    -1543175.013 5  -1061502.83621         9.750           0.469
 91  6  6 17 12 45.0000000  0  4G18G11G 2G16
  20981402.719     1553393.691 7   1202155.67723        24.500           2.750
  23420159.438    -3856451.308 6  -2939618.48321        14.750           0.563
  23221305.250    -5415131.459 6  -4091084.82421        14.000           0.750
  24039524.273    -1575128.933 5  -1086401.96421         9.750           0.406
 91  6  6 17 13  0.0000000  0  4G18G11G 2G16
  20985196.273     1573316.614 7   1217679.98023        24.750           2.719
  23413713.969    -3890316.784 6  -2966007.10921        14.750           0.688
  23211388.188    -5467252.894 6  -4131698.87021        14.000           0.688
  24033467.961    -1606974.481 5  -1111216.68421        10.500           0.313
 91  6  6 17 13 15.0000000  0  4G18G11G 2G16
  20989007.664     1593332.055 7   1233276.37423        25.750           2.844
  23407288.766    -3924079.367 6  -2992315.57821        14.750           0.563
  23201482.672    -5519333.174 6  -4172280.82721        14.500           0.813
  24027425.742    -1638710.828 5  -1135946.30221        10.000           0.375
 91  6  6 17 13 30.0000000  0  4G18G11G 2G16
  20992831.313     1613436.839 7   1248942.39323        25.500           2.813
  23400884.344    -3957742.084 6  -3018546.21221        14.750           0.594
  23191576.742    -5571375.403 6  -4212833.15321        14.500           0.688
  24021406.578    -1670340.572 5  -1160592.83321        10.250           0.281
 91  6  6 17 13 45.0000000  0  4G18G11G 2G16
  20996674.055     1633635.980 7   1264681.93623        24.500           2.844
  23394498.484    -3991299.184 6  -3044694.55121        15.250           0.594
  23181687.617    -5623374.117 6  -4253351.56821        15.000           0.719
  24015408.578    -1701858.255 5  -1185152.06221        10.500           0.375
 91  6  6 17 14  0.0000000  0  4G18G11G 2G16
  21000537.977     1653932.108 7   1280497.05323        24.750           2.813
  23388129.875    -4024747.914 6  -3070758.46221        14.500           0.531
  23171793.109    -5675326.605 6  -4293833.95521        14.500           0.750
  24009431.563    -1733261.080 5  -1209621.79521        10.000           0.375
 91  6  6 17 14 15.0000000  0  4G18G11G 2G16
  21004420.188     1674321.970 7   1296385.20123        25.250           2.813
  23381785.945    -4058091.047 6  -3096740.07421        14.250           0.594
  23161918.750    -5727235.894 6  -4334282.68321        14.250           0.844
  24003476.109    -1764552.467 5  -1234004.70221         9.500           0.406
 91  6  6 17 14 30.0000000  0  4G18G11G 2G16
  21008315.695     1694805.402 7   1312346.25723        25.250           2.875
  23375461.281    -4091328.254 6  -3122639.15421        14.250           0.531
  23152046.664    -5779101.832 6  -4374697.63521        14.000           0.719
  23997543.508    -1795731.810 5  -1258300.26221        10.000           0.406
 91  6  6 17 14 45.0000000  0  4G18G11G 2G16
  21012232.359     1715381.680 7   1328379.65923        25.000           2.906
  23369156.977    -4124459.971 6  -3148456.03121        15.000           0.531
  23142184.102    -5830924.880 6  -4415079.16121        14.000           0.719
  23991631.531    -1826799.641 5  -1282508.95321        10.250           0.438
 91  6  6 17 15  0.0000000  0  4G18G11G 2G16
  21016164.508     1736049.361 7   1344484.29823        24.750           2.750
  23362877.797    -4157487.380 6  -3174191.64021        16.000           0.625
  23132330.336    -5882706.329 6  -4455428.27121        14.250           0.656
  23985738.234    -1857757.333 5  -1306631.84721         9.750           0.375
 91  6  6 17 15 15.0000000  0  4G18G11G 2G16
  21020114.289     1756811.413 7   1360662.46923        24.500           2.750
  23356610.750    -4190406.555 6  -3199842.90321        15.750           0.531
  23122490.180    -5934442.583 6  -4495742.16821        15.000           0.844
  23979871.328    -1888601.215 5  -1330666.02721        10.000           0.375
 91  6  6 17 15 30.0000000  0  4G18G11G 2G16
  21024083.930     1777669.406 7   1376915.39623        24.250           2.781
  23350363.492    -4223215.659 6  -3225408.40521        15.250           0.594
  23112652.727    -5986131.896 6  -4536019.49521        15.000           0.844
  23974020.523    -1919329.863 5  -1354610.41921         9.250           0.406
 91  6  6 17 15 45.0000000  0  4G18G11G 2G16
  21028072.625     1798619.048 7   1393239.73923        24.500           2.719
  23344138.352    -4255918.519 6  -3250891.10521        14.500           0.594
  23102823.977    -6037778.158 6  -4576263.25921        15.250           0.750
  23968199.367    -1949947.174 5  -1378468.04521        10.500           0.406
 91  6  6 17 16  0.0000000  0  4G18G11G 2G16
  21032074.094     1819664.923 7   1409639.06423        24.250           2.844
  23337939.734    -4288510.229 6  -3276287.21521        15.000           0.719
  23093004.063    -6089376.808 6  -4616469.93121        15.250           0.813
  23962393.969    -1980448.310 5  -1402235.17821        10.250           0.406
 91  6  6 17 16 15.0000000  0  4G18G11G 2G16
  21036097.320     1840800.223 7   1426108.07023        24.000           2.750
  23331759.578    -4320997.278 6  -3301601.76221        15.250           0.688
  23083193.117    -6140934.496 6  -4656644.68721        14.750           0.750
  23956609.289    -2010839.915 5  -1425916.94321        10.000           0.500
 91  6  6 17 16 30.0000000  0  4G18G11G 2G16
  21040136.234     1862029.555 7   1442650.35523        24.250           2.719
  23325595.422    -4353374.640 6  -3326830.84521        14.500           0.656
  23073389.797    -6192446.305 6  -4696783.69921        14.750           0.844
  23950852.984    -2041116.950 5  -1449509.43721        10.750           0.469
 91  6  6 17 16 45.0000000  0  4G18G11G 2G16
  21044197.391     1883352.982 7   1459265.95323        24.250           2.656
  23319457.047    -4385641.914 6  -3351974.13721        14.750           0.563
  23063597.688    -6243912.094 6  -4736886.84121        15.250           0.875
  23945108.688    -2071279.297 5  -1473012.55621        10.000           0.438
 91  6  6 17 17  0.0000000  0  4G18G11G 2G16
  21048270.273     1904768.049 7   1475952.96423        24.500           2.688
  23313339.898    -4417800.860 6  -3377033.03621        15.500           0.656
  23053809.906    -6295333.775 6  -4776955.62321        14.750           0.813
  23939394.492    -2101328.926 5  -1496427.83921         9.750           0.406
 91  6  6 17 17 15.0000000  0  4G18G11G 2G16
  21052362.500     1926276.397 7   1492712.66023        23.750           2.688
  23307236.844    -4449849.386 6  -3402005.87321        15.000           0.625
  23044033.617    -6346709.155 6  -4816988.31321        14.750           0.844
  23933695.273    -2131263.824 5  -1519753.73921        10.250           0.375
 91  6  6 17 17 30.0000000  0  4G18G11G 2G16
  21056474.828     1947875.092 7   1509542.76023        24.000           2.688
  23301159.031    -4481790.102 6  -3426894.71421        14.750           0.625
  23034268.648    -6398041.178 6  -4856987.23021        15.250           0.844
  23928019.609    -2161086.821 5  -1542992.45221        10.500           0.438
 91  6  6 17 17 45.0000000  0  5G18G11G 2G16G 6
  21060600.398     1969567.463 7   1526445.84023        24.250           2.688
  23295105.055    -4513619.139 6  -3451696.53721        15.500           0.625
  23024505.797    -6449326.272 6  -4896949.57821        15.000           0.844
  23922364.961    -2190794.020 5  -1566140.90821        10.250           0.344
  24432616.945          -0.67514                         6.750
 91  6  6 17 18  0.0000000  0  5G18G11G 2G16G 6
  21064747.492     1991347.892 7   1543417.54423        24.500           2.688
  23289065.656    -4545341.712 6  -3476415.38621        14.750           0.625
  23014755.703    -6500569.712 6  -4936879.46721        15.500           0.781
  23916732.266    -2220391.133 5  -1589203.59921        10.250           0.438
  24424366.508      -43384.067 4                         6.750
 91  6  6 17 18 15.0000000  0  5G18G11G 2G16G 6
  21068907.539     2013220.686 7   1560461.22023        24.250           2.750
  23283051.031    -4576953.320 6  -3501047.77821        15.250           0.594
  23005012.313    -6551767.181 6  -4976773.53721        15.500           0.813
  23911119.625    -2249873.532 5  -1612176.89521        10.000           0.406
  24416104.008      -86763.152 4                         6.250
 91  6  6 17 18 30.0000000  0  5G18G11G 2G16G 6
  21073085.641     2035182.328 7   1577574.13323        23.750           2.688
  23277056.688    -4608457.203 6  -3525596.24121        15.000           0.625
  22995279.313    -6602921.946 6  -5016634.32721        16.250           0.906
  23905535.445    -2279244.658 5  -1635063.48721        10.500           0.406
  24407847.516     -130141.511 4                         6.500
 91  6  6 17 18 45.0000000  0  5G18G11G 2G16G 6
  21077284.133     2057234.119 7   1594757.28623        24.000           2.656
  23271080.594    -4639851.377 6  -3550059.20521        14.750           0.563
  22985555.008    -6654032.217 6  -5056460.44421        16.000           0.844
  23899967.258    -2308502.800 5  -1657862.05321        10.750           0.313
  24399593.070     -173517.489 4                         6.250
 91  6  6 17 19  0.0000000  0  5G18G11G 2G16G 6
  21081498.297     2079380.646 7   1612014.26523        24.250           2.594
  23265132.133    -4671130.872 6  -3574432.81521        15.500           0.625
  22975836.320    -6705093.064 6  -5096248.06921        15.500           0.906
  23894422.961    -2337642.792 5  -1680568.53221        10.250           0.438
  24391346.453     -216886.315 4        -0.16231         6.500           0.156
 91  6  6 17 19 15.0000000  0  5G18G11G 2G16G 6
  21085731.500     2101617.515 7   1629341.63723        24.750           2.656
  23259200.594    -4702299.635 6  -3598720.13421        15.500           0.719
  22966121.555    -6756108.602 6  -5136000.37021        14.750           0.938
  23888897.281    -2366668.729 5  -1703186.15421         9.750           0.344
  24383098.453     -260252.381 4    -33791.87321         7.250           0.156
 91  6  6 17 19 30.0000000  0  5G18G11G 2G16G 6
  21089979.617     2123948.002 7   1646741.95623        24.250           2.594
  23253288.508    -4733353.992 6  -3622918.31521        15.250           0.688
  22956428.289    -6807075.431 6  -5175714.70421        15.000           0.906
  23883400.039    -2395577.491 5  -1725712.45721        10.750           0.344
  24374835.906     -303612.426 4    -67578.90821         6.500           0.156
 91  6  6 17 19 45.0000000  0  5G18G11G 2G16G 6
  21094247.352     2146373.530 7   1664216.33923        23.750           2.688
  23247402.570    -4764292.107 6  -3647025.91521        15.250           0.688
  22946742.039    -6857991.897 6  -5215389.81221        15.250           0.875
  23877919.195    -2424367.441 5  -1748146.18121        10.500           0.406
  24366588.617     -346964.931 4   -101360.02221         7.000           0.250
 91  6  6 17 20  0.0000000  0  5G18G11G 2G16G 6
  21098530.922     2168888.625 7   1681760.50423        24.000           2.813
  23241539.344    -4795119.098 6  -3671046.92521        15.750           0.656
  22937060.227    -6908863.190 6  -5255029.71821        15.250           0.969
  23872461.695    -2453043.716 5  -1770491.34121        10.250           0.500
  24358344.508     -390315.212 5   -135139.43721         7.750           0.125
 91  6  6 17 20 15.0000000  0  5G18G11G 2G16G 6
  21102831.680     2191497.739 7   1699377.93423        24.000           2.625
  23235694.578    -4825830.046 6  -3694977.51521        15.750           0.625
  22927388.930    -6959684.490 6  -5294630.66421        15.250           0.875
  23867029.117    -2481601.377 5  -1792744.06721        10.250           0.469
  24350097.016     -433658.731 5   -168913.57621         7.500           0.219
 91  6  6 17 20 30.0000000  0  5G18G11G 2G16G 6
  21107152.641     2214204.408 7   1717071.38123        24.250           2.594
  23229868.203    -4856420.969 6  -3718814.57821        14.500           0.688
  22917726.781    -7010452.068 6  -5334189.74721        15.500           0.875
  23861615.391    -2510036.642 5  -1814901.42021        10.500           0.406
  24341847.328     -476991.843 4   -202679.57521         7.250           0.125
 91  6  6 17 20 45.0000000  0  5G18G11G 2G16G 6
  21111493.844     2237006.313 7   1734839.04023        24.250           2.594
  23224070.781    -4886893.498 6  -3742559.37521        15.250           0.625
  22908081.695    -7061167.830 6  -5373708.46721        16.000           0.938
  23856229.867    -2538351.426 5  -1836964.89421         9.750           0.469
  24333605.820     -520316.587 5   -236439.11621         7.750           0.219
 91  6  6 17 21  0.0000000  0  5G18G11G 2G16G 6
  21115852.664     2259904.098 7   1752681.40723        24.250           2.563
  23218296.711    -4917246.989 6  -3766211.43221        15.250           0.656
  22898434.539    -7111831.313 6  -5413186.42921        15.750           0.844
  23850863.422    -2566545.039 5  -1858933.95021        10.250           0.375
  24325360.383     -563632.587 4   -270191.76021         7.000           0.219
 91  6  6 17 21 15.0000000  0  5G18G11G 2G16G 6
  21120227.516     2282899.863 7   1770600.12322        24.000           2.438
  23212543.719    -4947478.793 6  -3789768.66721        15.250           0.625
  22888802.438    -7162439.771 6  -5452621.52521        15.500           0.875
  23845524.031    -2594615.058 5  -1880806.70021        11.000           0.438
  24317117.453     -606937.405 4   -303935.74021         7.000           0.188
 91  6  6 17 21 30.0000000  0  5G18G11G 2G16G 6
  21124620.188     2305987.585 7   1788590.49723        24.500           2.531
  23206814.602    -4977594.528 6  -3813235.44921        15.500           0.719
  22879177.648    -7212999.003 6  -5492018.27021        14.750           0.938
  23840202.250    -2622567.561 5  -1902587.87521        10.000           0.469
  24308880.453     -650237.088 5   -337675.74621         7.500           0.250
 91  6  6 17 21 45.0000000  0  5G18G11G 2G16G 6
  21129032.055     2329168.358 7   1806653.37423        24.500           2.594
  23201102.547    -5007592.580 6  -3836610.53721        14.000           0.688
  22869575.453    -7263507.459 6  -5531375.44721        15.750           0.906
  23834904.344    -2650400.554 5  -1924275.92321        10.000           0.469
  24300639.711     -693530.266 4   -371410.63121         7.250           0.219
 91  6  6 17 22  0.0000000  0  5G18G11G 2G16G 6
  21133461.961     2352442.433 7   1824788.95323        24.500           2.688
  23195417.039    -5037472.497 6  -3859893.56621        14.750           0.688
  22859971.977    -7313964.883 6  -5570692.84821        15.750           0.969
  23829631.641    -2678113.975 5  -1945870.81021        10.000           0.563
  24292400.125     -736816.871 4   -405140.41721         7.250           0.313
 91  6  6 17 22 15.0000000  0  5G18G11G 2G16G 6
  21137906.828     2375812.178 7   1842999.08123        24.000           2.594
  23189754.422    -5067231.323 6  -3883082.23121        15.500           0.594
  22850376.742    -7364368.496 6  -5609968.32721        15.250           1.031
  23824379.828    -2705705.234 5  -1967370.50221        10.250           0.438
  24284167.672     -780094.275 4   -438863.05521         7.250           0.156
 91  6  6 17 22 30.0000000  0  5G18G11G 2G16G 6
  21142372.945     2399277.912 7   1861284.00623        23.750           2.500
  23184116.398    -5096868.168 6  -3906175.85421        15.750           0.594
  22840797.102    -7414717.771 6  -5649201.46021        15.750           1.031
  23819156.617    -2733173.403 5  -1988774.25021        10.250           0.531
  24275934.938     -823361.846 5   -472578.00421         7.500           0.156
 91  6  6 17 22 45.0000000  0  5G18G11G 2G16G 6
  21146855.648     2422836.332 7   1879641.14922        24.250           2.438
  23178496.742    -5126386.309 6  -3929176.97421        15.000           0.719
  22831224.188    -7465015.908 6  -5688394.74921        15.000           0.906
  23813950.328    -2760521.855 5  -2010084.73921        10.250           0.500
  24267706.773     -866623.213 5   -506288.12621         7.750           0.188
 91  6  6 17 23  0.0000000  0  5G18G11G 2G16G 6
  21151358.609     2446486.875 7   1898070.07622        24.500           2.438
  23172902.250    -5155785.889 6  -3952085.72021        15.000           0.656
  22821664.953    -7515263.141 6  -5727548.36821        14.750           0.969
  23808768.469    -2787750.798 5  -2031302.11221        10.750           0.469
  24259473.203     -909878.693 5   -539993.66621         8.000           0.313
 91  6  6 17 23 15.0000000  0  5G18G11G 2G16G 6
  21155877.008     2470233.552 7   1916573.92022        24.000           2.438
  23167330.344    -5185062.184 6  -3974898.38421        15.000           0.656
  22812112.039    -7565454.891 6  -5766658.75021        14.750           1.031
  23803613.195    -2814855.820 5  -2052422.90921        10.750           0.438
  24251247.969     -953123.997 5   -573691.28621         7.750           0.250
 91  6  6 17 23 30.0000000  0  5G18G11G 2G16G 6
  21160412.266     2494070.245 7   1935147.89922        24.000           2.375
  23161782.367    -5214220.943 6  -3997619.46821        15.500           0.688
  22802573.469    -7615597.043 6  -5805730.49521        15.250           0.969
  23798474.578    -2841842.829 5  -2073451.75921        10.250           0.406
  24243015.969     -996365.280 5   -607385.78421         8.250           0.250
 91  6  6 17 23 45.0000000  0  5G18G11G 2G16G 6
  21164967.523     2518000.344 7   1953794.66323        24.000           2.531
  23156255.203    -5243258.403 6  -4020246.03321        15.500           0.719
  22793042.414    -7665686.135 6  -5844760.89521        15.750           1.031
  23793360.609    -2868708.226 5  -2094385.84421         9.500           0.500
  24234788.156    -1039599.080 5   -641074.40821         7.750           0.313
 91  6  6 17 24  0.0000000  0  5G18G11G 2G16G 6
  21169539.781     2542024.862 7   1972514.99722        24.000           2.438
  23150753.563    -5272173.340 6  -4042777.12821        15.000           0.531
  22783519.313    -7715721.068 6  -5883749.07621        15.750           1.000
  23788275.750    -2895450.780 5  -2115224.18621        10.500           0.438
  24226556.938    -1082824.398 5   -674756.44621         7.500           0.250
 91  6  6 17 24 15.0000000  0  5G18G11G 2G16G 6
  21174129.867     2566142.771 7   1991308.10222        24.250           2.406
  23145279.258    -5300966.093 6  -4065213.01821        15.000           0.625
  22774005.922    -7765702.451 6  -5922695.55221        16.000           1.031
  23783203.852    -2922071.271 5  -2135967.43521        10.000           0.469
  24218340.133    -1126041.905 5   -708432.39921         8.000           0.250
 91  6  6 17 24 30.0000000  0  5G18G11G 2G16G 6
  21178733.984     2590354.190 7   2010174.07422        23.750           2.469
  23139818.828    -5329636.299 6  -4087553.40621        15.000           0.719
  22764506.875    -7815629.810 6  -5961599.92721        16.250           1.125
  23778168.898    -2948569.655 5  -2156615.52721        10.500           0.313
  24210111.727    -1169251.574 5   -742102.24821         7.750           0.281
 91  6  6 17 24 45.0000000  0  5G18G11G 2G16G 6
  21183358.383     2614662.185 7   2029115.30322        23.500           2.469
  23134391.961    -5358180.498 6  -4109795.60821        15.750           0.688
  22755016.680    -7865499.867 6  -6000459.64521        16.250           1.063
  23773141.172    -2974942.261 5  -2177165.61821        10.500           0.406
  24201896.477    -1212450.236 5   -775763.50321         8.000           0.281
 91  6  6 17 25  0.0000000  0  5G18G11G 2G16G 6
  21188007.867     2639063.408 7   2048129.17623        24.250           2.500
  23128980.953    -5386601.315 6  -4131941.66421        15.500           0.688
  22745535.805    -7915315.412 6  -6039276.89421        16.250           1.063
  23768152.930    -3001191.994 5  -2197619.96921         9.750           0.531
  24193681.594    -1255640.845 5   -809418.50621         8.000           0.219
 91  6  6 17 25 15.0000000  0  5G18G11G 2G16G 6
  21192664.070     2663561.303 7   2067218.36822        23.250           2.469
  23123592.156    -5414895.239 6  -4153988.83621        14.750           0.688
  22736065.500    -7965072.940 6  -6078048.92021        16.000           1.031
  23763186.766    -3027315.307 5  -2217975.78721        11.000           0.563
  24185461.836    -1298820.126 5   -843064.65821         8.000           0.219
 91  6  6 17 25 30.0000000  0  5G18G11G 2G16G 6
  21197344.156     2688154.195 7   2086381.58923        23.250           2.531
  23118236.453    -5443063.380 6  -4175938.00321        15.250           0.750
  22726610.742    -8014773.742 6  -6116776.75921        16.500           1.031
  23758233.766    -3053313.597 5  -2238234.21121        10.500           0.406
  24177241.242    -1341989.507 5   -876703.13721         8.000           0.219
 91  6  6 17 25 45.0000000  0  5G18G11G 2G16G 6
  21202042.008     2712839.759 7   2105617.01923        23.000           2.531
  23112901.023    -5471107.553 6  -4197790.56221        15.500           0.750
  22717162.180    -8064419.721 6  -6155461.88521        16.250           1.000
  23753314.023    -3079189.050 5  -2258396.90421        11.250           0.438
  24169026.766    -1385150.975 5   -910335.40321         7.750           0.219
 91  6  6 17 26  0.0000000  0  5G18G11G 2G16G 6
  21206758.766     2737617.671 7   2124924.41223        23.500           2.531
  23107588.258    -5499027.980 6  -4219546.70521        15.250           0.688
  22707727.508    -8114011.255 6  -6194104.57521        16.750           1.000
  23748410.781    -3104941.580 5  -2278463.83721        10.250           0.438
  24160818.047    -1428305.126 5   -943961.97621         7.750           0.219
 91  6  6 17 26 15.0000000  0  5G18G11G 2G16G 6
  21211489.563     2762490.287 7   2144305.59422        23.000           2.313
  23102298.984    -5526821.834 6  -4241204.20621        15.250           0.719
  22698303.695    -8163545.659 6  -6232702.76021        16.750           1.063
  23743537.141    -3130568.851 5  -2298433.14221        10.500           0.406
  24152609.883    -1471449.476 5   -977580.94921         7.750           0.219
 91  6  6 17 26 30.0000000  0  5G18G11G 2G16G 6
  21216242.141     2787458.122 7   2163760.97823        23.000           2.531
  23097035.344    -5554487.947 6  -4262762.17521        14.750           0.656
  22688886.992    -8213021.879 6  -6271255.59121        16.750           0.969
  23738681.656    -3156069.587 5  -2318303.85321        11.000           0.469
  24144403.484    -1514583.187 5  -1011191.62921         8.000           0.219
 91  6  6 17 26 45.0000000  0  5G18G11G 2G16G 6
  21221015.438     2812523.120 7   2183292.07622        23.750           2.438
  23091792.469    -5582024.556 6  -4284219.22821        14.500           0.656
  22679481.875    -8262438.378 6  -6309761.89921        16.250           0.969
  23733850.617    -3181442.286 5  -2338074.80021        10.750           0.500
  24136200.273    -1557704.693 5  -1044792.77421         7.500           0.219
 91  6  6 17 27  0.0000000  0  5G18G11G 2G16G 6
  21225801.734     2837684.832 7   2202898.53722        23.500           2.438
  23086577.688    -5609431.357 6  -4305575.13621        14.750           0.719
  22670090.766    -8311794.994 6  -6348221.54721        16.250           1.063
  23729052.563    -3206686.955 5  -2357745.97421        10.500           0.406
  24127991.406    -1600813.978 5  -1078384.39021         7.750           0.281
 91  6  6 17 27 15.0000000  0  5G18G11G 2G16G 6
  21230607.164     2862943.487 7   2222580.54423        23.500           2.594
  23081384.852    -5636707.801 6  -4326829.46221        15.250           0.688
  22660710.555    -8361091.237 6  -6386634.14221        16.750           1.063
  23724267.859    -3231802.839 5  -2377316.79321        10.250           0.563
  24119793.273    -1643910.807 5  -1111966.31421         7.500           0.250
 91  6  6 17 27 30.0000000  0  5G18G11G 2G16G 6
  21235433.953     2888296.433 7   2242336.02422        23.500           2.469
  23076219.828    -5663855.756 6  -4347983.65621        15.000           0.625
  22651340.109    -8410329.245 6  -6425001.36121        17.000           1.063
  23719512.078    -3256792.315 5  -2396789.13121        10.250           0.469
  24111590.188    -1686997.456 4  -1145540.29421         7.250           0.313
 91  6  6 17 27 45.0000000  0  5G18G11G 2G16G 6
  21240274.734     2913741.799 7   2262163.52123        23.000           2.500
  23071077.820    -5690876.786 6  -4369038.96021        15.000           0.750
  22641983.531    -8459510.667 6  -6463324.49421        17.000           0.938
  23714783.359    -3281656.965 5  -2416164.18521        10.750           0.406
  24103396.602    -1730075.727 5  -1179107.74521         7.750           0.313
 91  6  6 17 28  0.0000000  0  5G18G11G 2G16G 6
  21245134.594     2939277.562 7   2282061.44722        23.000           2.406
  23065961.438    -5717772.554 6  -4389996.65321        15.000           0.750
  22632630.656    -8508637.093 6  -6501604.76921        16.750           1.031
  23710073.680    -3306398.898 5  -2435443.63721        10.500           0.500
  24095195.898    -1773147.597 5  -1212670.19821         7.500           0.281
 91  6  6 17 28 15.0000000  0  5G18G11G 2G16G 6
  21250013.266     2964907.533 7   2302032.77823        23.750           2.500
  23060859.500    -5744538.894 6  -4410853.49121        14.000           0.719
  22623299.211    -8557704.681 6  -6539839.20421        17.500           1.000
  23705391.656    -3331013.906 5  -2454624.14921        11.000           0.406
  24086998.711    -1816209.095 5  -1246224.62321         7.500           0.188
 91  6  6 17 28 30.0000000  0  5G18G11G 2G16G 6
  21254905.102     2990629.796 7   2322076.03222        23.250           2.469
  23055794.422    -5771177.480 6  -4431610.78721        14.500           0.688
  22613971.508    -8606715.168 6  -6578029.14621        17.750           1.000
  23700729.883    -3355503.735 5  -2473707.15321        10.500           0.469
  24078816.234    -1859262.111 5  -1279772.38921         8.250           0.188
 91  6  6 17 28 45.0000000  0  5G18G11G 2G16G 6
  21259820.344     3016443.840 7   2342190.80722        24.000           2.375
  23050752.641    -5797688.201 6  -4452268.44721        15.500           0.688
  22604654.547    -8655668.572 6  -6616174.61121        17.500           1.063
  23696090.492    -3379868.514 5  -2492692.70321         9.750           0.438
  24070618.313    -1902306.913 5  -1313313.77721         7.750           0.281
 91  6  6 17 29  0.0000000  0  5G18G11G 2G16G 6
  21264747.031     3042346.404 7   2362374.55523        23.250           2.500
  23045731.008    -5824074.001 6  -4472828.77021        16.000           0.719
  22595346.625    -8704568.011 6  -6654278.01321        17.250           1.125
  23691477.438    -3404111.153 5  -2511583.08821         9.750           0.438
  24062430.695    -1945346.571 5  -1346851.12821         7.750           0.344
 91  6  6 17 29 15.0000000  0  5G18G11G 2G16G 6
  21269692.242     3068339.760 7   2382629.05123        23.000           2.563
  23040733.617    -5850332.093 6  -4493289.57021        15.250           0.656
  22586049.344    -8753410.681 6  -6692337.19021        17.250           1.031
  23686885.156    -3428229.033 5  -2530376.25121         9.500           0.469
  24054237.742    -1988378.769 5  -1380382.66621         7.500           0.281
 91  6  6 17 29 29.9990000  0  5G18G11G 2G16G 6
  21274655.628     3094418.428 7   2402950.01522        23.250           2.438
  23035759.050    -5876464.321 6  -4513652.29621        14.750           0.750
  22576769.534    -8802197.045 6  -6730352.48621        17.500           1.156
  23682319.050    -3452224.466 5  -2549074.00221        10.000           0.438
  24046053.636    -2031404.373 5  -1413909.09421         7.500           0.375
 91  6  6 17 29 44.9990000  0  5G18G11G 2G16G 6
  21279634.589     3120590.649 7   2423343.88422        23.250           2.438
  23030814.331    -5902469.022 6  -4533915.66121        14.750           0.688
  22567499.769    -8850928.577 6  -6768325.06521        17.750           1.156
  23677777.675    -3476095.548 5  -2567674.86421        10.000           0.313
  24037868.245    -2074424.313 5  -1447431.09521         7.500           0.219
 91  6  6 17 29 59.9990000  0  5G18G11G 2G16G 6
  21284633.347     3146849.060 7   2443804.91222        23.250           2.406
  23025887.612    -5928349.620 6  -4554082.31621        15.250           0.781
  22558234.276    -8899607.331 6  -6806256.51521        17.750           1.125
  23673260.464    -3499845.932 5  -2586181.64921        10.000           0.375
  24029679.198    -2117441.127 5  -1480950.66721         7.500           0.281
 91  6  6 17 30 14.9990000  0  5G18G11G 2G16G 6
  21289645.683     3173197.061 7   2464335.75122        23.000           2.313
  23020987.894    -5954102.133 6  -4574149.17321        15.250           0.719
  22548977.792    -8948229.437 6  -6844143.82221        17.500           1.094
  23668766.331    -3523471.782 5  -2604591.43421        10.250           0.406
  24021496.847    -2160451.171 5  -1514464.95221         7.500           0.281
 91  6  6 17 30 29.9990000  0  5G18G11G 2G16G 6
  21294676.472     3199632.614 7   2484934.81222        22.750           2.344
  23016110.355    -5979728.203 6  -4594117.50121        15.750           0.719
  22539738.651    -8996796.525 6  -6881988.26821        17.500           1.125
  23664296.128    -3546974.849 5  -2622905.51221        10.750           0.281
  24013313.433    -2203456.217 5  -1547975.36021         8.250           0.250
 91  6  6 17 30 44.9990000  0  5G18G11G 2G16G 6
  21299729.378     3226161.568 7   2505606.65322        23.750           2.281
  23011256.347    -6005221.707 6  -4613982.53321        14.750           0.594
  22530509.347    -9045302.600 6  -6919785.16021        17.250           1.094
  23659844.808    -3570349.204 5  -2641119.31221        10.500           0.375
  24005130.972    -2246450.450 5  -1581477.35921         8.250           0.219
 91  6  6 17 30 59.9990000  0  5G18G11G 2G16G 6
  21304791.597     3252782.422 7   2526350.10923        23.000           2.500
  23006431.769    -6030583.723 6  -4633745.10321        15.500           0.813
  22521287.714    -9093748.838 6  -6957535.43821        17.000           1.188
  23655421.425    -3593596.464 5  -2659234.06921        10.750           0.406
  23996953.878    -2289435.260 5  -1614971.97621         8.000           0.281
 91  6  6 17 31 14.9990000  0  5G18G11G 2G16G 6
  21309875.409     3279493.350 7   2547163.74622        23.000           2.313
  23001629.831    -6055815.705 6  -4653406.35621        15.250           0.813
  22512083.394    -9142137.000 6  -6995240.45521        18.000           1.250
  23651021.433    -3616718.111 5  -2677250.96221        10.750           0.438
  23988773.237    -2332412.398 5  -1648460.63621         7.750           0.250
 91  6  6 17 31 29.9990000  0  5G18G11G 2G16G 6
  21314976.870     3306297.242 7   2568049.82122        23.250           2.375
  22996857.276    -6080914.269 6  -4672963.65021        15.500           0.781
  22502885.636    -9190463.963 6  -7032897.79121        17.750           1.156
  23646645.089    -3639710.732 5  -2695167.31021        10.500           0.438
  23980596.073    -2375378.681 5  -1681940.82221         8.250           0.250
 91  6  6 17 31 44.9990000  0  5G18G11G 2G16G 6
  21320095.480     3333191.380 7   2589006.21922        23.750           2.344
  22992103.597    -6105881.942 6  -4692418.96021        15.000           0.813
  22493699.308    -9238732.049 6  -7070509.24521        17.750           1.125
  23642294.190    -3662576.925 5  -2712985.14521        10.500           0.469
  23972427.534    -2418336.860 5  -1715414.69021         8.000           0.156
 91  6  6 17 31 59.9990000  0  5G18G11G 2G16G 6
  21325231.886     3360181.174 7   2610037.15122        23.500           2.344
  22987374.683    -6130712.831 6  -4711767.67121        14.750           0.719
  22484521.839    -9286935.688 6  -7108070.48721        17.250           1.156
  23637968.667    -3685311.018 5  -2730700.03821        10.500           0.500
  23964244.581    -2461281.420 5  -1748877.97121         7.500           0.313
 91  6  6 17 32 14.9990000  0  5G18G11G 2G16G 6
  21330381.534     3387260.373 7   2631137.75422        22.500           2.219
  22982678.792    -6155412.895 6  -4731014.46921        15.500           0.781
  22475365.480    -9335080.845 6  -7145586.15821        17.500           1.156
  23633668.183    -3707919.053 5  -2748316.71221        11.250           0.469
  23956074.386    -2504218.428 5  -1782335.35121         8.000           0.375
 91  6  6 17 32 29.9990000  0  5G18G11G 2G16G 6
  21335554.815     3414428.979 7   2652308.01422        22.750           2.188
  22978004.081    -6179981.675 6  -4750158.95221        15.500           0.813
  22466211.714    -9383167.259 6  -7183056.07421        17.750           1.125
  23629391.394    -3730400.839 5  -2765835.02821        11.500           0.375
  23947911.933    -2547147.841 5  -1815786.84821         8.250           0.313
 91  6  6 17 32 44.9990000  0  5G18G11G 2G16G 6
  21340740.847     3441688.140 7   2673548.85122        23.000           2.250
  22973353.206    -6204417.806 6  -4769200.06221        15.000           0.750
  22457070.776    -9431193.532 6  -7220479.09721        17.750           1.219
  23625133.433    -3752755.150 5  -2783253.97121        11.000           0.500
  23939739.831    -2590068.419 5  -1849231.41921         8.000           0.313
 91  6  6 17 32 59.9990000  0  5G18G11G 2G16G 6
  21345943.909     3469037.040 7   2694859.61422        23.250           2.250
  22968730.175    -6228721.584 6  -4788138.06221        15.500           0.813
  22447946.542    -9479159.986 6  -7257855.52021        18.000           1.156
  23620905.487    -3774982.594 5  -2800574.07521        10.750           0.500
  23931574.925    -2632980.874 5  -1882669.66621         8.000           0.281
 91  6  6 17 33 14.9990000  0  5G18G11G 2G16G 6
  21351168.558     3496474.440 7   2716239.33122        23.750           2.188
  22964126.917    -6252893.706 6  -4806973.46321        14.750           0.813
  22438827.769    -9527067.327 6  -7295185.87621        17.750           1.188
  23616700.339    -3797083.691 5  -2817795.72521        10.500           0.500
  23923408.331    -2675886.022 5  -1916102.23121         8.000           0.250
 91  6  6 17 33 29.9990000  0  5G18G11G 2G16G 6
  21356401.815     3523996.579 7   2737685.07222        22.500           2.250
  22959552.737    -6276937.186 6  -4825708.62421        15.250           0.750
  22429725.612    -9574918.951 6  -7332472.83121        18.000           1.188
  23612515.636    -3819061.726 5  -2834921.48521        10.250           0.406
  23915251.651    -2718787.154 5  -1949531.68421         8.250           0.219
 91  6  6 17 33 44.9990000  0  5G18G11G 2G16G 6
  21361658.409     3551609.341 7   2759201.43122        22.500           2.219
  22955004.683    -6300846.162 6  -4844338.98921        15.250           0.719
  22420629.573    -9622709.020 6  -7369711.82121        18.250           1.125
  23608360.159    -3840910.854 5  -2851946.80621        10.750           0.438
  23907086.128    -2761678.720 5  -1982953.63421         8.250           0.250
 91  6  6 17 33 59.9990000  0  5G18G11G 2G16G 6
  21366930.144     3579308.762 7   2780785.31222        22.750           2.250
  22950473.870    -6324624.674 6  -4862867.68721        14.750           0.781
  22411546.987    -9670441.599 6  -7406906.01721        18.250           1.156
  23604224.230    -3862635.338 5  -2868875.01521        10.000           0.500
  23898923.112    -2804564.828 5  -2016371.37221         8.250           0.250
 91  6  6 17 34 14.9990000  0  5G18G11G 2G16G 6
  21372214.573     3607093.648 7   2802435.79722        22.750           2.219
  22945976.370    -6348273.003 6  -4881294.94421        15.500           0.719
  22402471.026    -9718117.125 6  -7444055.74121        17.500           1.125
  23600115.276    -3884235.833 5  -2885706.57821        10.000           0.406
  23890762.628    -2847446.065 5  -2049785.29621         8.250           0.281
 91  6  6 17 34 29.9990000  0  5G18G11G 2G16G 6
  21377522.933     3634970.978 7   2824158.30922        23.250           2.063
  22941504.222    -6371783.954 6  -4899615.16421        15.250           0.750
  22393416.808    -9765728.575 6  -7481155.54421        17.500           1.156
  23596027.605    -3905705.100 5  -2902435.90721         9.750           0.500
  23882603.948    -2890315.540 5  -2083190.06821         8.250           0.281
 91  6  6 17 34 44.9990000  0  5G18G11G 2G16G 6
  21382842.230     3662933.818 7   2845947.45622        22.750           2.156
  22937054.550    -6395163.908 6  -4917833.31521        15.250           0.813
  22384368.511    -9813282.278 6  -7518210.35321        18.000           1.250
  23591967.800    -3927049.590 5  -2919068.00921        10.500           0.500
  23874447.901    -2933179.855 5  -2116590.81321         8.500           0.250
 91  6  6 17 34 59.9990000  0  5G18G11G 2G16G 6
  21388181.792     3690988.398 7   2867808.07822        22.250           2.219
  22932634.097    -6418406.204 6  -4935944.20521        16.250           0.750
  22375329.261    -9860771.708 6  -7555215.08721        18.000           1.313
  23587931.284    -3948262.937 5  -2935597.94021        10.000           0.469
  23866293.519    -2976032.542 5  -2149982.52421         8.750           0.281
 91  6  6 17 35 14.9990000  0  5G18G11G 2G16G 6
  21393537.675     3719134.218 7   2889739.79922        22.500           2.063
  22928236.370    -6441511.120 6  -4953948.03021        16.000           0.781
  22366305.894    -9908197.371 6  -7592170.13321        18.000           1.219
  23583921.987    -3969345.967 5  -2952026.31421        10.500           0.469
  23858141.214    -3018874.343 5  -2183365.74821         8.250           0.313
 91  6  6 17 35 29.9990000  0  5G18G11G 2G16G 6
  21398910.222     3747372.226 7   2911743.36022        22.000           2.063
  22923867.894    -6464477.328 6  -4971843.77121        16.750           0.719
  22357293.698    -9955557.988 6  -7629074.47521        18.000           1.281
  23579935.909    -3990297.241 5  -2968352.01521        11.250           0.500
  23849997.909    -3061704.015 5  -2216739.49421         9.000           0.250
 91  6  6 17 35 44.9990000  0  5G18G11G 2G16G 6
  21404303.745     3775699.548 7   2933816.51122        22.250           2.063
  22919521.315    -6487307.003 6  -4989633.12721        15.750           0.750
  22348292.073   -10002855.836 6  -7665929.91821        18.000           1.313
  23575969.190    -4011118.873 5  -2984576.69021        10.500           0.469
  23841845.534    -3104523.859 5  -2250105.60021         9.250           0.313
 91  6  6 17 35 59.9990000  0  5G18G11G 2G16G 6
  21409708.120     3804116.534 7   2955959.53422        21.750           2.188
  22915203.511    -6509999.811 6  -5007315.82921        15.750           0.750
  22339302.425   -10050090.730 6  -7702736.30521        18.250           1.281
  23572034.636    -4031810.839 5  -3000700.33021        10.750           0.500
  23833700.894    -3147333.942 5  -2283464.09021         9.000           0.281
 91  6  6 17 36 14.9990000  0  5G18G11G 2G16G 6
  21415136.089     3832624.746 7   2978173.64522        22.250           2.188
  22910910.683    -6532553.485 6  -5024890.12421        15.500           0.750
  22330326.612   -10097260.348 6  -7739491.81621        18.250           1.281
  23568118.362    -4052370.916 5  -3016721.20121        10.250           0.469
  23825558.003    -3190132.133 5  -2316813.32221         8.500           0.313
 91  6  6 17 36 29.9990000  0  5G18G11G 2G16G 6
  21420576.440     3861222.588 7   3000457.59822        22.250           2.125
  22906646.659    -6554969.675 6  -5042357.28321        16.000           0.781
  22321360.690   -10144366.531 6  -7776197.90121        17.750           1.406
  23564233.651    -4072800.828 5  -3032640.63921        10.750           0.500
  23817416.659    -3232920.264 5  -2350154.69421         9.250           0.281
 91  6  6 17 36 44.9990000  0  5G18G11G 2G16G 6
  21426038.612     3889909.346 7   3022810.83222        23.000           2.188
  22902405.011    -6577248.424 6  -5059717.34221        15.500           0.813
  22312410.183   -10191409.342 6  -7812854.60521        17.500           1.375
  23560369.776    -4093100.917 5  -3048458.89121        10.750           0.531
  23809267.495    -3275698.599 5  -2383488.42521         8.750           0.281
 91  6  6 17 36 59.9990000  0  5G18G11G 2G16G 6
  21431510.644     3918687.449 7   3045235.24722        22.250           1.969
  22898192.995    -6599387.241 6  -5076968.37221        15.250           0.781
  22303468.409   -10238386.271 6  -7849459.97221        17.750           1.281
  23556536.792    -4113268.695 5  -3064174.07521        11.000           0.531
  23801134.815    -3318464.870 5  -2416812.79421         9.250           0.344
 91  6  6 17 37 14.9990000  0  5G18G11G 2G16G 6
  21437001.675     3947552.196 7   3067727.17622        21.750           2.094
  22894008.159    -6621390.410 6  -5094113.68221        16.250           0.781
  22294540.894   -10285301.748 6  -7886017.44821        18.000           1.281
  23552719.315    -4133308.604 5  -3079789.61421        10.750           0.469
  23792997.683    -3361223.581 5  -2450131.21321         9.000           0.344
 91  6  6 17 37 29.9990000  0  5G18G11G 2G16G 6
  21442514.480     3976508.383 7   3090290.36422        22.250           2.063
  22889843.581    -6643252.496 6  -5111149.06721        15.500           0.844
  22285624.425   -10332150.298 6  -7922522.77121        18.000           1.188
  23548930.401    -4153215.628 5  -3095301.60521        10.000           0.406
  23784858.597    -3403969.549 5  -2483439.75321         9.000           0.219
 91  6  6 17 37 44.9990000  0  5G18G11G 2G16G 6
  21448040.417     4005551.945 7   3112921.63922        21.750           1.969
  22885714.628    -6664977.414 6  -5128077.57321        16.500           0.781
  22276723.808   -10378936.123 6  -7958979.22921        18.250           1.219
  23545167.925    -4172993.738 5  -3110713.13621        10.000           0.531
  23776729.308    -3446706.991 5  -2516741.61721         9.250           0.250
 91  6  6 17 37 59.9990000  0  5G18G11G 2G16G 6
  21453587.284     4034681.239 7   3135619.72022        22.500           2.094
  22881603.933    -6686566.251 6  -5144900.04021        15.750           0.844
  22267834.284   -10425660.300 6  -7995387.63621        18.250           1.281
  23541431.112    -4192644.051 5  -3126025.06821        11.000           0.500
  23768602.417    -3489437.153 5  -2550037.82421         9.250           0.281
 91  6  6 17 38 14.9990000  0  5G18G11G 2G16G 6
  21459147.440     4063893.943 7   3158382.78722        23.250           2.156
  22877520.690    -6708020.804 6  -5161617.87221        15.750           0.719
  22258954.612   -10472324.752 6  -8031749.50921        18.250           1.281
  23537713.745    -4212168.603 5  -3141239.04521        10.500           0.375
  23760468.980    -3532162.087 5  -2583329.95421         9.000           0.250
 91  6  6 17 38 29.9990000  0  5G18G11G 2G16G 6
  21464719.940     4093193.382 7   3181213.44522        22.500           2.063
  22873461.019    -6729337.615 6  -5178228.34821        15.500           0.719
  22250083.956   -10518926.219 6  -8068062.30721        18.250           1.313
  23534026.886    -4231563.714 5  -3156352.12321        11.000           0.469
  23752341.636    -3574878.566 5  -2616615.50721         9.000           0.313
 91  6  6 17 38 44.9990000  0  5G18G11G 2G16G 6
  21470311.980     4122579.730 7   3204111.82722        21.750           2.000
  22869435.386    -6750516.021 6  -5194730.99921        16.000           0.844
  22241228.315   -10565464.109 6  -8104325.54921        17.750           1.281
  23530356.511    -4250829.380 5  -3171364.34521        10.250           0.500
  23744213.308    -3617586.075 5  -2649894.05821         9.250           0.438
 91  6  6 17 38 59.9990000  0  5G18G11G 2G16G 6
  21475919.355     4152049.666 7   3227075.34322        21.750           2.063
  22865430.612    -6771559.119 6  -5211128.20821        16.000           0.875
  22232384.722   -10611941.446 6  -8140541.61221        18.000           1.344
  23526710.972    -4269968.860 5  -3186278.24921        10.000           0.500
  23736091.698    -3660287.988 5  -2683168.23121         9.500           0.406
 91  6  6 17 39 14.9990000  0  5G18G11G 2G16G 6
  21481544.206     4181609.857 7   3250109.18422        22.000           1.906
  22861453.394    -6792459.652 6  -5227414.34121        16.000           0.781
  22223551.339   -10658351.021 6  -8176704.87221        18.000           1.344
  23523094.956    -4288974.875 5  -3201088.14321        10.250           0.500
  23727965.065    -3702977.172 5  -2716432.49321         8.750           0.344
 91  6  6 17 39 29.9990000  0  5G18G11G 2G16G 6
  21487192.784     4211258.721 7   3273212.12022        23.000           2.031
  22857502.433    -6813218.912 6  -5243590.37921        16.250           0.750
  22214735.995   -10704694.463 6  -8212816.60421        18.250           1.313
  23519506.292    -4307849.002 5  -3215795.27321        10.250           0.469
  23719838.628    -3745655.240 5  -2749688.12221         8.750           0.375
 91  6  6 17 39 44.9990000  0  5G18G11G 2G16G 6
  21492846.659     4240991.969 7   3296380.81022        22.500           2.031
  22853579.980    -6833840.854 6  -5259659.42721        16.250           0.844
  22205928.183   -10750975.820 6  -8248879.96321        18.000           1.406
  23515942.839    -4326595.090 5  -3230402.63421        11.000           0.500
  23711721.464    -3788326.277 5  -2782938.25321         9.000           0.406
 91  6  6 17 39 59.9990000  0  5G18G11G 2G16G 6
  21498518.831     4270813.192 7   3319618.05322        22.000           1.875
  22849679.495    -6854321.533 6  -5275618.39321        15.500           0.813
  22197132.394   -10797191.062 6  -8284891.80021        18.000           1.406
  23512396.230    -4345209.206 5  -3244907.16621        10.750           0.500
  23703605.440    -3830986.633 5  -2816180.04721         9.250           0.281
 91  6  6 17 40 14.9990000  0  5G18G11G 2G16G 6
  21504211.550     4300721.548 7   3342923.19422        21.750           1.938
  22845807.433    -6874661.575 6  -5291467.77521        15.500           0.781
  22188352.245   -10843340.870 6  -8320852.64021        18.500           1.406
  23508876.417    -4363692.183 5  -3259309.48921        10.250           0.438
  23695489.526    -3873636.991 5  -2849414.06821         9.500           0.375
 91  6  6 17 40 29.9990000  0  5G18G11G 2G16G 6
  21509915.667     4330714.071 7   3366293.91822        21.500           1.938
  22841968.433    -6894863.456 6  -5307209.49421        16.500           0.750
  22179579.667   -10889427.639 6  -8356764.36521        18.500           1.375
  23505383.480    -4382047.078 5  -3273612.01121        10.500           0.406
  23687376.972    -3916280.048 5  -2882642.40121         9.750           0.438
 91  6  6 17 40 44.9990000  0  5G18G11G 2G16G 6
  21515645.605     4360790.099 7   3389729.70722        22.750           1.906
  22838146.401    -6914927.311 6  -5322843.66121        15.500           0.813
  22170826.464   -10935451.694 6  -8392627.22621        18.750           1.406
  23501916.987    -4400273.966 5  -3287814.82021        10.500           0.438
  23679259.659    -3958916.222 5  -2915865.36821         9.250           0.344
 91  6  6 17 40 59.9990000  0  5G18G11G 2G16G 6
  21521380.065     4390958.928 7   3413237.80122        21.500           1.969
  22834359.175    -6934843.781 6  -5338362.99021        16.250           0.719
  22162075.198   -10981403.843 6  -8428434.06621        18.500           1.313
  23498473.511    -4418363.479 5  -3301910.56021        10.750           0.500
  23671144.456    -4001536.248 5  -2949075.76221         9.250           0.281
 91  6  6 17 41 14.9990000  0  5G18G11G 2G16G 6
  21527137.940     4421213.470 7   3436812.68222        21.250           2.031
  22830596.605    -6954619.339 6  -5353772.51821        16.750           0.750
  22153351.105   -11027290.606 6  -8464189.95621        19.000           1.375
  23495057.128    -4436322.682 5  -3315904.77321        10.750           0.500
  23663038.519    -4044146.928 5  -2982278.87421         8.750           0.250
 91  6  6 17 41 29.9990000  0  5G18G11G 2G16G 6
  21532912.675     4451555.994 7   3460456.13122        21.250           1.906
  22826863.503    -6974251.520 6  -5369070.32021        17.000           0.844
  22144630.190   -11073109.611 6  -8499893.03321        18.750           1.406
  23491669.026    -4454148.706 5  -3329795.19621        10.750           0.406
  23654933.128    -4086745.968 5  -3015472.90121         9.000           0.344
 91  6  6 17 41 44.9990000  0  5G18G11G 2G16G 6
  21538706.230     4481993.669 7   3484173.71922        21.500           1.875
  22823149.378    -6993732.640 6  -5384250.41421        16.000           0.875
  22135921.323   -11118853.185 6  -8535537.33821        18.500           1.438
  23488297.409    -4471834.214 5  -3343576.11921        11.000           0.469
  23646836.847    -4129325.762 5  -3048651.93821         9.750           0.281
 91  6  6 17 41 59.9990000  0  5G18G11G 2G16G 6
  21544516.144     4512522.117 7   3507962.04422        21.500           1.813
  22819477.472    -7013066.697 6  -5399315.91121        17.000           0.781
  22127231.800   -11164525.415 6  -8571126.04421        18.500           1.375
  23484960.222    -4489383.525 5  -3357250.93321        10.500           0.531
  23638728.409    -4171890.600 5  -3081819.32521         9.500           0.281
 91  6  6 17 42 14.9990000  0  5G18G11G 2G16G 6
  21550343.667     4543146.226 7   3531824.91722        21.750           1.906
  22815820.808    -7032248.533 6  -5414262.78921        16.000           0.781
  22118556.714   -11210121.056 6  -8606655.07221        18.750           1.406
  23481646.980    -4506791.659 5  -3370815.72521        10.250           0.531
  23630635.956    -4214435.521 5  -3114971.18621         9.500           0.469
 91  6  6 17 42 29.9990000  0  5G18G11G 2G16G 6
  21556188.597     4573864.265 7   3555760.97522        21.500           1.781
  22812200.792    -7051279.765 6  -5429092.31621        17.000           0.875
  22109890.480   -11255642.090 6  -8642125.95422        18.250           1.500
  23478363.714    -4524060.201 5  -3384271.74321        10.750           0.469
  23622539.487    -4256962.332 5  -3148108.92521         9.250           0.344
 91  6  6 17 42 44.9990000  0  5G18G11G 2G16G 6
  21562050.730     4604670.605 7   3579765.84222        21.500           1.875
  22808606.745    -7070165.499 6  -5443808.47621        16.750           0.875
  22101238.948   -11301093.608 6  -8677542.68121        18.250           1.406
  23475101.042    -4541194.298 5  -3397622.99621        10.500           0.406
  23614454.870    -4299476.364 5  -3181236.73121         9.250           0.281
 91  6  6 17 42 59.9990000  0  5G18G11G 2G16G 6
  21567929.878     4635570.363 7   3603843.50422        21.000           1.844
  22805038.401    -7088899.973 6  -5458406.75421        15.750           0.813
  22092608.464   -11346469.905 6  -8712900.79221        18.750           1.438
  23471867.011    -4558188.680 5  -3410865.39721        10.500           0.406
  23606367.964    -4341971.923 5  -3214350.12121         9.500           0.469
 91  6  6 17 43 14.9990000  0  5G18G11G 2G16G 6
  21573830.276     4666558.990 7   3627990.40622        21.500           1.750
  22801503.245    -7107487.733 6  -5472890.71521        15.750           0.813
  22083985.862   -11391775.493 6  -8748203.80322        19.000           1.563
  23468656.636    -4575047.985 5  -3424002.54221        10.250           0.375
  23598287.745    -4384453.811 5  -3247452.86321         9.500           0.344
 91  6  6 17 43 29.9990000  0  5G18G11G 2G16G 6
  21579738.690     4697632.752 7   3652203.65422        20.750           1.938
  22797996.323    -7125932.018 6  -5487262.88121        16.750           0.875
  22075377.870   -11437013.745 6  -8783454.33921        19.000           1.438
  23465479.706    -4591775.295 5  -3437036.82421        10.750           0.406
  23590197.855    -4426925.320 5  -3280547.52521         9.250           0.344
 91  6  6 17 43 44.9990000  0  5G18G11G 2G16G 6
  21585672.792     4728800.620 7   3676490.22522        21.250           1.813
  22794516.378    -7144223.526 6  -5501515.99321        16.500           0.844
  22066783.980   -11482175.457 6  -8818645.23822        18.750           1.500
  23462320.089    -4608361.592 5  -3449961.21221        11.000           0.438
  23582121.675    -4469377.451 5  -3313627.08621         9.750           0.344
 91  6  6 17 43 59.9990000  0  5G18G11G 2G16G 6
  21591625.972     4760061.495 7   3700849.27322        22.250           1.750
  22791061.776    -7162362.822 6  -5515650.50321        16.000           0.844
  22058204.261   -11527261.073 6  -8853776.84621        19.000           1.375
  23459187.253    -4624807.626 5  -3462776.31121        10.500           0.281
  23574044.097    -4511810.952 5  -3346692.12521         9.000           0.313
 91  6  6 17 44 14.9990000  0  5G18G11G 2G16G 6
  21597584.597     4791419.398 7   3725283.92322        21.500           1.875
  22787641.011    -7180345.823 6  -5529663.22921        16.000           0.875
  22049640.753   -11572266.559 6  -8888846.00522        18.750           1.500
  23456090.433    -4641109.334 5  -3475478.98021        10.500           0.375
  23565974.722    -4554221.832 5  -3379739.54621         9.500           0.438
 91  6  6 17 44 29.9990000  0  5G18G11G 2G16G 6
  21603570.573     4822870.863 7   3749791.48522        21.250           1.844
  22784244.894    -7198175.612 6  -5543556.54921        15.750           0.813
  22041092.300   -11617195.137 6  -8923855.24222        19.000           1.563
  23453017.878    -4657270.103 5  -3488071.79521        11.000           0.438
  23557912.315    -4596613.240 5  -3412771.77421        10.250           0.375
 91  6  6 17 44 44.9990000  0  5G18G11G 2G16G 6
  21609572.776     4854410.842 7   3774368.01422        21.250           1.875
  22780881.034    -7215856.985 6  -5557334.23421        16.000           0.781
  22032555.995   -11662051.653 6  -8958808.32921        19.000           1.469
  23449968.292    -4673294.651 5  -3500558.47421        10.500           0.281
  23549845.683    -4638990.297 5  -3445792.84121         9.750           0.313
 91  6  6 17 44 59.9990000  0  5G18G11G 2G16G 6
  21615593.870     4886042.556 7   3799016.02322        21.250           1.781
  22777548.589    -7233386.190 6  -5570993.35221        16.750           0.844
  22024029.261   -11706832.470 6  -8993702.42822        18.750           1.563
  23446942.308    -4689179.680 5  -3512936.43721        10.750           0.406
  23541780.761    -4681349.421 5  -3478799.92521         9.500           0.406
 91  6  6 17 45 14.9990000  0  5G18G11G 2G16G 6
  21621633.776     4917768.558 7   3823737.51322        21.000           1.750
  22774243.050    -7250760.369 6  -5584531.66221        16.250           0.781
  22015526.675   -11751534.694 6  -9028535.28421        18.750           1.469
  23443943.987    -4704922.119 5  -3525203.30421        10.000           0.375
  23533731.815    -4723687.841 5  -3511790.89621         9.750           0.344
 91  6  6 17 45 29.9990000  0  5G18G11G 2G16G 6
  21627690.175     4949588.972 7   3848532.56122        21.250           1.688
  22770964.058    -7267979.050 6  -5597948.80321        16.250           0.719
  22007033.644   -11796157.858 6  -9063306.54021        19.250           1.406
  23440977.644    -4720521.953 5  -3537359.01521        10.250           0.375
  23525675.964    -4766005.266 5  -3544765.46521         9.500           0.406
 91  6  6 17 45 44.9990000  0  5G18G11G 2G16G 6
  21633759.417     4981500.601 7   3873398.68622        21.250           1.656
  22767718.073    -7285045.007 6  -5611246.93621        16.750           0.844
  21998558.198   -11840704.802 6  -9098018.40522        19.750           1.594
  23438034.237    -4735981.994 5  -3549405.83921        10.250           0.438
  23517626.269    -4808304.628 5  -3577726.00921         9.750           0.375
 91  6  6 17 45 59.9990000  0  5G18G11G 2G16G 6
  21639849.534     5013499.969 7   3898333.17922        21.000           1.656
  22764495.769    -7301961.514 6  -5624428.62021        16.000           0.813
  21990098.409   -11885178.882 6  -9132673.48222        19.750           1.500
  23435120.722    -4751305.592 5  -3561346.32921        10.000           0.438
  23509580.862    -4850589.325 5  -3610675.08321         9.750           0.281
 91  6  6 17 46 14.9990000  0  5G18G11G 2G16G 6
  21645957.245     5045593.604 7   3923341.13122        21.250           1.688
  22761308.472    -7318721.625 6  -5637488.43321        17.000           0.844
  21981644.269   -11929573.341 6  -9167266.53422        19.000           1.656
  23432230.230    -4766486.019 5  -3573175.24121        10.250           0.406
  23501540.503    -4892852.665 5  -3643607.52621        10.000           0.344
 91  6  6 17 46 29.9990000  0  5G18G11G 2G16G 6
  21652083.386     5077778.806 7   3948420.43022        21.250           1.719
  22758148.183    -7335327.791 6  -5650428.27721        16.000           0.813
  21973215.917   -11973890.585 6  -9201799.40622        19.250           1.563
  23429368.925    -4781525.819 5  -3584894.57621        10.500           0.500
  23493496.417    -4935097.246 5  -3676525.38821         9.500           0.406
 91  6  6 17 46 44.9990000  0  5G18G11G 2G16G 6
  21658225.847     5110057.755 7   3973572.78622        21.000           1.688
  22755017.620    -7351777.149 6  -5663245.93921        16.250           0.844
  21964793.370   -12018127.822 6  -9236269.93422        19.500           1.563
  23426534.987    -4796422.240 5  -3596502.20621        10.500           0.375
  23485455.026    -4977320.351 5  -3709426.45721         9.000           0.469
 91  6  6 17 46 59.9990000  0  5G18G11G 2G16G 6
  21664388.042     5142427.686 7   3998796.03122        21.000           1.719
  22751919.276    -7368072.495 6  -5675943.59721        17.000           0.844
  21956394.448   -12062288.005 6  -9270680.42522        19.750           1.656
  23423721.472    -4811178.419 5  -3608000.53321        10.000           0.438
  23477428.253    -5019525.025 5  -3742313.20821         9.500           0.375
 91  6  6 17 47 14.9990000  0  5G18G11G 2G16G 6
  21670563.948     5174893.119 7   4024093.68822        21.000           1.781
  22748844.714    -7384209.125 6  -5688517.58621        16.500           0.813
  21948006.323   -12106366.134 6  -9305026.97922        19.500           1.594
  23420943.698    -4825789.566 5  -3619385.86721        10.250           0.563
  23469404.480    -5061706.441 5  -3775181.81021         9.500           0.219
 91  6  6 17 47 29.9990000  0  5G18G11G 2G16G 6
  21676756.956     5207454.199 7   4049465.88122        20.500           1.688
  22745803.628    -7400186.279 6  -5700967.28821        16.250           0.813
  21939632.269   -12150361.716 6  -9339309.21422        19.750           1.625
  23418193.761    -4840255.086 5  -3630657.73121        10.250           0.375
  23461378.933    -5103864.144 5  -3808031.95021         9.500           0.281
 91  6  6 17 47 44.9990000  0  5G18G11G 2G16G 6
  21682968.839     5240106.052 7   4074908.80422        20.250           1.656
  22742798.644    -7416008.285 6  -5713296.10321        17.250           0.781
  21931275.034   -12194279.110 6  -9373530.52322        19.750           1.500
  23415469.690    -4854579.652 5  -3641819.75021        10.750           0.469
  23453365.792    -5146002.693 5  -3840867.16521        10.250           0.406
 91  6  6 17 47 59.9990000  0  5G18G11G 2G16G 6
  21689202.605     5272849.720 7   4100423.27022        20.500           1.719
  22739817.464    -7431673.968 6  -5725503.10721        17.000           0.781
  21922932.651   -12238117.098 7  -9407689.94822        20.250           1.594
  23412761.823    -4868762.116 5  -3652871.05121        10.250           0.438
  23445352.940    -5188120.856 5  -3873686.47421        10.250           0.438
 91  6  6 17 48 14.9990000  0  5G18G11G 2G16G 6
  21695448.894     5305680.736 7   4126005.80122        20.250           1.656
  22736863.870    -7447187.738 6  -5737591.73821        16.750           0.781
  21914607.050   -12281880.117 7  -9441790.97122        20.250           1.563
  23410096.370    -4882807.010 5  -3663815.12221        11.000           0.375
  23437341.183    -5230223.314 5  -3906493.56921        10.250           0.344
 91  6  6 17 48 29.9990000  0  5G18G11G 2G16G 6
  21701711.667     5338604.611 7   4151660.68722        20.500           1.750
  22733941.167    -7462543.533 6  -5749557.27021        16.250           0.906
  21906289.894   -12325562.179 7  -9475828.89622        20.250           1.594
  23407448.128    -4896708.300 5  -3674647.34321        10.500           0.406
  23429326.112    -5272304.148 5  -3939283.79321         9.500           0.406
 91  6  6 17 48 44.9990000  0  5G18G11G 2G16G 6
  21708001.456     5371621.244 7   4177387.85122        21.000           1.688
  22731046.206    -7477741.150 6  -5761399.54221        16.000           0.844
  21897995.925   -12369163.021 7  -9509803.54522        20.000           1.688
  23404831.105    -4910466.174 5  -3685367.79321        10.750           0.438
  23421323.386    -5314363.150 5  -3972057.01321         9.750           0.469
 91  6  6 17 48 59.9990000  0  5G18G11G 2G16G 6
  21714295.808     5404728.524 7   4203185.65422        20.000           1.594
  22728187.511    -7492782.116 6  -5773119.75621        16.750           0.844
  21889711.886   -12412684.284 7  -9543716.17322        20.000           1.688
  23402243.503    -4924082.199 5  -3695977.69021        11.000           0.531
  23413323.519    -5356402.053 5  -4004814.58421         9.750           0.313
 91  6  6 17 49 14.9990000  0  5G18G11G 2G16G 6
  21720618.948     5437929.100 7   4229056.15222        20.000           1.750
  22725354.534    -7507663.706 6  -5784715.78121        16.000           0.813
  21881448.823   -12456123.195 7  -9577564.63822        20.000           1.813
  23399680.042    -4937553.575 5  -3706474.89621        10.750           0.406
  23405324.737    -5398418.312 5  -4037554.48521         9.500           0.438
 91  6  6 17 49 29.9990000  0  5G18G11G 2G16G 6
  21726950.792     5471221.070 7   4254997.86822        20.250           1.625
  22722554.714    -7522387.503 6  -5796188.85021        16.250           0.875
  21873195.917   -12499481.466 6  -9611350.26022        19.750           1.625
  23397146.433    -4950882.301 5  -3716860.93521        10.750           0.469
  23397339.964    -5440413.646 5  -4070278.11321        10.750           0.375
 91  6  6 17 49 44.9990000  0  5G18G11G 2G16G 6
  21733304.909     5504604.480 7   4281010.83622        20.250           1.594
  22719779.292    -7536953.167 6  -5807538.69221        15.750           0.688
  21864965.980   -12542758.991 7  -9645072.97522        20.500           1.656
  23394629.253    -4964068.362 5  -3727135.80121        10.750           0.406
  23389350.261    -5482387.972 5  -4102985.35621        10.250           0.281
 91  6  6 17 49 59.9990000  0  5G18G11G 2G16G 6
  21739675.972     5538076.550 7   4307092.89522        20.750           1.625
  22717038.089    -7551363.083 6  -5818767.18521        16.000           0.906
  21856742.128   -12585957.920 7  -9678734.43622        20.750           1.625
  23392146.480    -4977114.170 5  -3737301.40521        10.250           0.406
  23381366.300    -5524343.658 5  -4135678.08221        10.000           0.281
 91  6  6 17 50 14.9990000  0  5G18G11G 2G16G 6
  21746060.331     5571636.548 6   4333243.45422        19.750           1.531
  22714326.831    -7565617.590 6  -5829874.56121        16.250           0.875
  21848535.003   -12629078.767 7  -9712335.05922        20.500           1.656
  23389694.495    -4990019.863 5  -3747357.79821        10.750           0.500
  23373389.823    -5566281.197 5  -4168356.64821        10.000           0.344
 91  6  6 17 50 29.9990000  0  5G18G11G 2G16G 6
  21752464.925     5605289.425 7   4359466.40022        20.000           1.625
  22711641.355    -7579711.605 6  -5840856.89021        15.750           0.875
  21840341.550   -12672116.501 7  -9745870.92022        20.000           1.719
  23387268.347    -5002780.718 5  -3757301.36021        10.750           0.438
  23365409.347    -5608195.514 5  -4201017.14521         9.750           0.375
 91  6  6 17 50 44.9990000  0  5G18G11G 2G16G 6
  21758886.378     5639033.436 6   4385760.34722        19.750           1.563
  22708991.222    -7593646.486 6  -5851715.21821        16.000           0.813
  21832171.597   -12715072.389 7  -9779343.01022        20.500           1.625
  23384867.667    -5015398.250 5  -3767133.22021        10.500           0.406
  23357440.542    -5650088.230 5  -4233660.79021        10.500           0.469
 91  6  6 17 50 59.9990000  0  5G18G11G 2G16G 6
  21765324.394     5672865.657 6   4412123.03222        19.750           1.625
  22706364.769    -7607424.927 6  -5862451.64721        15.750           0.813
  21824013.769   -12757949.141 7  -9812753.43122        21.000           1.688
  23382495.089    -5027875.287 5  -3776855.61021        10.500           0.438
  23349470.597    -5691962.072 5  -4266289.73121        10.250           0.438
 91  6  6 17 51 14.9990000  0  5G18G11G 2G16G 6
  21771778.253     5706786.262 6   4438554.58522        19.500           1.500
  22703777.886    -7621046.030 6  -5873065.47921        16.500           0.750
  21815872.964   -12800745.873 7  -9846101.49522        21.000           1.656
  23380145.214    -5040211.024 5  -3786467.89221        10.750           0.594
  23341509.386    -5733816.287 5  -4298903.38221        10.500           0.375
 91  6  6 17 51 29.9990000  0  5G18G11G 2G16G 6
  21778254.003     5740798.106 7   4465057.23322        20.000           1.594
  22701217.597    -7634506.649 6  -5883554.24521        16.750           0.750
  21807737.230   -12843459.426 7  -9879384.74522        20.250           1.750
  23377819.331    -5052402.547 5  -3795967.80221        10.000           0.469
  23333541.823    -5775647.883 5  -4331499.40621        10.000           0.406
 91  6  6 17 51 44.9990000  0  5G18G11G 2G16G 6
  21784738.308     5774901.811 6   4491631.46222        19.250           1.531
  22698685.456    -7647806.139 6  -5893917.45721        16.750           0.813
  21799624.925   -12886089.306 7  -9912602.79522        20.250           1.719
  23375532.776    -5064449.350 5  -3805354.94221        11.250           0.406
  23325592.370    -5817456.324 5  -4364077.38421        10.250           0.500
 91  6  6 17 51 59.9990000  0  5G18G11G 2G16G 6
  21791248.964     5809094.068 6   4518274.69521        19.500           1.469
  22696181.480    -7660947.451 6  -5904157.42721        15.750           0.813
  21791531.589   -12928638.437 7  -9945757.93022        20.500           1.750
  23373261.769    -5076354.320 5  -3814631.56721        10.750           0.500
  23317637.362    -5859244.791 5  -4396639.80721        10.500           0.500
 91  6  6 17 52 14.9990000  0  5G18G11G 2G16G 6
  21797775.909     5843376.255 7   4544988.00421        20.250           1.469
  22693716.534    -7673928.704 6  -5914272.66621        16.500           0.875
  21783450.597   -12971104.870 7  -9978848.62022        20.750           1.656
  23371027.167    -5088115.814 5  -3823796.38021        10.500           0.469
  23309688.519    -5901011.348 5  -4429185.13521        10.000           0.375
 91  6  6 17 52 29.9990000  0  5G18G11G 2G16G 6
  21804312.222     5877748.037 7   4571771.12522        20.000           1.531
  22691276.237    -7686750.018 6  -5924263.27721        16.500           0.844
  21775385.253   -13013488.870 7 -10011875.08022        20.500           1.750
  23368815.511    -5099734.225 5  -3832849.71121        10.500           0.500
  23301747.073    -5942756.257 5  -4461713.61421        10.250           0.469
 91  6  6 17 52 44.9990000  0  5G18G11G 2G16G 6
  21810869.245     5912205.587 7   4598621.08121        20.000           1.469
  22688867.276    -7699414.956 6  -5934132.03321        17.000           0.781
  21767335.003   -13055794.033 7 -10044840.10622        20.250           1.781
  23366625.956    -5111213.252 5  -3841794.45221        10.250           0.500
  23293806.159    -5984483.192 5  -4494228.09421        10.250           0.406
 91  6  6 17 52 59.9990000  0  5G18G11G 2G16G 6
  21817442.784     5946751.841 6   4625540.14922        19.250           1.563
  22686488.175    -7711920.205 6  -5943876.36321        17.000           0.938
  21759300.073   -13098016.909 7 -10077741.01322        20.750           1.750
  23364475.487    -5122549.541 5  -3850627.93621        10.750           0.531
  23285871.190    -6026188.913 5  -4526726.03821         9.750           0.406
 91  6  6 17 53 14.9990000  0  5G18G11G 2G16G 6
  21824035.636     5981385.416 6   4652527.26822        19.250           1.500
  22684133.808    -7724266.976 6  -5953497.19421        15.750           0.844
  21751280.956   -13140158.792 7 -10110578.79822        21.000           1.750
  23362346.026    -5133744.427 5  -3859351.24621        11.000           0.563
  23277935.331    -6067874.796 5  -4559208.50921        10.500           0.406
 91  6  6 17 53 29.9990000  0  5G18G11G 2G16G 6
  21830642.456     6016107.058 6   4679583.00522        19.250           1.563
  22681817.183    -7736454.445 6  -5962993.90821        16.000           0.844
  21743273.839   -13182218.882 7 -10143352.86022        20.500           1.875
  23360240.862    -5144797.164 5  -3867963.79321        11.250           0.406
  23270009.042    -6109540.024 5  -4591674.89621        10.750           0.438
 91  6  6 17 53 44.9990000  0  5G18G11G 2G16G 6
  21837263.190     6050912.412 6   4706703.97022        19.000           1.563
  22679528.870    -7748486.461 6  -5972369.49421        17.000           0.938
  21735289.565   -13224201.058 7 -10176066.20422        21.000           1.813
  23358164.448    -5155711.880 5  -3876468.80321        11.000           0.438
  23262078.792    -6151188.546 5  -4624128.27221        10.250           0.438
 91  6  6 17 53 59.9990000  0  5G18G11G 2G16G 6
  21843902.995     6085806.778 6   4733894.30622        19.000           1.500
  22677269.690    -7760357.313 6  -5981619.48421        16.500           0.813
  21727315.526   -13266099.679 7 -10208714.44322        21.250           1.781
  23356116.495    -5166483.002 5  -3884861.90121        11.250           0.500
  23254163.620    -6192814.789 5  -4656564.28621        10.750           0.438
 91  6  6 17 54 14.9990000  0  5G18G11G 2G16G 6
  21850561.683     6120788.129 6   4761152.41122        19.250           1.500
  22675041.776    -7772068.665 6  -5990745.19021        16.500           0.781
  21719356.534   -13307916.381 7 -10241298.84622        21.000           1.844
  23354087.753    -5177112.408 5  -3893144.58521        10.750           0.406
  23246245.378    -6234420.461 5  -4688984.26021        11.250           0.438
 91  6  6 17 54 29.9990000  0  5G18G11G 2G16G 6
  21857232.495     6155856.502 6   4788478.33421        18.750           1.469
  22672842.909    -7783620.023 6  -5999746.23221        16.750           0.844
  21711413.409   -13349650.700 7 -10273819.05422        21.000           1.750
  23352091.940    -5187599.798 5  -3901316.60021        10.750           0.375
  23238331.519    -6276005.322 5  -4721388.04621        11.250           0.406
 91  6  6 17 54 44.9990000  0  5G18G11G 2G16G 6
  21863927.081     6191009.900 6   4815870.51021        19.250           1.469
  22670671.612    -7795013.174 6  -6008623.99921        16.500           0.875
  21703491.464   -13391304.382 7                        21.250
  23350129.878    -5197947.114 5  -3909379.47021        11.000           0.375
  23230420.519    -6317571.197 5                        11.000
 91  6  6 17 54 59.9990000  0  5G18G11G 2G16G 6
  21870629.253     6226250.197 6   4843330.40221        18.750           1.469
  22668530.144    -7806246.249 6  -6017377.02021        15.750           0.875
  21695577.940   -13432875.580 7                        21.000
  23348179.581    -5208152.498 5  -3917331.73421        10.500           0.438
  23222518.722    -6359116.173 5                        11.000
 91  6  6 17 55 14.9990000  0  5G18G11G 2G16G 6
  21877352.284     6261575.050 6   4870856.17521        19.000           1.438
  22666432.948    -7817321.189 6  -6026006.83121        17.000           0.813
  21687684.480   -13474366.154 7                        21.250
  23346266.472    -5218217.881 5  -3925174.93821        10.750           0.438
  23214611.636    -6400642.335 5                        10.750
 91  6  6 17 55 29.9990000  0  5G18G11G 2G16G 6
  21884093.120     6296990.935 6   4898452.88721        19.000           1.406
  22664350.230    -7828231.093 6  -6034508.04821        16.250           0.781
  21679801.151   -13515769.278 7 -10403261.95222        21.000           1.906
  23344382.347    -5228136.660 5  -3932903.87621        11.000           0.438
  23206720.464    -6442142.904 6  -4850845.81521        12.000           0.438
 91  6  6 17 55 44.9990000  0  5G18G11G 2G16G 6
  21890848.034     6332493.174 6   4926116.88221        18.750           1.375
  22662304.620    -7838980.325 6  -6042884.05221        16.750           0.844
  21671938.089   -13557089.328 7 -10435459.35522        20.750           1.844
  23342519.894    -5237913.382 5  -3940522.13221        10.750           0.500
  23198821.503    -6483622.284 5  -4883167.38521        11.250           0.406
 91  6  6 17 55 59.9990000  0  5G18G11G 2G16G 6
  21897621.831     6368078.546 6   4953845.66321        19.000           1.344
  22660291.394    -7849571.970 6  -6051137.26721        16.000           0.844
  21664088.487   -13598329.344 7 -10467594.39022        20.750           1.938
  23340683.761    -5247551.108 5  -3948032.07021        10.250           0.469
  23190935.237    -6525083.644 5  -4915474.90321        11.500           0.469
 91  6  6 17 56 14.9990000  0  5G18G11G 2G16G 6
  21904410.136     6403746.503 6   4981638.78921        18.750           1.375
  22658307.198    -7860006.242 6  -6059267.84721        16.750           0.906
  21656258.987   -13639489.483 7 -10499667.19422        21.250           1.781
  23338883.276    -5257050.050 5  -3955433.87821        11.000           0.500
  23183042.675    -6566527.266 5  -4947768.63821        11.250           0.563
 91  6  6 17 56 29.9990000  0  5G18G11G 2G16G 6
  21911212.511     6439499.906 6   5009498.50021        18.500           1.344
  22656356.300    -7870279.863 6  -6067273.25121        17.750           0.938
  21648442.534   -13680566.465 7 -10531675.19622        21.000           1.781
  23337098.394    -5266407.356 5  -3962725.30621        10.250           0.406
  23175158.448    -6607949.990 5  -4980046.07421        11.000           0.563
 91  6  6 17 56 44.9990000  0  5G18G11G 2G16G 6
  21918031.636     6475336.267 6   5037422.84821        18.000           1.375
  22654426.714    -7880395.070 6  -6075155.21121        17.250           0.844
  21640644.995   -13721562.589 7 -10563620.19722        21.500           1.906
  23335341.151    -5275625.453 5  -3969908.26321        10.500           0.531
  23167282.214    -6649354.033 5  -5012308.94321        10.750           0.438
 91  6  6 17 56 59.9990000  0  5G18G11G 2G16G 6
  21924866.222     6511258.489 6   5065414.10521        18.250           1.438
  22652532.612    -7890348.803 6  -6082911.36721        17.250           0.875
  21632857.753   -13762474.814 7 -10595499.83122        21.750           1.906
  23333619.019    -5284701.283 5  -3976980.38921        10.250           0.469
  23159408.870    -6690736.505 5  -5044555.00021        10.750           0.438
 91  6  6 17 57 14.9990000  0  5G18G11G 2G16G 6
  21931720.605     6547265.479 6   5093471.41121        18.250           1.438
  22650669.355    -7900141.874 6  -6090542.31721        16.500           0.875
  21625088.456   -13803304.046 7 -10627314.78422        21.500           1.875
  23331921.081    -5293635.770 5  -3983942.33721        10.750           0.469
  23151536.917    -6732098.225 5  -5076784.90921        11.000           0.313
 91  6  6 17 57 29.9990000  0  5G18G11G 2G16G 6
  21938589.378     6583356.097 6   5121593.87621        18.500           1.406
  22648836.120    -7909775.188 6  -6098048.77721        17.250           0.844
  21617334.042   -13844051.122 7 -10659065.73022        21.750           1.875
  23330243.472    -5302430.126 5  -3990795.10621        10.750           0.438
  23143674.089    -6773440.214 5  -5108999.43121        11.750           0.594
 91  6  6 17 57 44.9990000  0  5G18G11G 2G16G 6
  21945467.237     6619527.935 6   5149779.63522        18.500           1.500
  22647029.261    -7919250.652 6  -6105432.24221        16.000           0.938
  21609595.050   -13884717.917 7 -10690754.11922        21.750           1.938
  23328599.081    -5311086.378 5  -3997540.28521        11.500           0.469
  23135806.636    -6814764.428 5  -5141200.09821        11.250           0.500
 91  6  6 17 57 59.9990000  0  5G18G11G 2G16G 6
  21952370.386     6655781.082 6   5178028.75721        18.750           1.438
  22645260.495    -7928567.852 6  -6112692.39521        17.000           0.938
  21601869.605   -13925303.997 7 -10722379.60622        21.500           1.844
  23326973.026    -5319604.127 5  -4004177.52221        10.250           0.438
  23127947.175    -6856070.495 5  -5173386.62721        11.500           0.438
 91  6  6 17 58 14.9990000  0  5G18G11G 2G16G 6
  21959280.980     6692119.515 6   5206344.32521        18.000           1.438
  22643521.151    -7937722.501 6  -6119825.87921        17.250           0.906
  21594163.620   -13965804.875 7 -10753938.71122        21.250           1.938
  23325378.097    -5327979.063 5  -4010703.47021        10.500           0.500
  23120091.886    -6897354.131 5  -5205555.69121        11.500           0.469
 91  6  6 17 58 29.9990000  0  5G18G11G 2G16G 6
  21966212.308     6728540.205 6   5234723.99521        17.750           1.344
  22641802.175    -7946717.381 6  -6126834.86421        17.000           0.813
  21586470.823   -14006223.517 7 -10785433.72722        21.750           1.969
  23323815.011    -5336214.227 5  -4017120.53321        10.750           0.500
  23112240.605    -6938618.248 5  -5237709.53221        11.500           0.531
 91  6  6 17 58 44.9990000  0  5G18G11G 2G16G 6
  21973160.722     6765044.453 6   5263168.77321        18.250           1.281
  22640121.112    -7955551.129 6  -6133718.29321        16.250           0.781
  21578795.339   -14046558.404 7 -10816863.48722        22.000           1.844
  23322278.815    -5344308.257 5  -4023427.59721        11.000           0.406
  23104391.690    -6979861.465 5  -5269847.07321        11.250           0.563
 91  6  6 17 58 59.9990000  0  5G18G11G 2G16G 6
  21980125.237     6801634.500 6   5291680.41621        18.000           1.250
  22638471.144    -7964221.381 6  -6140474.32521        16.750           0.844
  21571137.620   -14086807.334 7 -10848226.26322        22.000           1.906
  23320760.870    -5352258.956 5  -4029622.98721        10.750           0.531
  23096545.409    -7021081.462 5  -5301966.54121        11.000           0.438
 91  6  6 17 59 14.9990000  0  5G18G11G 2G16G 6
  21987103.409     6838303.397 6   5320253.48521        18.000           1.188
  22636857.456    -7972734.393 6  -6147107.82521        17.250           0.906
  21563492.370   -14126976.533 7 -10879526.90922        21.250           1.938
  23319278.065    -5360072.928 5  -4035711.81421        11.250           0.531
  23088705.120    -7062284.619 5  -5334072.87621        11.750           0.531
 91  6  6 17 59 29.9990000  0  5G18G11G 2G16G 6
  21994090.940     6875053.436 6   5348889.80021        17.500           1.188
  22635268.519    -7981087.687 6  -6153616.88121        17.250           0.813
  21555865.573   -14167063.554 7 -10910763.53622        22.000           1.938
  23317809.120    -5367747.909 5  -4041692.35521        10.250           0.438
  23080869.831    -7103468.580 5  -5366164.25721        11.750           0.531
 91  6  6 17 59 44.9990000  0  5G18G11G 2G16G 6
  22001102.683     6911883.961 6   5377588.82121        18.000           1.188
  22633702.769    -7989281.860 6  -6160001.93621        16.000           0.844
  21548250.980   -14207068.843 7 -10941936.46922        21.500           2.000
  23316379.675    -5375284.590 5  -4047565.12821        10.750           0.406
  23073036.925    -7144633.897 5  -5398241.10521        11.500           0.594
 91  6  6 17 59 59.9990000  0  5G18G11G 2G16G 6
  22008126.120     6948794.978 6   5406350.56421        18.000           1.125
  22632172.558    -7997316.509 6  -6166262.69121        16.000           0.875
  21540654.511   -14246991.980 7 -10973045.38922        21.750           2.000
  23314972.487    -5382682.269 5  -4053329.59321        10.750           0.500
  23065207.425    -7185780.242 5  -5430303.16921        11.750           0.469
 91  6  6 18  0 14.9990000  0  5G18G11G 2G16G 6
  22015169.003     6985782.931 6   5435172.26321        18.500           1.156
  22630672.386    -8005194.770 6  -6172401.58521        15.750           0.875
  21533074.237   -14286836.046 7 -11004092.70122        21.500           1.906
  23313590.683    -5389944.608 5  -4058988.59421        10.750           0.438
  23057376.206    -7226910.756 5  -5462352.90221        11.000           0.469
 91  6  6 18  0 29.9990000  0  5G18G11G 2G16G 6
  22022221.144     7022847.553 6   5464053.68521        18.250           1.281
  22629206.042    -8012916.551 6  -6178418.55421        16.500           0.844
  21525505.948   -14326601.113 7 -11035078.44122        21.750           2.000
  23312231.565    -5397071.617 5  -4064542.13721        10.500           0.438
  23049553.261    -7268025.432 5  -5494390.29621        11.500           0.500
 91  6  6 18  0 44.9990000  0  5G18G11G 2G16G 6
  22029286.792     7059989.353 6   5492995.26821        18.000           1.125
  22627767.940    -8020481.264 6  -6184313.13721        16.500           0.750
  21517952.940   -14366286.539 7 -11066002.12622        21.500           1.969
  23310906.331    -5404062.711 5  -4069989.77521        10.500           0.406
  23041732.784    -7309123.752 5  -5526414.93921        11.500           0.469
 91  6  6 18  0 59.9990000  0  5G18G11G 2G16G 6
  22036369.995     7097217.476 6   5522004.10521        18.000           1.250
  22626360.362    -8027879.190 6  -6190077.73221        16.750           0.906
  21510417.362   -14405882.581 7 -11096856.16422        21.250           1.969
  23309603.503    -5410908.275 5  -4075324.02021        11.000           0.438
  23033921.136    -7350196.023 5  -5558419.27921        11.500           0.563
 91  6  6 18  1 14.9990000  0  5G18G11G 2G16G 6
  22043469.730     7134523.696 6   5551073.80221        17.750           1.250
  22624981.839    -8035118.647 6  -6195718.85921        16.250           0.969
  21502902.198   -14445397.507 7 -11127646.99822        21.750           1.969
  23308329.300    -5417616.934 5  -4080551.57821        11.000           0.531
  23026106.909    -7391250.577 5  -5590409.82221        11.750           0.500
 91  6  6 18  1 29.9990000  0  5G18G11G 2G16G 6
  22050587.253     7171904.999 6   5580201.98821        18.750           1.125
  22623631.909    -8042202.416 6  -6201238.66421        15.500           0.781
  21495396.870   -14484834.016 7 -11158376.73322        22.000           2.031
  23307075.448    -5424191.489 5  -4085674.62921        10.500           0.375
  23018296.659    -7432290.175 5  -5622388.71221        11.750           0.438
 91  6  6 18  1 44.9990000  0  5G18G11G 2G16G 6
  22057709.722     7209361.965 6   5609389.15021        17.750           1.125
  22622312.894    -8049129.521 6  -6206636.40721        15.500           0.969
  21487905.378   -14524191.099 7 -11189044.57522        22.250           2.000
  23305844.456    -5430630.936 5  -4090692.43221        10.500           0.563
  23010489.136    -7473313.872 5  -5654355.20721        11.500           0.531
 91  6  6 18  1 59.9990000  0  5G18G11G 2G16G 6
  22064857.706     7246896.918 6   5638637.07221        18.250           1.063
  22621028.089    -8055897.171 6  -6211909.90321        16.250           0.844
  21480431.831   -14563465.996 7 -11219648.38122        22.000           2.000
  23304647.917    -5436932.690 5  -4095602.91521        10.500           0.438
  23002683.972    -7514319.026 5  -5686307.25321        11.250           0.469
 91  6  6 18  2 14.9990000  0  5G18G11G 2G16G 6
  22072011.940     7284507.399 6   5667943.85521        18.000           1.094
  22619768.886    -8062507.752 6  -6217060.99521        15.750           0.875
  21472974.269   -14602660.969 7 -11250189.89922        21.750           1.969
  23303475.378    -5443099.520 5  -4100408.27021        10.500           0.406
  22994892.105    -7555307.962 6  -5718246.66821        12.000           0.563
 91  6  6 18  2 29.9990000  0  5G18G11G 2G16G 6
  22079185.167     7322195.035 6   5697310.75021        18.000           1.188
  22618543.644    -8068959.389 6  -6222088.24021        17.250           0.844
  21465529.112   -14641774.147 7 -11280667.68422        21.750           1.969
  23302326.222    -5449129.367 5  -4105106.88721        10.250           0.469
  22987091.495    -7596278.856 6  -5750172.00821        12.000           0.563
 91  6  6 18  2 44.9990000  0  5G18G11G 2G16G 6
  22086366.714     7359958.112 6   5726736.42721        17.500           1.125
  22617345.480    -8075253.499 6  -6226992.73721        16.750           0.813
  21458102.315   -14680807.021 7 -11311082.89322        22.000           2.000
  23301202.206    -5455023.989 5  -4109700.13221        10.000           0.375
  22979297.995    -7637233.177 6  -5782084.44121        12.000           0.500
 91  6  6 18  2 59.9990000  0  5G18G11G 2G16G 6
  22093568.870     7397799.137 6   5756222.84421        17.500           1.156
  22616177.308    -8081387.387 6  -6231772.37721        16.000           0.938
  21450690.190   -14719756.750 7 -11341433.31722        22.000           1.938
  23300104.378    -5460780.745 5  -4114185.94721         9.750           0.469
  22971502.847    -7678168.297 5  -5813981.92621        11.750           0.469
 91  6  6 18  3 14.9990000  0  5G18G11G 2G16G 6
  22100786.792     7435716.227 6   5785768.54121        18.000           1.125
  22615037.245    -8087362.591 6  -6236428.38021        15.500           0.844
  21443292.901   -14758624.937 7 -11371720.20222        22.250           1.969
  23299040.073    -5466401.432 5  -4118565.73321        10.500           0.469
  22963721.237    -7719085.560 6  -5845865.48321        12.000           0.531
 91  6  6 18  3 29.9990000  0  5G18G11G 2G16G 6
  22108017.573     7473710.685 6   5815374.51021        17.500           1.156
  22613936.112    -8093177.672 6  -6240959.61321        16.500           0.875
  21435916.901   -14797410.093 7 -11401942.38122        22.500           2.063
  23298000.128    -5471884.471 5  -4122838.26221        10.250           0.438
  22955935.769    -7759983.733 6  -5877734.18021        12.000           0.438
 91  6  6 18  3 44.9990000  0  5G18G11G 2G16G 6
  22115263.456     7511782.335 6   5845040.63621        17.750           1.094
  22612859.894    -8098832.505 6  -6245365.97021        16.250           0.906
  21428551.612   -14836111.847 7 -11432099.57822        22.250           2.063
  23296980.823    -5477229.888 5  -4127003.56721        10.750           0.406
  22948163.761    -7800862.567 6  -5909587.80821        12.750           0.500
 91  6  6 18  3 59.9990000  0  5G18G11G 2G16G 6
  22122520.839     7549930.330 6   5874766.25621        17.500           1.125
  22611811.948    -8104327.563 6  -6249647.83721        16.000           0.938
  21421204.980   -14874730.736 7 -11462192.20222        23.000           2.063
  23295992.573    -5482438.426 5  -4131062.19521        10.500           0.469
  22940383.612    -7841722.527 5  -5941426.71221        11.750           0.563
 91  6  6 18  4 14.9990000  0  5G18G11G 2G16G 6
  22129795.698     7588152.680 6   5904549.81421        17.500           1.031
  22610793.714    -8109664.777 6  -6253806.70421        15.500           0.875
  21413869.136   -14913268.699 7 -11492221.76922        22.750           2.063
  23295024.714    -5487512.185 5  -4135015.82521        10.750           0.500
  22932612.073    -7882565.651 5  -5973252.50221        11.750           0.594
 91  6  6 18  4 29.9990000  0  5G18G11G 2G16G 6
  22137083.019     7626453.215 6   5934394.29321        17.500           0.969
  22609807.409    -8114840.074 6  -6257839.39921        15.500           0.938
  21406550.808   -14951721.648 7 -11522185.08722        22.500           2.000
  23294084.558    -5492447.200 5  -4138861.31021        10.750           0.469
  22924842.128    -7923387.830 6  -6005061.98921        12.000           0.625
 91  6  6 18  4 44.9990000  0  5G18G11G 2G16G 6
  22144384.292     7664828.712 6   5964297.19221        17.250           1.063
  22608854.886    -8119856.301 6  -6261748.15021        15.500           0.969
  21399248.394   -14990092.480 7 -11552084.42122        22.500           1.938
  23293176.909    -5497246.399 5  -4142600.98021        11.250           0.406
  22917082.776    -7964192.040 6  -6036857.44121        12.250           0.469
 91  6  6 18  4 59.9990000  0  5G18G11G 2G16G 6
  22151703.222     7703278.225 6   5994257.76021        17.250           1.063
  22607932.550    -8124714.091 6  -6265533.44121        16.250           0.813
  21391962.558   -15028381.712 7 -11581920.16822        22.500           2.063
  23292285.253    -5501910.281 5  -4146235.21521        10.750           0.469
  22909315.964    -8004978.852 5  -6068639.36321        11.750           0.563
 91  6  6 18  5 14.9990000  0  5G18G11G 2G16G 6
  22159032.050     7741803.205 6   6024277.12221        16.750           1.000
  22607039.776    -8129411.701 6  -6269193.91121        16.000           0.813
  21384690.808   -15066587.650 7 -11611691.00822        22.750           2.063
  23291425.519    -5506437.233 5  -4149762.74621        10.750           0.375
  22901563.511    -8045746.501 6  -6100406.33121        12.000           0.625
 91  6  6 18  5 29.9990000  0  5G18G11G 2G16G 6
  22166378.667     7780400.330 6   6054352.70921        16.750           1.063
  22606174.737    -8133952.355 6  -6272732.09021        16.750           1.000
  21377434.089   -15104713.215 7 -11641399.21722        22.500           2.156
  23290586.980    -5510830.989 5  -4153186.49321        10.000           0.375
  22893804.230    -8086498.244 5  -6132160.91921        11.500           0.469
 91  6  6 18  5 44.9990000  0  5G18G11G 2G16G 6
  22173737.308     7819069.544 6   6084484.47121        17.000           1.000
  22605337.706    -8138335.594 6  -6276147.61021        16.000           0.969
  21370196.940   -15142758.003 7 -11671044.49222        23.000           2.188
  23289770.862    -5515091.052 5  -4156506.06121         9.750           0.500
  22886049.456    -8127233.613 5  -6163902.75221        11.500           0.594
 91  6  6 18  5 59.9990000  0  5G18G11G 2G16G 6
  22181110.503     7857811.193 6   6114672.67121        17.000           1.031
  22604533.776    -8142561.056 6                        15.250
  21362975.612   -15180721.694 7 -11700626.56822        23.250           2.156
  23288983.136    -5519217.508 5                        10.000
  22878301.511    -8167952.155 6  -6195631.46421        12.000           0.563
 91  6  6 18  6 14.9990000  0  5G18G11G 2G16G 6
  22188491.144     7896626.504 6   6144918.27421        16.500           0.969
  22603765.050    -8146627.359 6                        17.000
  21355762.276   -15218602.950 7 -11730144.40522        22.500           2.250
  23288229.339    -5523208.629 5                        10.250
  22870561.675    -8208652.461 6  -6227345.97821        12.250           0.625
 91  6  6 18  6 29.9990000  0  5G18G11G 2G16G 6
  22195895.526     7935515.578 6   6175221.35821        17.250           1.031
  22603018.128    -8150534.091 6                        16.250
  21348570.519   -15256401.149 7 -11759597.53022        22.750           2.125
  23287498.073    -5527064.176 5                        10.500
  22862820.269    -8249334.156 6  -6259045.99221        12.250           0.500
 91  6  6 18  6 44.9990000  0  5G18G11G 2G16G 6
  22203310.589     7974479.634 6   6205582.86921        16.750           1.063
  22602305.167    -8154279.947 6                        15.750
  21341395.089   -15294114.872 7 -11788984.83122        23.000           2.188
  23286786.683    -5530783.280 5                        10.250
  22855079.339    -8289995.857 5  -6290730.41821        11.750           0.594
 91  6  6 18  6 59.9990000  0  5G18G11G 2G16G 6
  22210737.792     8013516.307 6   6236000.95821        16.500           1.094
  22601627.323    -8157866.788 6                        17.250
  21334233.605   -15331745.947 7 -11818307.72922        23.250           2.125
  23286112.159    -5534367.905 5                        10.500
  22847346.815    -8330639.557 6  -6322400.81621        12.000           0.656
 91  6  6 18  7 14.9990000  0  5G18G11G 2G16G 6
  22218182.440     8052618.672 6   6266470.23821        16.500           1.000
  22600973.761    -8161301.351 6                        16.000
  21327085.042   -15369301.002 7 -11847571.39322        23.250           2.125
  23285452.214    -5537824.530 5                        10.500
  22839619.089    -8371271.963 6  -6354062.42521        13.000           0.656
 91  6  6 18  7 29.9990000  0  5G18G11G 2G16G 6
  22225634.378     8091792.059 6   6296994.85121        16.250           1.031
  22600347.480    -8164578.255 6                        16.750
  21319954.542   -15406774.673 7 -11876771.63922        23.500           2.188
  23284816.081    -5541148.328 5                        10.000
  22831889.565    -8411887.668 6  -6385711.01421        12.500           0.531
 91  6  6 18  7 44.9990000  0  5G18G11G 2G16G 6
  22233103.894     8131034.192 6   6327573.04321        16.000           1.031
  22599751.667    -8167699.585 6                        16.000
  21312838.089   -15444169.146 7 -11905910.17622        23.500           2.156
  23284213.269    -5544341.118 5                        10.500
  22824157.550    -8452488.642 6  -6417348.12821        12.250           0.625
 91  6  6 18  7 59.9990000  0  5G18G11G 2G16G 6
  22240583.847     8170345.398 6   6358205.04221        16.250           0.906
  22599187.581    -8170664.340 6  -6301338.87721        15.750           0.906
  21305736.948   -15481483.376 7 -11934986.18422        23.000           2.219
  23283628.776    -5547402.118 5  -4181683.83921        10.250           0.469
  22816434.448    -8493074.027 6  -6448973.08821        12.500           0.594
 91  6  6 18  8 14.9990000  0  5G18G11G 2G16G 6
  22248080.855     8209728.487 6   6388893.06321        16.500           0.938
  22598654.597    -8173469.594 6  -6303524.80321        16.250           0.969
  21298651.573   -15518714.303 7 -11963997.27622        23.000           2.188
  23283067.894    -5550328.705 5  -4183964.32921        10.250           0.469
  22808716.386    -8533640.792 6  -6480583.55121        13.250           0.594
 91  6  6 18  8 29.9990000  0  5G18G11G 2G16G 6
  22255587.612     8249181.607 6   6419635.64821        16.500           1.000
  22598148.995    -8176117.133 6  -6305587.82121        16.000           0.906
  21291587.355   -15555863.492 7 -11992944.67522        23.500           2.125
  23282538.308    -5553122.628 5  -4186141.44521        10.000           0.375
  22800998.886    -8574190.660 6  -6512180.84521        12.750           0.656
 91  6  6 18  8 44.9990000  0  5G18G11G 2G16G 6
  22263105.761     8288703.956 6   6450432.18421        16.000           0.906
  22597679.042    -8178607.670 6  -6307528.50321        16.750           0.969
  21284530.058   -15592931.559 7 -12021828.86322        23.250           2.156
  23282038.214    -5555785.054 5  -4188216.11421        10.250           0.438
  22793284.237    -8614724.255 6  -6543765.45421        12.250           0.594
 91  6  6 18  8 59.9990000  0  5G18G11G 2G16G 6
  22270635.862     8328294.873 6   6481282.14621        15.500           1.000
  22597236.480    -8180941.333 6  -6309346.93721        16.000           0.906
  21277494.167   -15629918.644 7 -12050649.94722        23.500           2.125
  23281553.440    -5558315.896 5  -4190188.22621        10.250           0.375
  22785580.128    -8655241.765 6  -6575337.52221        13.000           0.531
 91  6  6 18  9 14.9990000  0  5G18G11G 2G16G 6
  22278185.925     8367953.333 6   6512184.74421        16.000           0.938
  22596816.823    -8183118.934 6  -6311043.78321        16.000           0.906
  21270471.105   -15666825.641 7 -12079408.63022        23.500           2.188
  23281098.214    -5560715.809 5  -4192058.31821        10.500           0.375
  22777866.417    -8695743.957 6  -6606897.67821        12.250           0.469
 91  6  6 18  9 29.9990000  0  5G18G11G 2G16G 6
  22285746.370     8407679.426 6   6543140.03021        16.000           1.000
  22596434.605    -8185140.395 6  -6312618.94221        16.250           0.906
  21263463.347   -15703652.400 7 -12108104.78522        23.750           2.281
  23280666.339    -5562985.164 5  -4193826.70221        10.500           0.438
  22770164.597    -8736230.732 6  -6638445.80121        12.750           0.531
 91  6  6 18  9 44.9990000  0  5G18G11G 2G16G 6
  22293318.722     8447473.131 6   6574148.00821        15.750           0.938
  22596083.956    -8187005.375 6  -6314072.18121        17.000           0.781
  21256468.847   -15740398.505 7 -12136738.09122        23.500           2.156
  23280254.276    -5565123.464 5  -4195492.96021        10.000           0.438
  22762464.206    -8776701.707 6  -6669981.61621        12.750           0.594
 91  6  6 18  9 59.9990000  0  5G18G11G 2G16G 6
  22300901.730     8487331.931 6   6605206.71121        15.250           0.938
  22595753.042    -8188716.142 6  -6315405.25621        17.250           0.938
  21249493.026   -15777066.015 7 -12165310.15622        23.750           2.219
  23279876.058    -5567133.423 5  -4197059.18921        10.250           0.500
  22754765.323    -8817159.012 6  -6701506.79121        12.750           0.531
 91  6  6 18 10 14.9990000  0  5G18G11G 2G16G 6
  22308501.800     8527257.967 6   6636317.79821        15.750           1.000
  22595459.190    -8190270.492 6  -6316616.42921        17.250           0.938
  21242528.620   -15813652.563 7 -12193819.13622        23.500           2.156
  23279515.050    -5569012.838 5  -4198523.71321         9.750           0.531
  22747067.394    -8857600.473 6  -6733019.60121        12.250           0.563
 91  6  6 18 10 29.9990000  0  5G18G11G 2G16G 6
  22316110.042     8567250.930 6   6667481.03221        15.250           0.906
  22595188.800    -8191668.480 6  -6317705.77721        17.000           0.938
  21235582.003   -15850158.289 7 -12222265.13422        23.500           2.281
  23279187.120    -5570761.645 5  -4199886.45221        10.500           0.438
  22739374.237    -8898025.991 6  -6764519.99521        12.500           0.594
 91  6  6 18 10 44.9980000  0  5G18G11G 2G16G 6
  22323731.045     8607310.933 6   6698696.51421        15.000           0.938
  22594954.865    -8192906.841 6  -6318670.72021        17.250           0.844
  21228654.756   -15886577.671 7 -12250643.85122        23.500           2.250
  23278877.615    -5572376.946 5  -4201145.17421        10.000           0.469
  22731688.115    -8938429.828 6  -6796003.50221        13.000           0.531
 91  6  6 18 10 59.9980000  0  5G18G11G 2G16G 6
  22331374.787     8647442.598 6   6729967.84521        15.500           0.938
  22594750.170    -8193986.398 6  -6319511.94121        16.750           0.938
  21221736.889   -15922916.044 7 -12278959.44622        23.500           2.219
  23278596.209    -5573859.862 5  -4202300.74421        10.250           0.406
  22724004.428    -8978817.830 6  -6827474.65521        12.750           0.500
 91  6  6 18 11 14.9980000  0  5G18G11G 2G16G 6
  22339023.287     8687637.442 6   6761288.39221        15.750           0.938
  22594573.920    -8194912.696 6  -6320233.73021        16.500           0.906
  21214835.303   -15959176.357 7 -12307214.20522        23.250           2.250
  23278336.592    -5575215.899 5  -4203357.44221        10.500           0.406
  22716315.006    -9019192.963 6  -6858935.79221        12.500           0.531
 91  6  6 18 11 29.9980000  0  5G18G11G 2G16G 6
  22346683.662     8727901.628 6   6792662.97721        15.000           0.969
  22594428.365    -8195679.116 6  -6320830.93521        16.500           0.906
  21207954.264   -15995352.093 7 -12335403.07322        24.000           2.156
  23278109.209    -5576438.689 5  -4204310.29621        11.000           0.375
  22708635.365    -9059548.521 6  -6890381.67521        12.250           0.625
 91  6  6 18 11 44.9980000  0  5G18G11G 2G16G 6
  22354355.717     8768229.518 6   6824087.18921        15.000           0.969
  22594313.107    -8196291.285 6  -6321307.94021        16.750           0.844
  21201082.404   -16031449.025 7 -12363530.52822        24.000           2.344
  23277895.459    -5577533.675 5  -4205163.57421        10.250           0.375
  22700966.529    -9099890.249 6  -6921816.77321        13.000           0.594
 91  6  6 18 11 59.9980000  0  5G18G11G 2G16G 6
  22362042.498     8808621.458 6   6855561.32221        14.500           0.906
  22594227.045    -8196748.736 6  -6321664.39221        16.500           0.938
  21194228.053   -16067466.164 7 -12391595.80822        24.000           2.219
  23277711.209    -5578500.478 5  -4205916.97821        10.000           0.438
  22693289.334    -9140217.194 6  -6953240.34921        13.000           0.563
 91  6  6 18 12 14.9980000  0  5G18G11G 2G16G 6
  22369743.787     8849078.620 6   6887086.26521        15.000           0.969
  22594167.529    -8197049.799 6  -6321898.98521        17.000           0.844
  21187393.561   -16103401.970 7 -12419597.71322        23.750           2.250
  23277552.147    -5579337.967 5  -4206569.60021        10.500           0.375
  22685616.490    -9180528.110 6  -6984651.45221        12.750           0.656
 91  6  6 18 12 29.9980000  0  5G18G11G 2G16G 6
  22377456.561     8889605.172 6   6918665.29221        15.250           1.063
  22594139.631    -8197190.268 6                        16.250
  21180569.537   -16139252.038 7 -12447532.80922        23.750           2.281
  23277421.022    -5580041.644 5  -4207117.98821        10.250           0.500
  22677952.529    -9220818.464 6  -7016046.51621        13.250           0.688
 91  6  6 18 12 44.9980000  0  5G18G11G 2G16G 6
  22385183.623     8930197.774 6   6950295.79321        15.250           0.906
  22594143.779    -8197173.185 6                        17.000
  21173763.506   -16175019.445 7 -12475403.49222        23.500           2.406
  23277315.428    -5580614.691 5  -4207564.55121        10.500           0.406
  22670284.154    -9261091.306 6  -7047427.93721        13.250           0.625
 91  6  6 18 12 59.9980000  0  5G18G11G 2G16G 6
  22392914.654     8970852.742 6   6981974.87621        15.000           0.875
  22594173.561    -8197002.100 6                        17.000
  21166972.381   -16210707.777 7 -12503212.55622        23.750           2.375
  23277229.709    -5581060.992 5  -4207912.36921        10.500           0.438
  22662623.545    -9301350.135 6  -7078798.44721        13.000           0.594
 91  6  6 18 13 14.9980000  0  5G18G11G 2G16G 6
  22400667.928     9011571.800 6   7013703.89521        15.250           0.938
  22594237.615    -8196675.167 6                        16.000
  21160195.201   -16246314.963 7 -12530958.39522        23.750           2.406
  23277163.326    -5581378.790 5  -4208160.05521        10.250           0.375
  22654962.279    -9341592.962 6  -7110156.47821        13.500           0.688
 91  6  6 18 13 29.9980000  0  5G18G11G 2G16G 6
  22408423.506     9052354.162 6   7045482.24221        14.500           0.906
  22594327.842    -8196192.985 6  -6321231.29521        16.500           0.875
  21153433.982   -16281841.620 7 -12558641.48022        23.250           2.313
  23277130.748    -5581568.901 5                        10.500
  22647313.029    -9381820.469 6  -7141502.57421        13.750           0.656
 91  6  6 18 13 44.9980000  0  5G18G11G 2G16G 6
  22416198.701     9093201.549 6   7077311.26021        14.750           0.875
  22594449.662    -8195553.534 6  -6320733.03021        17.250           0.938
  21146689.022   -16317285.309 7 -12586259.92122        23.500           2.375
  23277116.397    -5581628.958 5                        10.000
  22639661.654    -9422030.266 6  -7172834.87321        13.500           0.594
 91  6  6 18 13 59.9980000  0  5G18G11G 2G16G 6
  22423978.334     9134108.936 6   7109187.04421        14.500           0.719
  22594600.928    -8194761.631 6  -6320115.93521        16.750           0.938
  21139962.475   -16352650.963 7 -12613817.54422        24.000           2.344
  23277125.912    -5581564.065 5                        10.250
  22632014.811    -9462227.268 6  -7204157.19921        13.500           0.625
 91  6  6 18 14 14.9980000  0  5G18G11G 2G16G 6
  22431778.920     9175079.542 6   7141112.08321        15.000           0.813
  22594778.982    -8193813.825 6  -6319377.38721        16.500           0.906
  21133245.928   -16387935.162 7 -12641311.71022        23.750           2.344
  23277163.701    -5581371.175 5                        10.000
  22624370.092    -9502408.070 6  -7235466.89821        13.500           0.656
 91  6  6 18 14 29.9980000  0  5G18G11G 2G16G 6
  22439588.678     9216114.503 6   7173087.27121        14.500           0.750
  22594989.514    -8192708.746 6  -6318516.27721        16.750           0.844
  21126546.990   -16423136.366 7 -12668741.19522        23.750           2.375
  23277224.514    -5581048.853 5                        10.000
  22616725.092    -9542571.060 6  -7266762.71521        14.000           0.719
 91  6  6 18 14 44.9980000  0  5G18G11G 2G16G 6
  22447406.779     9257211.898 6   7205111.10621        14.750           0.719
  22595232.920    -8191448.146 6  -6317533.97921        17.250           0.781
  21119863.389   -16458256.233 7 -12696107.30422        23.500           2.406
  23277312.412    -5580598.954 5  -4207552.65421        10.250           0.438
  22609077.740    -9582718.020 6  -7298046.05221        13.500           0.750
 91  6  6 18 14 59.9980000  0  5G18G11G 2G16G 6
  22455241.272     9298370.199 6   7237182.40221        15.000           0.781
  22595505.193    -8190033.487 6  -6316431.64221        17.500           0.938
  21113197.522   -16493296.098 7 -12723411.07622        23.500           2.344
  23277420.248    -5580023.192 5  -4207104.06821         9.750           0.406
  22601448.990    -9622850.242 6  -7329317.89621        13.500           0.688
 91  6  6 18 15 14.9980000  0  5G18G11G 2G16G 6
  22463084.100     9339590.432 6   7269301.94621        14.750           0.813
  22595799.576    -8188463.702 6  -6315208.43121        16.500           1.000
  21106539.006   -16528254.812 7 -12750651.61422        23.250           2.375
  23277556.889    -5579320.480 5  -4206556.55121        10.000           0.375
  22593817.217    -9662966.548 6  -7360577.33721        14.000           0.563
 91  6  6 18 15 29.9980000  0  5G18G11G 2G16G 6
  22470936.014     9380874.917 6   7301471.57421        14.500           0.719
  22596126.240    -8186736.098 6  -6313862.23921        16.250           0.938
  21099906.795   -16563129.615 7 -12777826.76723        24.000           2.500
  23277712.350    -5578488.254 5  -4205908.11021         9.500           0.406
  22586179.279    -9703064.223 6  -7391822.27621        13.000           0.656
 91  6  6 18 15 44.9980000  0  5G18G11G 2G16G 6
  22478808.522     9422222.138 6   7333690.06321        14.500           0.750
  22596487.498    -8184851.919 6  -6312394.04321        17.250           0.875
  21093289.795   -16597921.682 7 -12804937.45322        24.000           2.375
  23277896.701    -5577527.698 5  -4205159.66921        10.000           0.469
  22578552.045    -9743144.354 6  -7423053.52421        12.750           0.719
 91  6  6 18 15 59.9980000  0  5G18G11G 2G16G 6
  22486689.951     9463628.880 6   7365954.94721        14.750           0.750
  22596876.115    -8182814.191 6  -6310806.18421        17.250           0.938
  21086681.951   -16632633.868 7 -12831985.88722        23.750           2.438
  23278103.209    -5576441.935 5  -4204313.67321        10.000           0.344
  22570929.678    -9783209.830 6  -7454273.38021        13.250           0.563
 91  6  6 18 16 14.9980000  0  5G18G11G 2G16G 6
  22494579.201     9505096.672 6   7398267.39621        14.250           0.844
  22597293.100    -8180621.309 6  -6309097.45121        17.250           0.906
  21080091.162   -16667264.382 7 -12858970.68523        23.750           2.500
  23278336.623    -5575229.397 5  -4203368.90121        10.250           0.375
  22563312.514    -9823259.085 6  -7485480.56321        13.500           0.625
 91  6  6 18 16 29.9980000  0  5G18G11G 2G16G 6
  22502481.287     9546624.802 6   7430626.86321        14.750           0.781
  22597738.076    -8178273.620 6  -6307268.08021        17.000           0.906
  21073516.951   -16701813.812 7 -12885892.30122        23.750           2.406
  23278588.834    -5573891.047 5  -4202326.07821         9.750           0.438
  22555689.334    -9863292.515 6  -7516675.43321        13.000           0.688
 91  6  6 18 16 44.9980000  0  5G18G11G 2G16G 6
  22510400.842     9588211.242 6   7463031.78321        14.750           0.844
  22598215.037    -8175772.957 6  -6305319.51321        17.000           0.938
  21066958.787   -16736283.696 7 -12912751.93622        24.250           2.438
  23278870.654    -5572428.689 5  -4201186.61521        10.000           0.375
  22548079.272    -9903311.723 6  -7547859.22421        13.500           0.688
 91  6  6 18 16 59.9980000  0  5G18G11G 2G16G 6
  22518321.811     9629857.152 6   7495483.02321        14.500           0.719
  22598722.225    -8173118.180 6  -6303250.85621        17.750           0.906
  21060412.811   -16770672.677 7 -12939548.53422        24.000           2.469
  23279166.717    -5570840.776 5  -4199949.34921         9.750           0.438
  22540462.115    -9943315.320 6  -7579030.84321        12.750           0.594
 91  6  6 18 17 14.9980000  0  5G18G11G 2G16G 6
  22526256.045     9671565.947 6   7527983.26321        14.250           0.719
  22599254.303    -8170305.717 6  -6301059.32621        17.000           0.938
  21053887.514   -16804977.243 7 -12966279.34922        24.500           2.438
  23279497.795    -5569124.258 5  -4198611.86121         9.750           0.500
  22532852.459    -9983299.759 6  -7610187.53621        13.250           0.625
 91  6  6 18 17 29.9980000  0  5G18G11G 2G16G 6
  22534204.920     9713330.259 6   7560526.75321        14.750           0.813
  22599820.576    -8167342.722 6  -6298750.50321        16.750           0.906
  21047374.490   -16839204.388 7 -12992949.84722        24.250           2.438
  23279845.990    -5567286.358 5  -4197179.79421        10.000           0.375
  22525248.639   -10023272.009 6  -7641334.74721        13.500           0.625
 91  6  6 18 17 44.9980000  0  5G18G11G 2G16G 6
  22542163.131     9755152.276 6   7593115.23421        14.000           0.750
  22600416.889    -8164226.765 6  -6296322.48721        17.000           0.875
  21040873.256   -16873351.555 7 -13019558.01022        23.750           2.469
  23280222.139    -5565324.707 5  -4195651.27921        10.750           0.406
  22517646.561   -10063229.587 6  -7672470.51021        14.000           0.594
 91  6  6 18 17 59.9980000  0  5G18G11G 2G16G 6
  22550134.123     9797033.697 6   7625749.99421        14.250           0.750
  22601036.576    -8160955.811 6  -6293773.68321        16.500           0.906
  21034389.209   -16907416.705 7 -13046102.26422        23.750           2.438
  23280611.545    -5563237.371 5  -4194024.84521         9.500           0.375
  22510045.334   -10103170.400 6  -7703593.19121        14.000           0.625
 91  6  6 18 18 14.9980000  0  5G18G11G 2G16G 6
  22558116.795     9838970.926 6   7658428.23221        14.000           0.781
  22601688.295    -8157533.364 6  -6291106.84821        17.000           0.969
  21027926.889   -16941403.073 7 -13072585.13222        24.250           2.469
  23281032.857    -5561027.994 5  -4192303.29421         9.250           0.406
  22502447.326   -10143097.717 6  -7734705.37421        14.000           0.563
 91  6  6 18 18 29.9980000  0  5G18G11G 2G16G 6
  22566105.592     9880966.673 6   7691152.09021        14.250           0.781
  22602370.287    -8153956.741 6  -6288319.86321        16.750           0.906
  21021473.772   -16975308.012 7 -13099004.54623        24.000           2.563
  23281482.795    -5558694.026 5  -4190484.67421        10.500           0.281
  22494847.100   -10183008.829 6  -7765804.93321        13.250           0.656
 91  6  6 18 18 44.9980000  0  5G18G11G 2G16G 6
  22574114.139     9923021.110 6   7723921.67121        14.500           0.719
  22603079.912    -8150225.472 6  -6285412.37521        17.250           0.906
  21015034.053   -17009130.932 7 -13125360.03822        23.750           2.406
  23281944.303    -5556234.861 5  -4188568.47821        10.000           0.344
  22487259.537   -10222903.126 6  -7796891.36321        14.000           0.656
 91  6  6 18 18 59.9980000  0  5G18G11G 2G16G 6
  22582120.850     9965133.715 6   7756736.56821        14.000           0.719
  22603820.123    -8146339.756 6  -6282384.55221        17.500           0.906
  21008615.982   -17042871.837 7 -13151651.64122        24.000           2.438
  23282438.928    -5553651.037 5  -4186555.16421        10.000           0.375
  22479667.772   -10262780.737 6  -7827964.81721        13.500           0.625
 91  6  6 18 19 29.9980000  0  5G18G11G 2G16G 6
  22598182.389       42219.686 6                        14.250
  22605383.428                                        4185.522 6        17.250
  20995815.459      -33585.765 7                        23.750
  23283496.029                                        2823.504 5        10.000
  22464498.732      -39852.738 6                        14.000
 91  6  6 18 19 44.9980000  0  5G18G11G 2G16G 6
  22606223.037       84498.598 6                        13.250
  22606206.357        8527.010 6                                        16.250
  20989443.897      -67087.657 7                        24.000
  23284057.318        5773.053 5                                        10.500
  22456917.709      -79687.092 6                        14.000
 91  6  6 18 19 59.9980000  0  5G18G11G 2G16G 6
  22614282.334      126830.772 6        -0.04031        13.750           0.750
  22607061.654       13018.597 6        -0.13731        16.250           0.938
  20983085.482     -100511.361 7        -0.31532        25.000           2.313
  23284634.428        8842.772 5                                         9.250
  22449341.529     -119508.526 6        -0.29531        13.750           0.688
 91  6  6 18 20 14.9980000  0  5G18G11G 2G16G 6
  22622347.162      169217.394 6     33028.37821        13.750           0.844
  22607942.318       17661.624 6      3617.79421        16.000           0.969
  20976737.357     -133855.583 7    -25982.80222        24.500           2.375
  23285239.920       12033.834 5        -0.06231         9.750           0.313
  22441764.576     -159315.646 6    -31018.80921        13.250           0.719
 91  6  6 18 20 29.9980000  0  5G18G11G 2G16G 6
  22630424.748      211658.179 6     66099.00221        14.000           0.719
  22608858.209       22456.020 6      7353.68621        16.250           0.906
  20970407.982     -167120.341 7    -51903.36923        23.750           2.531
  23285876.436       15345.717 5      2580.56821        10.000           0.344
  22434197.490     -199108.446 6    -62026.16421        14.250           0.781
 91  6  6 18 20 44.9980000  0  5G18G11G 2G16G 6
  22638515.428      254155.911 6     99213.99721        14.500           0.781
  22609798.912       27404.755 6     11209.84221        16.000           0.875
  20964093.428     -200302.496 7    -77759.57923        24.000           2.531
  23286532.318       18781.323 5      5257.60921         9.500           0.469
  22426628.131     -238883.691 6    -93019.84321        14.750           0.750
 91  6  6 18 20 59.9980000  0  5G18G11G 2G16G 6
  22646611.451      296707.744 6    132371.16121        13.500           0.688
  22610773.022       32505.064 6     15184.08621        16.500           0.875
  20957794.725     -233404.792 7   -103553.55322        24.500           2.438
  23287206.623       22337.969 5      8028.95921        10.000           0.469
  22419064.514     -278644.183 6   -124002.02521        14.250           0.813
 91  6  6 18 21 14.9980000  0  5G18G11G 2G16G 6
  22654711.928      339312.785 6    165569.77321        13.000           0.656
  22611766.334       37756.261 6     19275.92721        15.250           0.781
  20951510.897     -266427.590 7   -129285.58223        24.500           2.500
  23287905.975       26014.927 5     10894.08321        10.000           0.375
  22411499.826     -318390.306 6   -154973.01821        14.000           0.781
 91  6  6 18 21 29.9980000  0  5G18G11G 2G16G 6
  22662836.068      381969.364 6    198808.53721        13.500           0.625
  22612800.889       43156.826 6     23484.14921        17.000           0.875
  20945239.631     -299372.192 7   -154956.68022        24.500           2.469
  23288625.678       29810.493 5     13851.59321         9.250           0.375
  22403933.490     -358123.449 6   -185933.88721        13.750           0.719
 91  6  6 18 21 44.9980000  0  5G18G11G 2G16G 6
  22670957.709      424678.345 6    232088.15421        12.500           0.688
  22613853.240       48707.672 6     27809.48021        16.500           0.969
  20938987.295     -332237.828 7   -180566.24723        24.750           2.500
  23289368.701       33725.458 5     16902.15721         9.500           0.500
  22396380.959     -397842.571 6   -216883.83021        14.250           0.750
 91  6  6 18 21 59.9980000  0  5G18G11G 2G16G 6
  22679102.967      467441.887 6    265410.27521        13.000           0.625
  22614936.529       54411.180 6     32253.76121        16.250           0.875
  20932750.881     -365021.864 7   -206112.22423        25.000           2.500
  23290143.514       37761.870 5     20047.36521        10.000           0.375
  22388820.029     -437545.262 6   -247820.96821        13.250           0.750
 91  6  6 18 22 14.9980000  0  5G18G11G 2G16G 6
  22687248.170      510259.060 6    298774.18421        12.750           0.625
  22616052.154       60266.702 6     36816.50121        15.750           1.031
  20926524.256     -397724.700 7   -231594.93422        24.750           2.438
  23290933.381       41919.443 5     23286.97321         9.500           0.375
  22381272.873     -477231.937 6   -278745.63821        14.250           0.750
 91  6  6 18 22 29.9980000  0  5G18G11G 2G16G 6
  22695405.279      553127.641 6    332178.15221        12.500           0.750
  22617193.975       66271.817 6     41495.80721        16.500           0.969
  20920316.709     -430348.737 7   -257016.23723        25.000           2.500
  23291743.772       46195.478 5     26618.90221         9.500           0.469
  22373722.256     -516904.897 6   -309659.61721        14.500           0.781
 91  6  6 18 22 44.9980000  0  5G18G11G 2G16G 6
  22703572.553      596048.837 6    365623.10721        12.750           0.563
  22618365.443       72428.109 6     46292.91221        16.000           0.750
  20914123.904     -462892.271 7   -282374.80823        25.000           2.594
  23292583.248       50591.349 5     30044.18621         9.500           0.438
  22366177.764     -556562.354 6   -340561.51321        15.000           0.813
 91  6  6 18 22 59.9980000  0  5G18G11G 2G16G 6
  22711752.209      639019.241 6    399106.41221        13.250           0.563
  22619568.623       78732.496 6     51205.41321        16.500           0.906
  20907945.053     -495358.392 7   -307673.06423        24.750           2.594
  23293441.256       55103.880 5     33560.38021         9.500           0.344
  22358634.506     -596207.271 6   -371453.64321        15.250           0.719
 91  6  6 18 23 14.9980000  0  5G18G11G 2G16G 6
  22719936.279      682040.607 6    432629.41821        13.000           0.563
  22620795.623       85186.638 6     56234.61621        15.750           0.813
  20901781.084     -527745.346 7   -332909.63023        24.750           2.656
  23294326.522       59734.706 5     37168.76921        10.250           0.406
  22351090.232     -635837.934 6   -402334.67421        14.000           0.688
 91  6  6 18 23 29.9980000  0  5G18G11G 2G16G 6
  22728132.162      725112.728 6    466191.99921        12.500           0.625
  22622053.107       91790.592 6     61380.54721        16.250           0.875
  20895636.662     -560052.659 7   -358084.14023        25.250           2.563
  23295228.232       64483.642 5     40869.16621         9.500           0.406
  22343547.725     -675454.058 6   -433204.34821        14.000           0.813
 91  6  6 18 23 44.9980000  0  5G18G11G 2G16G 6
  22736339.732      768236.429 6    499794.74521        13.000           0.625
  22623337.748       98545.277 6     66643.92421        16.000           0.875
  20889505.248     -592279.503 7   -383195.94123        25.500           2.500
  23296153.100       69351.723 5     44662.40121        10.000           0.438
  22336015.225     -715054.585 6   -464061.89721        14.250           0.875
 91  6  6 18 23 59.9980000  0  5G18G11G 2G16G 6
  22744556.740      811413.562 6    533439.14221        12.500           0.531
  22624654.381      105452.705 6     72026.31821        16.250           0.906
  20883386.607     -624423.818 7   -408243.44123        25.250           2.531
  23297099.311       74340.937 5     48550.04321         9.750           0.406
  22328484.131     -754637.344 6   -494905.59321        14.500           0.750
 91  6  6 18 24 14.9980000  0  5G18G11G 2G16G 6
  22752788.607      854640.036 6    567121.98121        12.750           0.563
  22625997.115      112509.062 6     77524.79521        16.750           0.875
  20877283.787     -656489.025 7   -433229.29523        24.750           2.625
  23298080.662       79447.344 5     52529.01721        10.250           0.344
  22320953.084     -794205.827 6   -525738.15621        14.000           0.813
 91  6  6 18 24 29.9980000  0  5G18G11G 2G16G 6
  22761019.686      897918.548 6    600845.37721        12.750           0.594
  22627365.076      119717.159 6     83141.47121        16.000           0.875
  20871196.865     -688472.300 7   -458151.30223        25.250           2.625
  23299076.779       84673.600 5     56601.35621        10.000           0.469
  22313428.318     -833757.273 6   -556557.47321        14.750           0.875
 91  6  6 18 24 44.9980000  0  5G18G11G 2G16G 6
  22769262.186      941247.628 6    634608.17021        12.250           0.438
  22628766.381      127075.577 6     88875.29821        16.250           0.875
  20865128.443     -720374.855 7   -483010.41223        25.250           2.656
  23300076.615       90018.047 5     60765.80621         8.500           0.438
  22305901.951     -873292.816 6   -587364.36221        14.750           0.813
 91  6  6 18 24 59.9980000  0  5G18G11G 2G16G 6
  22777519.139      984626.012 6    668409.36521        12.750           0.563
  22630195.061      134583.053 6     94725.28521        16.000           0.906
  20859068.678     -752197.752 7   -507807.45323        25.000           2.625
  23301128.209       95479.637 5     65021.52421         9.250           0.375
  22298385.631     -912813.526 6   -618159.71421        14.250           0.781
 91  6  6 18 25 14.9980000  0  5G18G11G 2G16G 6
  22785786.201     1028050.124 6    702246.20521        13.000           0.563
  22631651.490      142236.429 6    100688.94921        16.250           0.906
  20853029.561     -783944.061 7   -532544.81723        25.500           2.625
  23302187.076      101055.041 5     69365.92921         9.000           0.344
  22290858.990     -952322.407 6   -648945.84321        13.750           0.813
 91  6  6 18 25 29.9980000  0  5G18G11G 2G16G 6
  22794055.053     1071520.886 6    736119.40021        12.250           0.531
  22633133.475      150036.469 6    106766.90121        15.750           0.813
  20847003.022     -815612.987 7   -557221.87523        25.250           2.688
  23303272.850      106744.824 5     73799.46921         9.500           0.375
  22283351.670     -991818.596 6   -679722.08021        14.500           0.875
 91  6  6 18 25 44.9980000  0  5G18G11G 2G16G 6
  22802334.904     1115040.996 6    770031.03821        12.250           0.563
  22634647.709      157986.170 6    112961.46021        16.250           0.844
  20840991.264     -847201.424 7   -581836.22323        25.000           2.719
  23304375.670      112551.778 5     78324.31421         9.500           0.344
  22275836.772    -1031298.868 6   -710485.92421        14.250           0.875
 91  6  6 18 25 59.9980000  0  5G18G11G 2G16G 6
  22810624.365     1158609.513 6    803980.40221        12.250           0.625
  22636191.670      166084.814 6    119272.08821        16.500           0.813
  20834994.287     -878709.893 7   -606388.25623        25.250           2.594
  23305498.217      118475.134 5     82939.85521         9.250           0.281
  22268323.623    -1070763.854 6   -741237.84221        14.250           0.938
 91  6  6 18 26 14.9980000  0  5G18G11G 2G16G 6
  22818924.279     1202227.316 5    837968.15921        11.250           0.625
  22637764.350      174333.417 6    125699.56421        17.000           0.750
  20829017.772     -910137.268 7   -630877.09323        25.500           2.719
  23306647.639      124515.840 5     87646.83921         9.250           0.438
  22260818.467    -1110212.233 6   -771976.82121        14.250           0.906
 91  6  6 18 26 29.9980000  0  5G18G11G 2G16G 6
  22827235.318     1245888.564 6    871989.77321        12.000           0.625
  22639355.225      182726.245 6    132239.43121        16.000           0.781
  20823048.225     -941489.006 7   -655306.99823        25.250           2.750
  23307821.225      130668.067 5     92440.72421         9.750           0.344
  22253313.029    -1149649.715 6   -802707.31721        14.000           0.875
 91  6  6 18 26 44.9980000  0  5G18G11G 2G16G 6
  22835550.842     1289596.457 5    906047.73721        11.750           0.531
  22640983.709      191266.476 6    138894.15521        16.500           0.844
  20817099.982     -972761.806 7   -679675.39423        25.500           2.594
  23309014.225      136935.020 5     97323.99621         9.250           0.344
  22245811.264    -1189072.797 6   -833426.58521        14.250           0.781
 91  6  6 18 26 59.9980000  0  5G18G11G 2G16G 6
  22843877.264     1333347.134 6    940139.03721        12.000           0.531
  22642635.451      199950.395 6    145660.83421        16.000           0.844
  20811161.865    -1003959.358 7   -703985.14723        25.250           2.688
  23310226.232      143312.838 5    102293.66421         9.500           0.344
  22238313.428    -1228485.008 6   -864137.38121        14.750           0.875
 91  6  6 18 27 14.9980000  0  5G18G11G 2G16G 6
  22852214.670     1377146.696 6    974268.42821        12.500           0.688
  22644318.772      208784.141 6    152544.24921        16.500           0.906
  20805240.889    -1035075.354 7   -728231.35523        25.250           2.719
  23311464.740      149807.773 5    107354.59321         9.500           0.313
  22230815.670    -1267880.008 6   -894834.76921        15.000           0.875
 91  6  6 18 27 29.9980000  0  5G18G11G 2G16G 6
  22860556.975     1420994.760 6   1008435.60521        12.500           0.594
  22646021.584      217767.594 6    159544.33821        15.500           0.875
  20799333.654    -1066109.739 7   -752413.97123        25.000           2.688
  23312726.287      156419.126 5    112506.22821        10.000           0.281
  22223324.467    -1307257.736 6   -925518.69921        15.000           0.781
 91  6  6 18 27 44.9980000  0  5G18G11G 2G16G 6
  22868906.100     1464890.622 5   1042640.04121        11.750           0.563
  22647760.678      226900.182 6    166660.63321        15.500           0.781
  20793445.818    -1097062.966 7   -776533.34723        25.500           2.563
  23314002.053      163146.555 5    117748.32721         9.250           0.281
  22215829.498    -1346618.615 6   -956189.48321        14.750           0.844
 91  6  6 18 27 59.9980000  0  5G18G11G 2G16G 6
  22877273.225     1508832.661 6   1076880.45821        12.500           0.563
  22649526.209      236180.498 6    173892.04121        15.250           0.875
  20787569.131    -1127936.329 7   -800590.49123        25.750           2.750
  23315305.607      169988.455 5    123079.62121         9.750           0.344
  22208343.279    -1385963.879 6   -986848.12521        14.750           0.844
 91  6  6 18 28 14.9980000  0  5G18G11G 2G16G 6
  22885640.123     1552820.776 5   1111156.76921        11.750           0.531
  22651323.287      245608.618 6    181238.61921        16.250           0.875
  20781710.897    -1158729.428 7   -824585.09523        25.750           2.750
  23316629.717      176944.796 5    128500.07421         9.750           0.344
  22200859.982    -1425293.315 6  -1017494.41521        14.750           0.781
 91  6  6 18 28 29.9980000  0  5G18G11G 2G16G 6
  22894023.740     1596852.098 5   1145466.76321        11.750           0.531
  22653143.006      255181.542 6    188698.02921        15.750           0.875
  20775864.287    -1189445.254 7   -848519.48123        25.250           2.781
  23317977.068      184012.452 5    134007.27321        10.000           0.313
  22193379.287    -1464609.681 6  -1048130.53021        14.750           0.906
 91  6  6 18 28 44.9980000  0  5G18G11G 2G16G 6
  22902412.225     1640926.004 6   1179809.93321        12.000           0.469
  22654994.014      264898.889 6    196269.97121        15.500           0.906
  20770034.748    -1220083.949 7   -872393.76723        25.500           2.719
  23319342.006      191190.971 5    139600.87121        10.000           0.250
  22185902.365    -1503913.208 6  -1078756.62721        15.500           0.813
 91  6  6 18 28 59.9980000  0  5G18G11G 2G16G 6
  22910801.475     1685042.951 5   1214186.63721        11.250           0.594
  22656868.951      274761.210 6    203954.88021        15.500           0.813
  20764219.936    -1250644.777 7   -896207.38323        25.500           2.750
  23320731.373      198480.982 5    145281.33521        10.000           0.469
  22178423.326    -1543203.022 6  -1109372.05621        15.750           0.813
 91  6  6 18 29 14.9980000  0  5G18G11G 2G16G 6
  22919208.217     1729204.413 6   1248598.03321        12.000           0.563
  22658778.076      284770.213 6    211754.08921        16.500           0.813
  20758417.357    -1281125.925 7   -919958.91123        25.250           2.750
  23322127.404      205884.020 5    151049.87121         9.000           0.438
  22170948.436    -1582477.256 6  -1139975.33821        15.250           0.750
 91  6  6 18 29 29.9980000  0  5G18G11G 2G16G 6
  22927616.529     1773411.645 5   1283045.09321        11.500           0.469
  22660708.568      294927.034 6    219668.47521        16.500           0.719
  20752634.982    -1311526.142 7   -943647.37523        25.750           2.844
  23323559.982      213401.242 5    156907.38621         9.250           0.406
  22163483.686    -1621734.635 6  -1170565.48021        15.500           0.844
 91  6  6 18 29 44.9980000  0  5G18G11G 2G16G 6
  22936042.982     1817665.412 6   1317528.39721        12.250           0.500
  22662665.334      305232.564 6    227698.75521        15.000           0.781
  20746862.873    -1341844.352 7   -967271.93223        25.500           2.750
  23325013.498      221033.348 5    162854.41021         9.250           0.375
  22156011.631    -1660973.962 6  -1201141.55321        15.000           0.938
 91  6  6 18 29 59.9980000  0  5G18G11G 2G16G 6
  22944471.764     1861961.038 5   1352044.34121        11.500           0.500
  22664659.022      315682.400 6    235841.46921        15.500           0.875
  20741108.482    -1372084.974 7   -990836.03923        25.500           2.656
  23326494.584      228775.790 5    168887.42721         9.500           0.344
  22148547.779    -1700199.592 6  -1231706.95921        14.750           0.969
 91  6  6 18 30 14.9980000  0  5G18G11G 2G16G 6
  22952907.709     1906299.987 5   1386594.02521        11.250           0.500
  22666676.186      326278.175 6    244097.89621        16.500           0.719
  20735370.951    -1402245.989 7  -1014338.11423        25.500           2.719
  23327985.115      236630.408 5    175007.84521         9.500           0.344
  22141083.123    -1739409.406 6  -1262260.03821        14.500           0.844
 91  6  6 18 30 29.9980000  0  5G18G11G 2G16G 6
  22961357.170     1950685.450 5   1421179.96721        11.750           0.406
  22668717.943      337023.032 6    252470.49621        16.000           0.875
  20729646.498    -1432324.187 7  -1037775.65223        25.500           2.813
  23329503.264      244600.054 5    181217.88821         9.500           0.344
  22133626.842    -1778600.212 6  -1292798.30321        14.750           0.875
 91  6  6 18 30 44.9980000  0  5G18G11G 2G16G 6
  22969808.982     1995111.253 5   1455797.33521        11.750           0.375
  22670792.482      347910.870 6    260954.51321        16.750           0.813
  20723936.295    -1462325.595 7  -1061153.35423        25.250           2.719
  23331035.279      252678.476 5    187512.70121         9.000           0.281
  22126169.998    -1817777.980 6  -1323326.40821        14.500           1.000
 91  6  6 18 30 59.9980000  0  5G18G11G 2G16G 6
  22978275.029     2039582.035 6   1490449.75521        12.000           0.438
  22672890.201      358946.344 6    269553.56221        17.000           0.781
  20718242.287    -1492245.229 7  -1084467.33623        25.000           2.844
  23332601.342      260870.411 5    193895.96021         9.500           0.344
  22118718.865    -1856937.705 6  -1353840.45921        15.000           0.938
 91  6  6 18 31 14.9980000  0  5G18G11G 2G16G 6
  22986740.850     2084096.755 5   1525136.40421        11.250           0.531
  22675021.201      370128.716 6    278267.08621        17.250           0.781
  20712564.803    -1522083.674 7  -1107718.05723        25.000           2.781
  23334180.350      269174.836 5    200366.87321         9.500           0.375
  22111272.272    -1896079.941 6  -1384340.88921        15.000           0.906
 91  6  6 18 31 29.9980000  0  5G18G11G 2G16G 6
  22995227.756     2128658.551 5   1559859.74421        11.750           0.531
  22677174.772      381461.431 6    287097.75521        16.250           0.781
  20706903.389    -1551837.371 7  -1130902.73523        25.000           2.813
  23335776.561      277595.228 5    206928.15121         8.750           0.250
  22103828.381    -1935201.011 6  -1414824.82121        15.500           0.938
 91  6  6 18 31 44.9980000  0  5G18G11G 2G16G 6
  23003713.053     2173269.385 5   1594621.28121        11.750           0.500
  22679360.693      392946.295 6    296046.98621        17.000           0.844
  20701258.943    -1581504.184 7  -1154019.71823        25.250           2.719
  23337408.561      286133.207 5    213581.06721         9.250           0.313
  22096387.998    -1974298.831 6  -1445290.63421        15.250           0.844
 91  6  6 18 31 59.9980000  0  5G18G11G 2G16G 6
  23012210.162     2217922.746 5   1629415.96021        11.000           0.438
  22681573.053      404577.013 6    305109.85021        16.500           0.813
  20695629.928    -1611090.425 7  -1177073.91623        25.750           2.719
  23339055.279      294782.253 5    220320.50321         9.250           0.375
  22088952.639    -2013379.623 6  -1475743.17521        15.500           0.906
 91  6  6 18 32 14.9980000  0  5G18G11G 2G16G 6
  23020719.732     2262618.527 5   1664243.69721        11.750           0.531
  22683812.279      416353.400 6    314286.24921        15.750           0.969
  20690014.865    -1640595.910 7  -1200065.19023        26.000           2.781
  23340711.076      303542.195 5    227146.37021         8.500           0.281
  22081513.490    -2052443.399 6  -1506182.45921        15.000           0.938
 91  6  6 18 32 29.9980000  0  5G18G11G 2G16G 6
  23029224.303     2307351.554 5   1699100.46221        10.500           0.563
  22686082.865      428270.524 6    323572.29221        16.500           0.844
  20684413.193    -1670025.589 7  -1222997.38923        25.750           2.750
  23342407.647      312408.274 5    234054.94621         9.250           0.375
  22074087.100    -2091494.584 6  -1536611.94021        15.750           0.906
 91  6  6 18 32 44.9980000  0  5G18G11G 2G16G 6
  23037747.936     2352126.071 5   1733989.55121        11.000           0.469
  22688376.943      440332.752 6    332971.41021        16.500           0.813
  20678830.357    -1699375.020 7  -1245867.06223        26.250           2.656
  23344109.756      321384.484 5    241049.32821         8.500           0.375
  22066659.897    -2130528.810 6  -1567028.20321        15.750           0.969
 91  6  6 18 32 59.9980000  0  5G18G11G 2G16G 6
  23046279.217     2396941.308 5   1768910.37421        10.750           0.469
  22690699.451      452539.324 6    342482.99821        16.250           0.813
  20673257.443    -1728644.831 7  -1268674.69023        26.000           2.719
  23345843.334      330470.157 5    248128.99321         9.250           0.219
  22059233.100    -2169546.586 6  -1597431.64921        15.750           0.969
 91  6  6 18 33 14.9980000  0  5G18G11G 2G16G 6
  23054812.701     2441795.375 5   1803861.44921        10.750           0.469
  22693053.732      464888.417 6    352105.64721        16.250           0.906
  20667705.107    -1757836.658 7  -1291421.55323        26.250           2.688
  23347599.115      339663.422 5    255292.52421         9.500           0.344
  22051812.522    -2208549.423 6  -1627823.45121        15.500           0.875
 91  6  6 18 33 29.9980000  0  5G18G11G 2G16G 6
  23063360.084     2486690.621 5   1838844.61821        10.750           0.500
  22695427.982      477382.658 6    361841.39921        16.500           0.781
  20662162.397    -1786947.725 7  -1314105.48923        26.000           2.719
  23349366.240      348966.644 5    262541.71321         8.750           0.375
  22044395.717    -2247534.466 6  -1658201.39621        16.500           0.938
 91  6  6 18 33 44.9980000  0  5G18G11G 2G16G 6
  23071904.225     2531627.631 5   1873860.31821        10.500           0.406
  22697834.209      490022.595 6    371690.69021        16.750           0.719
  20656640.678    -1815977.162 7  -1336725.81323        26.250           2.750
  23351158.834      358380.664 5    269877.23921         9.000           0.156
  22036978.764    -2286500.979 6  -1688564.89721        15.500           0.938
 91  6  6 18 33 59.9980000  0  5G18G11G 2G16G 6
  23080462.873     2576604.189 5   1908906.85421        10.500           0.406
  22700262.264      502806.147 6    381651.88021        16.000           0.906
  20651129.662    -1844926.814 7  -1359283.97223        26.000           2.656
  23352969.201      367903.056 5    277297.20421         8.750           0.281
  22029570.764    -2325450.770 6  -1718915.36721        16.250           0.906
 91  6  6 18 34 14.9980000  0  5G18G11G 2G16G 6
  23089032.803     2621616.049 5   1943980.88121        10.750           0.406
  22702725.303      515728.878 6    391721.51621        16.250           0.813
  20645633.920    -1873800.879 7  -1381783.22823        26.000           2.781
  23354804.178      377529.358 5    284798.16621         8.750           0.281
  22022156.623    -2364387.942 6  -1749256.01121        15.250           0.906
 91  6  6 18 34 29.9980000  0  5G18G11G 2G16G 6
  23097603.709     2666666.693 5   1979085.11721        10.500           0.500
  22705210.920      528794.779 6    401902.72221        15.750           0.813
  20640156.975    -1902595.313 7  -1404220.43323        26.500           2.750
  23356656.647      387263.589 5    292383.19721         9.250           0.313
  22014749.006    -2403308.411 6  -1779583.63221        15.750           0.875
 91  6  6 18 34 44.9980000  0  5G18G11G 2G16G 6
  23106185.084     2711760.719 5   2014223.17521        10.500           0.563
  22707727.264      542008.171 6    412198.83321        17.250           0.781
  20634693.803    -1931305.636 7  -1426592.10023        26.000           2.813
  23358526.318      397109.834 5    300055.53221         8.750           0.375
  22007346.615    -2442207.544 6  -1809894.63421        16.000           0.813
 91  6  6 18 34 59.9980000  0  5G18G11G 2G16G 6
  23114777.990     2756890.056 5   2049388.73721        11.500           0.344
  22710269.420      555361.125 6    422603.73621        16.500           0.719
  20629244.412    -1959939.606 7  -1448904.27023        26.000           2.781
  23360418.779      407060.150 5    307808.95021         9.000           0.375
  21999951.662    -2481092.978 6  -1840194.95521        16.500           0.969
 91  6  6 18 35 14.9980000  0  5G18G11G 2G16G 6
  23123365.311     2802056.609 5   2084583.30121        10.500           0.469
  22712838.498      568855.966 6    433119.16921        17.000           0.813
  20623811.772    -1988494.566 7  -1471154.87223        26.500           2.750
  23362330.756      417116.655 5    315645.11321         8.750           0.250
  21992550.381    -2519962.143 6  -1870482.60721        15.500           0.906
 91  6  6 18 35 29.9980000  0  5G18G11G 2G16G 6
  23131969.584     2847259.305 5   2119806.04421        10.750           0.500
  22715428.381      582491.642 6    443744.35621        15.500           0.844
  20618393.951    -2016971.605 7  -1493344.75923        26.750           2.750
  23364272.123      427278.152 5    323563.09621         8.750           0.313
  21985158.084    -2558815.910 6  -1900758.26121        16.000           0.938
 91  6  6 18 35 44.9980000  0  5G18G11G 2G16G 6
  23140574.107     2892497.835 5   2155056.69421        10.500           0.531
  22718052.365      596267.767 6    454478.97621        15.750           0.813
  20612986.826    -2045370.772 7  -1515473.97023        26.500           2.813
  23366222.420      437544.048 5    331562.41221         9.000           0.313
  21977767.365    -2597654.364 6  -1931021.97321        16.000           0.844
 91  6  6 18 35 59.9980000  0  5G18G11G 2G16G 6
  23149194.334     2937773.131 5   2190335.99521        10.750           0.438
  22720700.459      610185.396 6    465323.86321        15.750           0.781
  20607599.373    -2073690.937 7  -1537541.61323        26.250           2.750
  23368197.834      447915.763 5    339644.19121         8.750           0.250
  21970382.514    -2636476.224 6  -1961272.76521        16.500           0.906
 91  6  6 18 36 14.9980000  0  5G18G11G 2G16G 6
  23157820.217     2983082.155 5   2225641.57221        10.750           0.344
  22723373.131      624241.380 6    476276.55321        16.250           0.813
  20602226.607    -2101935.170 7  -1559550.09223        26.750           2.813
  23370189.045      458390.226 5    347806.05621         8.250           0.281
  21962994.451    -2675284.387 6  -1991512.88221        15.750           0.875
 91  6  6 18 36 29.9980000  0  5G18G11G 2G16G 6
  23166445.412     3028427.885 5   2260975.77021        10.250           0.375
  22726075.600      638438.772 6    487339.44821        16.750           0.813
  20596863.225    -2130100.120 7  -1581496.78723        26.250           2.875
  23372202.537      468970.232 5    356050.12221         8.750           0.250
  21955613.139    -2714075.439 6  -2021739.65821        15.750           0.875
 91  6  6 18 36 44.9980000  0  5G18G11G 2G16G 6
  23175082.834     3073806.327 5   2296335.43321        10.000           0.406
  22728806.318      652774.131 6    498509.85721        17.000           0.781
  20591519.248    -2158189.117 7  -1603384.30423        25.500           2.750
  23374235.193      479652.014 5    364373.52221         8.750           0.250
  21948235.639    -2752852.669 6  -2051955.67121        16.250           0.938
 91  6  6 18 36 59.9980000  0  5G18G11G 2G16G 6
  23183726.186     3119227.193 5   2331728.14921        10.000           0.344
  22731562.256      667257.054 6    509795.22721        16.750           0.813
  20586189.850    -2186192.169 7  -1625204.84923        26.250           2.844
  23376284.131      490445.091 5    372783.62121         8.500           0.250
  21940858.537    -2791606.162 6  -2082153.20021        16.000           0.938
 91  6  6 18 37 14.9980000  0  5G18G11G 2G16G 6
  23192373.311     3164682.382 5   2367147.64521         9.750           0.375
  22734340.545      681879.387 6    521189.23121        16.250           0.719
  20580874.154    -2214117.187 7  -1646964.58223        26.250           2.906
  23378362.529      501341.441 5    381274.21221         8.750           0.344
  21933486.076    -2830343.669 6  -2112338.25621        16.000           0.938
 91  6  6 18 37 29.9980000  0  5G18G11G 2G16G 6
  23201031.248     3210167.531 5   2402590.44821         9.250           0.344
  22737154.561      696636.842 6    532688.53521        17.000           0.719
  20575577.561    -2241968.451 7  -1668666.84523        26.500           2.813
  23380454.818      512336.702 5    389841.88121         8.500           0.344
  21926118.631    -2869069.499 6  -2142514.22321        16.250           1.031
 91  6  6 18 37 44.9980000  0  5G18G11G 2G16G 6
  23209689.334     3255686.709 5   2438059.80121         9.250           0.344
  22739984.061      711533.554 6    544296.35621        16.250           0.688
  20570290.920    -2269741.704 7  -1690308.32423        26.250           2.813
  23382564.967      523434.872 5    398489.74421         8.000           0.281
  21918750.756    -2907779.158 6  -2172677.58621        16.250           1.000
 91  6  6 18 37 59.9980000  0  5G18G11G 2G16G 6
  23218360.623     3301240.802 5   2473556.33121         9.250           0.406
  22742846.068      726570.296 6    556013.27921        16.500           0.688
  20565020.607    -2297435.852 7  -1711888.16623        26.250           2.875
  23384695.842      534636.548 5    407218.23921         8.500           0.250
  21911392.865    -2946471.498 6  -2202827.45521        17.250           0.969
 91  6  6 18 38 14.9980000  0  5G18G11G 2G16G 6
  23227037.725     3346826.970 5   2509077.87621         9.500           0.406
  22745731.990      741744.588 6    567837.39421        16.250           0.719
  20559767.287    -2325053.281 7  -1733408.22523        26.500           2.813
  23386847.553      545939.184 5    416025.40221         8.500           0.250
  21904032.623    -2985148.728 6  -2232965.55021        17.000           0.969
 91  6  6 18 38 29.9980000  0  5G18G11G 2G16G 6
  23235719.686     3392444.829 5   2544624.11621         9.750           0.344
  22748650.842      757055.933 6    579768.30121        16.750           0.750
  20554525.459    -2352594.349 7  -1754868.78323        26.500           2.906
  23389015.295      557342.324 5    424910.86921         8.500           0.281
  21896672.365    -3023811.265 6  -2263092.19521        16.750           0.969
 91  6  6 18 38 44.9980000  0  5G18G11G 2G16G 6
  23244399.389     3438093.904 5   2580194.67221         9.000           0.344
  22751586.287      772503.921 6    591805.69121        16.250           0.750
  20549299.826    -2380059.029 7  -1776269.81823        26.750           2.906
  23391208.022      568845.633 5    433874.41321         8.750           0.188
  21889316.740    -3062458.962 6  -2293207.27721        16.500           1.031
 91  6  6 18 38 59.9980000  0  5G18G11G 2G16G 6
  23253094.889     3483775.509 5   2615790.56521         9.000           0.375
  22754554.342      788090.113 6    603950.76921        16.500           0.781
  20544088.053    -2407445.717 7  -1797610.07823        26.500           2.844
  23393417.561      580450.426 5    442917.04321         8.250           0.219
  21881967.475    -3101090.180 6  -2323309.50021        16.750           0.969
 91  6  6 18 39 14.9980000  0  5G18G11G 2G16G 6
  23261794.225     3529489.119 5   2651411.41521         9.250           0.438
  22757548.389      803814.140 6    616203.24321        15.500           0.813
  20538890.170    -2434754.632 7  -1818889.73723        26.750           2.938
  23395645.904      592156.292 5                         8.750
  21874619.154    -3139704.996 6  -2353398.97121        16.750           0.938
 91  6  6 18 39 29.9980000  0  5G18G11G 2G16G 6
  23270504.951     3575236.294 5   2687058.39921         9.250           0.313
  22760566.318      819677.421 6    628564.22821        16.000           0.750
  20533709.397    -2461984.135 7  -1840107.51223        26.500           2.875
  23397898.920      603964.453 5                         8.750
  21867275.912    -3178301.629 6  -2383474.25621        17.250           1.094
 91  6  6 18 39 44.9980000  0  5G18G11G 2G16G 6
  23279211.490     3621015.857 5   2722730.63921         9.000           0.313
  22763609.803      835678.748 6    641032.77921        16.000           0.813
  20528543.186    -2489135.243 7  -1861264.20323        26.750           2.875
  23400154.397      615873.918 5                         8.000
  21859932.936    -3216881.029 6  -2413536.11121        17.000           1.125
 91  6  6 18 39 59.9980000  0  5G18G11G 2G16G 6
  23287927.818     3666824.435 5   2758425.47221         9.250           0.469
  22766680.717      851815.144 6    653606.57221        15.750           0.719
  20523389.443    -2516210.818 7  -1882362.03723        26.750           3.031
  23402436.818      627881.670 5                         7.750
  21852588.834    -3255445.957 6  -2443586.69421        16.500           1.063
 91  6  6 18 40 14.9980000  0  5G18G11G 2G16G 6
  23296659.264     3712663.687 5   2794144.21021         9.000           0.406
  22769778.201      868088.054 6    666286.75421        16.500           0.719
  20518250.412    -2543209.065 7  -1903399.61123        26.500           2.938
  23404746.193      639988.755 5        -0.38731         8.000           0.281
  21845258.732    -3293994.534 6  -2473624.53121        17.250           1.031
 91  6  6 18 40 29.9980000  0  5G18G11G 2G16G 6
  23305383.022     3758536.183 5   2829888.86521         9.500           0.375
  22772902.631      884500.138 6    679075.39121        16.000           0.813
  20513130.865    -2570127.028 7  -1924374.63323        26.500           2.906
  23407070.545      652197.907 5      9513.16021         8.000           0.250
  21837927.436    -3332523.889 6  -2503647.39221        17.000           1.063
 91  6  6 18 40 44.9980000  0  5G18G11G 2G16G 6
  23314119.951     3804439.623 5   2865657.62421         9.500           0.375
  22776049.639      901049.049 6    691970.63121        15.750           0.719
  20508021.959    -2596967.181 7  -1945289.01923        26.750           2.938
  23409417.045      664506.746 5     19104.40621         7.500           0.250
  21830599.631    -3371035.996 6  -2533656.81421        17.250           1.000
 91  6  6 18 40 59.9980000  0  5G18G11G 2G16G 6
  23322863.670     3850370.493 5   2901447.74721         9.500           0.344
  22779223.014      917731.650 6    704970.06321        15.500           0.844
  20502929.232    -2623732.342 7  -1966144.97823        27.000           2.906
  23411780.631      676912.020 5     28770.72221         7.750           0.281
  21823270.279    -3409533.851 6  -2563655.12821        16.500           1.031
 91  6  6 18 41 14.9980000  0  5G18G11G 2G16G 6
  23331606.756     3896329.983 5   2937260.16921         9.750           0.344
  22782422.029      934548.907 6    718074.39921        15.750           0.906
  20497847.350    -2650421.282 7  -1986941.53823        26.500           3.000
  23414148.279      689414.792 5     38513.09521         7.750           0.219
  21815950.084    -3448016.179 6  -2593641.35221        16.750           1.219
 91  6  6 18 41 29.9980000  0  5G18G11G 2G16G 6
  23340354.451     3942315.291 5   2973092.72021         9.750           0.406
  22785649.248      951498.472 6    731281.85921        15.250           0.750
  20492787.342    -2677036.298 7  -2007680.50023        27.000           2.844
  23416544.654      702012.144 5     48329.11921         7.750           0.281
  21808628.787    -3486485.083 6  -2623617.11521        16.750           1.094
 91  6  6 18 41 44.9980000  0  5G18G11G 2G16G 6
  23349113.920     3988330.421 5   3008948.51121         9.500           0.313
  22788900.045      968584.062 6    744595.29021        16.000           0.844
  20487735.162    -2703573.366 7  -2028358.71823        26.750           2.906
  23418966.022      714707.797 5     58221.75921         7.750           0.188
  21801311.709    -3524936.445 6  -2653579.20221        17.000           1.031
 91  6  6 18 41 59.9980000  0  5G18G11G 2G16G 6
  23357871.318     4034374.732 5   3044827.02121         9.500           0.406
  22792179.272      985805.253 6    758014.38021        16.000           0.781
  20482699.920    -2730032.675 7  -2048976.34623        27.000           2.906
  23421402.412      727501.637 5     68190.89621         8.000           0.219
  21793997.022    -3563370.304 6  -2683527.64721        16.500           1.063
 91  6  6 18 42 14.9980000  0  5G18G11G 2G16G 6
  23366640.639     4080448.540 5   3080728.54821         9.500           0.438
  22795481.381     1003162.324 6    771539.37221        15.000           0.750
  20477677.506    -2756413.565 7  -2069532.86523        26.500           2.813
  23423852.647      740393.867 5     78236.68721         7.500           0.250
  21786687.826    -3601786.163 6  -2713462.07221        17.250           1.125
 91  6  6 18 42 29.9980000  0  5G18G11G 2G16G 6
  23375416.279     4126550.336 5   3116651.86621         9.500           0.469
  22798808.795     1020653.554 6    785168.89421        14.750           0.844
  20472676.420    -2782717.774 7  -2090029.63823        27.000           2.813
  23426330.123      753382.622 5     88357.71621         7.750           0.313
  21779378.740    -3640185.480 6  -2743383.60821        17.000           1.031
 91  6  6 18 42 44.9980000  0  5G18G11G 2G16G 6
  23384192.365     4172682.461 5   3152598.80421         9.500           0.375
  22802163.256     1038281.545 6    798904.98721        15.250           0.750
  20467681.857    -2808942.530 7  -2110464.49423        26.500           2.875
  23428816.959      766470.435 5     98555.94321         7.750           0.219
  21772074.826    -3678565.274 6  -2773289.92121        16.750           1.188
 91  6  6 18 42 59.9980000  0  5G18G11G 2G16G 6
  23392977.522     4218841.179 5   3188566.49421         9.000           0.531
  22805541.943     1056042.596 6    812744.77121        14.750           0.750
  20462709.209    -2835091.297 7  -2130840.14123        26.750           2.844
  23431329.873      779653.521 5    108828.35621         7.750           0.313
  21764777.998    -3716928.982 6  -2803183.70421        17.500           1.156
 91  6  6 18 43 14.9980000  0  5G18G11G 2G16G 6
  23401769.522     4265027.236 5   3224555.45621         9.750           0.344
  22808948.490     1073937.525 6    826688.83821        15.000           0.844
  20457746.232    -2861162.949 7  -2151155.70423        26.750           2.906
  23433847.162      792932.621 5    119175.63221         7.500           0.250
  21757480.193    -3755275.476 6  -2833064.06821        17.000           1.219
 91  6  6 18 43 29.9980000  0  5G18G11G 2G16G 6
  23410561.342     4311241.223 5   3260566.20221         8.500           0.344
  22812382.561     1091966.850 6    840737.66021        14.500           0.844
  20452802.381    -2887156.829 7  -2171410.65723        27.000           2.875
  23436397.404      806308.280 5    129598.15221         7.750           0.313
  21750186.107    -3793603.927 6  -2862930.38421        17.250           1.156
 91  6  6 18 43 44.9980000  0  5G18G11G 2G16G 6
  23419364.053     4357481.840 5   3296597.69321         9.250           0.406
  22815839.826     1110129.433 6    854890.31021        15.000           0.656
  20447871.068    -2913073.771 7  -2191605.65623        26.750           2.938
  23438968.334      819779.099 5    140094.78021         8.000           0.219
  21742891.615    -3831915.132 6  -2892783.24521        16.750           1.188
 91  6  6 18 43 59.9980000  0  5G18G11G 2G16G 6
  23428163.170     4403749.608 5   3332650.33021         8.500           0.344
  22819316.756     1128426.016 6    869147.35921        15.250           0.719
  20442952.373    -2938912.930 7  -2211740.04823        26.750           2.781
  23441537.139      833345.849 5    150666.21021         7.500           0.250
  21735605.279    -3870208.029 6  -2922621.85321        16.750           1.188
 91  6  6 18 44 14.9980000  0  5G18G11G 2G16G 6
  23436970.982     4450049.119 5   3368727.71221         8.000           0.344
  22822829.232     1146860.891 6    883512.19621        16.000           0.625
  20438051.428    -2964669.743 7  -2231810.28423        26.750           2.938
  23444147.865      847012.851 5    161315.71321         8.000           0.219
  21728323.256    -3908477.976 6  -2952442.58521        17.250           1.125
 91  6  6 18 44 29.9980000  0  5G18G11G 2G16G 6
  23445783.061     4496372.629 5   3404823.78621         8.000           0.375
  22826359.553     1165426.353 6    897978.78021        15.750           0.719
  20433163.607    -2990351.698 7  -2251822.18123        26.750           2.781
  23446760.936      860772.177 5    172037.17021         7.750           0.219
  21721046.404    -3946732.412 6  -2982251.21821        17.500           1.094
 91  6  6 18 44 44.9980000  0  5G18G11G 2G16G 6
  23454613.287     4542722.635 5   3440940.52021         8.500           0.375
  22829918.225     1184125.118 6    912549.23021        15.750           0.656
  20428290.014    -3015955.940 7  -2271773.52823        26.750           2.906
  23449400.865      874626.850 5    182832.93321         8.000           0.281
  21713770.061    -3984968.335 6  -3012045.43721        17.500           1.094
 91  6  6 18 44 59.9980000  0  5G18G11G 2G16G 6
  23463428.772     4589098.600 5   3477077.46221         8.000           0.281
  22833500.881     1202956.737 6    927223.21421        14.750           0.719
  20423432.279    -3041482.494 7  -2291664.34323        27.000           2.875
  23452048.279      888576.240 5    193702.48821         8.000           0.281
  21706498.889    -4023185.711 6  -3041825.19821        17.500           1.156
 91  6  6 18 45 14.9980000  0  5G18G11G 2G16G 6
  23472264.881     4635498.978 5   3513233.46421         8.250           0.281
  22837108.811     1221919.639 6    941999.47821        15.000           0.750
  20418590.279    -3066933.084 7  -2311495.95723        27.000           2.875
  23454723.490      902618.314 5    204644.28921         7.500           0.188
  21699226.006    -4061386.030 6  -3071591.66721        17.250           1.188
 91  6  6 18 45 29.9980000  0  5G18G11G 2G16G 6
  23481100.928     4681925.466 5   3549409.78921         8.500           0.313
  22840744.014     1241015.490 6    956879.36121        15.250           0.781
  20413762.654    -3092305.546 7  -2331266.69323        26.750           2.875
  23457420.232      916754.635 5    215659.49321         7.750           0.281
  21691962.522    -4099567.124 6  -3101343.16221        17.250           1.188
 91  6  6 18 45 44.9980000  0  5G18G11G 2G16G 6
  23489939.295     4728376.133 5   3585604.95421         8.250           0.281
  22844400.162     1260242.637 6    971861.51521        14.500           0.750
  20408948.553    -3117601.456 7  -2350977.78923        26.750           2.938
  23460127.881      930983.640 5    226746.92821         7.750           0.250
  21684700.772    -4137730.413 6  -3131080.77421        17.750           1.219
 91  6  6 18 45 59.9980000  0  5G18G11G 2G16G 6
  23498786.334     4774850.929 5   3621818.90321         8.750           0.313
  22848081.756     1279600.744 6    986945.74621        14.250           0.719
  20404147.350    -3142820.911 7  -2370629.30123        26.500           2.875
  23462846.748      945305.309 5    237906.57921         7.500           0.281
  21677443.467    -4175875.861 6  -3160804.48821        18.250           1.125
 91  6  6 18 46 14.9980000  0  5G18G11G 2G16G 6
  23507627.592     4821347.251 5   3658049.66121         8.500           0.188
  22851794.850     1299087.473 6   1002130.19221        15.250           0.750
  20399364.350    -3167965.988 7  -2390222.85423        26.250           2.844
  23465588.334      959717.069 5    249136.41121         7.750           0.281
  21670188.834    -4214005.472 6  -3190515.86621        18.750           1.188
 91  6  6 18 46 29.9980000  0  5G18G11G 2G16G 6
  23516481.404     4867869.075 5   3694300.27821         8.000           0.250
  22855525.178     1318706.816 6   1017417.96721        15.500           0.781
  20394592.342    -3193032.432 7  -2409755.13923        26.000           2.906
  23468350.561      974222.687 5    260439.39621         8.000           0.250
  21662936.811    -4252114.887 6  -3220211.49521        18.750           1.281
 91  6  6 18 46 44.9980000  0  5G18G11G 2G16G 6
  23525341.459     4914412.311 5   3730567.54421         8.750           0.281
  22859283.428     1338454.576 6   1032805.81621        15.250           0.688
  20389837.365    -3218024.305 7  -2429229.31823        26.500           2.875
  23471124.756      988817.877 5    271812.17021         8.000           0.250
  21655683.904    -4290207.990 6  -3249894.42421        17.750           1.188
 91  6  6 18 46 59.9980000  0  5G18G11G 2G16G 6
  23534202.256     4960977.260 5   3766851.78221         8.750           0.219
  22863067.342     1358330.977 6   1048293.91421        15.000           0.781
  20385094.357    -3242941.221 7  -2448645.08723        26.250           2.969
  23473924.686     1003503.013 5    283255.00421         8.250           0.250
  21648440.779    -4328284.284 6  -3279564.24721        18.000           1.313
 91  6  6 18 47 14.9980000  0  5G18G11G 2G16G 6
  23543067.350     5007567.090 5   3803155.34721         8.750           0.344
  22866877.272     1378339.608 6   1063885.03221        15.250           0.688
  20380370.451    -3267779.353 7  -2467999.46823        26.500           2.813
  23476728.225     1018281.623 5    294770.72421         7.500           0.313
  21641198.514    -4366339.931 6  -3309217.98121        17.750           1.188
 91  6  6 18 47 29.9980000  0  5G18G11G 2G16G 6
  23551934.178     5054176.204 5   3839473.99721         8.750           0.281
  22870707.107     1398474.768 6   1079574.75321        14.750           0.813
  20375655.482    -3292544.074 7  -2487296.64723        26.500           2.938
  23479564.717     1033148.004 5    306354.79521         8.000           0.313
  21633962.873    -4404380.115 6  -3338859.67421        18.250           1.219
 91  6  6 18 47 44.9980000  0  5G18G11G 2G16G 6
  23560807.990     5100810.797 5   3875812.45021         9.000           0.344
  22874560.756     1418742.597 6   1095367.83421        14.750           0.781
  20370960.498    -3317229.045 7  -2506531.68423        26.750           2.938
  23482413.123     1048108.027 5    318011.87621         8.250           0.281
  21626722.225    -4442398.315 6  -3368484.23021        17.000           1.250
 91  6  6 18 47 59.9980000  0  5G18G11G 2G16G 6
  23569690.865     5147466.627 5   3912167.49821         8.750           0.188
  22878447.326     1439138.933 6   1111261.05721        16.000           0.719
  20366278.139    -3341838.239 7  -2525707.68023        26.500           2.969
  23485278.365     1063157.229 5    329738.39321         8.250           0.281
  21619491.764    -4480398.501 6  -3398094.77121        17.500           1.250
 91  6  6 18 48 14.9980000  0  1G 2
  20361607.857    -3366369.580 7  -2544823.02222        26.250           1.781
 91  6  6 18 48 29.9980000  0  5G18G11G 2G16G 6
  23587458.506          -0.21115                         8.500
  22886280.787          -0.64116                        15.000
  20356954.217    -3390825.987 7  -2563880.43123        26.500           2.875
  23491049.764          -0.93715                         8.000
  21605044.232          -0.93416                        18.750
 91  6  6 18 48 44.9980000  0  5G18G11G 2G16G 6
  23596354.959       46718.533 5                         9.000
  22890235.834       20780.211 6                        15.250
  20352315.631    -3415207.511 7  -2582878.99023        26.750           2.906
  23493968.623       15315.934 5                         8.000
  21597820.100      -37945.771 6                        17.750
 91  6  6 18 48 59.9980000  0  5G18G11G 2G16G 6
  23605243.795       93459.006 5        -0.10331         8.000           0.281
  22894215.326       41690.053 6        -0.08931        16.000           0.719
  20347691.873    -3439511.840 7  -2601817.42423        27.000           2.969
  23496899.584       30722.470 5        -0.36631         7.750           0.281
  21590603.873      -75870.725 6        -0.43531        18.000           1.250
 91  6  6 18 49 14.9980000  0  5G18G11G 2G16G 6
  23614148.787      140218.402 5     36435.60321         8.500           0.250
  22898220.600       62726.115 6     16391.63221        15.250           0.688
  20343081.397    -3463741.591 7  -2620697.74123        27.000           2.938
  23499846.943       46215.762 5     12072.20421         8.000           0.313
  21583390.076     -113778.198 6    -29538.70321        17.750           1.313
 91  6  6 18 49 29.9980000  0  5G18G11G 2G16G 6
  23623045.006      186997.534 5     72886.70721         8.000           0.344
  22902246.139       83889.160 6     32882.29621        15.250           0.750
  20338480.951    -3487895.787 7  -2639519.18523        26.500           2.938
  23502813.006       61796.848 5     24213.19821         7.750           0.219
  21576177.193     -151667.066 6    -59062.49621        18.000           1.313
 91  6  6 18 49 44.9980000  0  5G18G11G 2G16G 6
  23631951.443      233795.326 5    109352.32921         7.750           0.281
  22906295.670      105178.084 6     49471.03921        15.000           0.719
  20333902.482    -3511975.244 7  -2658282.39523        26.500           2.969
  23505790.350       77464.372 5     36421.55921         7.750           0.219
  21568974.389     -189537.884 6    -88572.20621        18.500           1.188
 91  6  6 18 49 59.9980000  0  5G18G11G 2G16G 6
  23640861.420      280616.584 4    145836.24621         7.250           0.344
  22910373.693      126597.915 6     66161.79721        15.250           0.688
  20329336.076    -3535974.506 7  -2676983.11423        27.000           2.969
  23508790.709       93223.459 5     48701.24921         7.750           0.250
  21561768.107     -227385.415 6   -118063.78221        18.000           1.281
 91  6  6 18 50 14.9980000  0  5G18G11G 2G16G 6
  23649773.631      327455.640 4    182334.01821         7.250           0.375
  22914474.022      148143.081 6     82950.21421        15.000           0.688
  20324780.842    -3559899.000 7  -2695625.57223        26.250           2.875
  23511807.037      109068.388 5     61047.83521         8.250           0.406
  21554575.654     -265214.777 6   -147541.19221        18.500           1.344
 91  6  6 18 50 29.9980000  0  5G18G11G 2G16G 6
  23658688.975      374314.156 4    218846.97521         7.250           0.250
  22918597.100      169815.103 6     99837.49521        14.000           0.594
  20320241.662    -3583747.137 7  -2714208.53523        26.250           2.969
  23514842.428      125000.559 5     73462.39421         8.000           0.313
  21547379.279     -303024.248 6   -177003.10521        19.000           1.344
 91  6  6 18 50 44.9980000  0  5G18G11G 2G16G 6
  23667613.154      421192.070 4    255375.04021         7.250           0.344
  22922743.998      191613.656 6    116823.33421        14.500           0.563
  20315721.178    -3607519.046 7  -2732732.09423        27.000           3.000
  23517887.693      141019.880 5     85944.86421         7.750           0.219
  21540186.701     -340813.695 6   -206449.41521        18.500           1.281
 91  6  6 18 50 59.9980000  0  5G18G11G 2G16G 6
  23676533.561      468084.114 4    291914.09821         6.750           0.281
  22926920.717      213533.652 6    133903.85021        15.750           0.594
  20311208.795    -3631219.494 7  -2751199.97223        26.000           2.938
  23520962.131      157121.050 5     98491.14121         8.000           0.250
  21532993.295     -378587.762 6   -235883.74821        18.000           1.344
 91  6  6 18 51 14.9980000  0  5G18G11G 2G16G 6
  23685460.404      514993.486 4    328466.65621         7.250           0.219
  22931111.639      235578.499 6    151081.62121        15.250           0.688
  20306713.295    -3654844.862 7  -2769609.34823        26.000           2.969
  23524029.928      173307.065 5    111103.50021         7.500           0.313
  21525814.787     -416342.961 6   -265303.37321        18.750           1.313
 91  6  6 18 51 29.9980000  0  5G18G11G 2G16G 6
  23694392.459      561921.768 4    365033.97721         7.250           0.219
  22935332.162      257749.669 6    168357.83221        15.000           0.656
  20302232.100    -3678393.319 7  -2787958.79323        26.000           3.000
  23527130.303      189579.665 5    123783.34421         7.500           0.250
  21518636.639     -454077.164 6   -294706.63921        18.750           1.219
 91  6  6 18 51 44.9980000  0  5G18G11G 2G16G 6
  23703314.897      608866.288 4    401613.92721         7.000           0.344
  22939573.561      280044.589 6    185730.49121        14.000           0.625
  20297765.436    -3701867.324 7  -2806250.22323        26.500           3.031
  23530241.053      205936.442 5    136528.74621         7.500           0.250
  21511459.420     -491792.750 6   -324095.39821        18.750           1.250
 91  6  6 18 51 59.9980000  0  5G18G11G 2G16G 6
  23712263.404      655826.945 5    438206.45721         7.750           0.250
  22943841.037      302463.185 6    203199.49621        14.500           0.563
  20293309.912    -3725266.868 7  -2824483.62923        26.250           2.969
  23533371.897      222376.872 5    149339.37821         7.500           0.281
  21504279.061     -529489.428 6   -353469.43321        18.250           1.375
 91  6  6 18 52 14.9980000  0  5G18G11G 2G16G 6
  23721201.553      702802.789 5    474810.82121         7.750           0.281
  22948127.959      325004.290 6    220763.97221        14.750           0.719
  20288875.803    -3748592.920 7  -2842659.77223        26.250           2.875
  23536523.490      238899.952 5    162214.39921         8.500           0.281
  21497112.287     -567167.955 6   -382829.30821        18.250           1.375
 91  6  6 18 52 29.9980000  0  5G18G11G 2G16G 6
  23730148.139      749797.377 5    511429.80521         8.250           0.313
  22952440.467      347671.694 6    238426.85821        14.250           0.563
  20284453.264    -3771841.283 7  -2860775.37623        26.750           2.938
  23539679.779      255509.567 5    175156.81621         7.750           0.250
  21489949.772     -604824.222 6   -412171.84821        19.000           1.375
 91  6  6 18 52 44.9980000  0  5G18G11G 2G16G 6
  23739094.600      796812.671 5    548064.91521         8.250           0.281
  22956780.037      370467.461 6    256189.78121        15.000           0.656
  20280036.951    -3795009.673 7  -2878828.65623        26.000           2.906
  23542843.186      272207.418 4    188168.04221         7.000           0.250
  21482785.701     -642455.788 6   -441495.12921        19.000           1.250
 91  6  6 18 52 59.9980000  0  3G11G 2G 6
  22961142.529      393386.362 6    274048.63021        15.250           0.625
  20275647.350    -3818102.944 7  -2896823.40823        26.750           3.063
  21475630.975     -680067.378 6   -470802.85021        18.750           1.344
 91  6  6 18 53 14.9980000  0  3G11G 2G 6
  22965528.061      416428.211 6    292003.31021        14.750           0.594
  20271265.756    -3841121.102 7  -2914759.63023        26.750           2.969
  21468473.936     -717658.742 6   -500094.80921        18.500           1.281
 91  6  6 18 53 29.9980000  0  3G11G 2G 6
  22969936.522      439595.524 6    310055.73121        15.000           0.688
  20266899.897    -3864061.416 7  -2932635.19123        26.750           2.938
  21461323.600     -755227.134 6   -529368.87021        18.500           1.281
 91  6  6 18 53 44.9980000  0  3G11G 2G 6
  22974365.592      462884.710 6    328203.12021        14.500           0.656
  20262549.631    -3886927.265 7  -2950452.72623        26.750           2.938
  21454179.061     -792775.783 6   -558627.54721        18.750           1.344
 91  6  6 18 53 59.9970000  0  3G11G 2G 6
  22978823.696      486294.729 6    346444.67421        14.250           0.656
  20258213.978    -3909716.431 7  -2968210.50623        27.250           3.031
  21447039.103     -830301.219 6   -587868.13021        18.250           1.344
 91  6  6 18 54 14.9970000  0  3G11G 2G 6
  22983298.603      509826.425 6    364781.03321        14.000           0.625
  20253892.821    -3932434.003 7  -2985912.50623        27.250           3.094
  21439903.399     -867810.433 6   -617096.08321        18.750           1.344
 91  6  6 18 54 29.9970000  0  3G11G 2G 6
  22987800.923      533479.907 6    383212.28421        15.750           0.625
  20249582.845    -3955076.344 7  -3003555.87523        27.000           3.031
  21432768.181     -905298.780 6   -646307.78321        18.500           1.469
 91  6  6 18 54 44.9970000  0  3G11G 2G 6
  22992320.587      557260.204 6    401742.38321        13.750           0.563
  20245287.829    -3977638.280 7  -3021136.60123        27.250           3.031
  21425639.040     -942760.801 6   -675498.95621        19.000           1.375
 91  6  6 18 54 59.9970000  0  3G11G 2G 6
  22996876.712      581160.241 6    420365.76221        14.750           0.563
  20241013.267    -4000126.790 8  -3038660.10423        28.250           3.000
  21418515.954     -980203.225 6   -704674.86621        18.500           1.438
 91  6  6 18 55 14.9970000  0  3G11G 2G 6
  23001446.876      605185.014 6    439086.34121        14.500           0.594
  20236744.048    -4022536.587 7  -3056122.27123        27.750           2.938
  21411390.165    -1017620.670 6   -733831.31121        18.250           1.438
 91  6  6 18 55 29.9970000  0  3G11G 2G 6
  23006040.548      629330.771 6    457901.19321        14.500           0.656
  20232496.118    -4044870.845 7  -3073525.57923        27.750           3.031
  21404282.149    -1055016.356 6   -762970.81021        19.500           1.313
 91  6  6 18 55 44.9970000  0  3G11G 2G 6
  23010658.228      653597.589 6    476810.37721        13.750           0.656
  20228257.899    -4067129.587 7  -3090870.04123        27.250           3.063
  21397167.884    -1092390.115 6   -792093.20821        19.000           1.406
 91  6  6 18 55 59.9970000  0  3G11G 2G 6
  23015297.149      677981.322 6    495810.67021        13.250           0.594
  20224038.110    -4089316.617 8  -3108158.62523        28.000           3.125
  21390055.688    -1129745.474 6   -821201.27721        18.500           1.375
 91  6  6 18 56 14.9970000  0  3G11G 2G 6
  23019960.954      702484.350 6    514903.90621        13.750           0.625
  20219828.665    -4111429.314 7  -3125389.28523        27.500           3.031
  21382953.634    -1167079.781 6   -850292.92721        18.750           1.438
 91  6  6 18 56 29.9970000  0  3G11G 2G 6
  23024644.040      727104.791 6    534088.63721        13.750           0.594
  20215636.728    -4133469.409 7  -3142563.38123        27.750           3.094
  21375852.821    -1204394.418 6   -879369.26721        19.000           1.406
 91  6  6 18 56 44.9970000  0  3G11G 2G 6
  23029357.720      751844.950 6    553366.65521        14.500           0.594
  20211454.134    -4155434.282 7  -3159678.84523        27.250           3.000
  21368753.032    -1241686.663 6   -908428.15521        18.750           1.406
 91  6  6 18 56 59.9970000  0  3G11G 2G 6
  23034083.563      776698.576 6    572733.09121        13.750           0.625
  20207289.673    -4177329.908 7  -3176740.36923        27.750           3.156
  21361664.915    -1278962.474 6   -937474.23722        19.000           1.531
 91  6  6 18 57 14.9970000  0  3G11G 2G 6
  23038834.907      801668.654 6    592190.27421        14.250           0.625
  20203133.899    -4199153.078 7  -3193745.42723        27.500           2.969
  21354570.493    -1316218.544 6   -966504.93221        18.250           1.469
 91  6  6 18 57 29.9970000  0  3G11G 2G 6
  23043609.556      826759.945 6    611741.90421        14.750           0.656
  20198996.017    -4220898.737 7  -3210690.09223        27.500           3.125
  21347488.009    -1353449.539 6   -995516.08721        18.750           1.438
 91  6  6 18 57 44.9970000  0  4G19G11G 2G 6
  21022933.345          -0.56316                        15.500
  23048406.399      851968.494 6    631384.90821        15.000           0.625
  20194871.946    -4242570.575 7  -3227577.23423        27.250           3.031
  21340406.821    -1390658.941 6  -1024510.42121        18.500           1.406
 91  6  6 18 57 59.9970000  0  4G19G11G 2G 6
  21026082.978       16528.021 6                        15.250
  23053225.251      877291.912 6    651117.42021        14.250           0.719
  20190762.696    -4264170.792 7  -3244408.56023        27.250           3.000
  21333333.056    -1427848.874 6  -1053489.58421        19.250           1.406
 91  6  6 18 58 14.9970000  0  4G19G11G 2G 6
  21029234.423       33119.311 6        -0.38831        15.250           1.438
  23058065.688      902730.201 6    670939.44121        14.250           0.563
  20186664.657    -4285699.317 7  -3261184.02723        27.500           3.063
  21326259.009    -1465018.993 6  -1082453.29821        19.000           1.375
 91  6  6 18 58 29.9970000  0  4G19G11G 2G 6
  21032410.087       49773.328 6     12976.72322        15.000           1.500
  23062928.501      928282.913 6    690850.61621        14.500           0.719
  20182580.274    -4307156.181 7  -3277903.65623        27.250           3.031
  21319188.173    -1502169.162 6  -1111401.48422        18.750           1.531
 91  6  6 18 58 44.9970000  0  4G19G11G 2G 6
  21035586.938       66491.310 6     26003.68422        15.000           1.500
  23067813.423      953951.050 6    710851.73621        14.750           0.625
  20178514.063    -4328540.124 7  -3294566.46023        27.250           3.063
  21312123.884    -1539298.065 6  -1140333.08921        19.250           1.375
 91  6  6 18 58 59.9970000  0  4G19G11G 2G 6
  21038786.017       83274.920 6     39081.78722        15.000           1.500
  23072720.313      979736.019 6    730943.90621        14.500           0.656
  20174459.634    -4349849.457 7  -3311171.13523        27.500           3.000
  21305061.853    -1576403.876 6  -1169246.70721        19.250           1.375
 91  6  6 18 59 14.9970000  0  2G11G 6
  23077650.954     1005639.047 6    751127.95521        14.000           0.563
  21298002.071    -1613484.926 6  -1198141.11821        18.750           1.344
 91  6  6 18 59 29.9970000  0  4G19G11G 2G 6
  21045210.095          -0.93016                        16.500
  23082601.274     1031652.903 6    771398.10721        15.000           0.594
  20166388.704          -0.67617                        27.000
  21290949.337    -1650548.116 6  -1227021.35521        19.000           1.438
 91  6  6 18 59 44.9970000  0  4G19G11G 2G 6
  21048434.571       16975.878 6                        16.250
  23087571.438     1057782.496 6    791758.84621        14.000           0.594
  20162377.235      -21090.428 7                        27.750
  21283900.595    -1687588.031 6  -1255883.64722        18.750           1.531
 91  6  6 18 59 59.9970000  0  4G19G11G 2G 6
  21051682.509       34018.754 6        -0.29932        16.000           1.500
  23092564.603     1084028.194 6    812209.97321        13.250           0.656
  20158377.853      -42105.446 7        -0.28233        27.750           3.063
  21276861.267    -1724603.923 6  -1284727.18322        19.250           1.500
 91  6  6 19  0 14.9970000  0  4G19G11G 2G 6
  21054933.603       51123.606 6     13328.12122        16.250           1.563
  23097581.274     1110385.365 6    832748.00421        13.750           0.531
  20154393.907      -63049.921 8    -16320.65323        28.000           3.031
  21269819.993    -1761600.059 6  -1313555.32622        19.000           1.500
 91  6  6 19  0 29.9970000  0  4G19G11G 2G 6
  21058203.142       68293.572 6     26707.27621        15.750           1.469
  23102619.759     1136856.826 6    853375.12021        14.500           0.594
  20150420.626      -83920.832 7    -32583.70123        27.500           3.125
  21262785.759    -1798573.120 6  -1342365.49722        19.500           1.563
 91  6  6 19  0 44.9970000  0  4G19G11G 2G 6
  21061484.438       85528.479 6     40137.03922        16.750           1.500
  23107677.345     1163442.001 6    874090.81121        12.750           0.563
  20146464.024     -104718.428 7    -48789.62223        27.750           3.031
  21255753.853    -1835523.351 6  -1371157.87522        19.500           1.563
 91  6  6 19  0 59.9970000  0  4G19G11G 2G 6
  21064771.899      102827.849 6     53617.03121        16.500           1.438
  23112760.407     1190140.083 6    894894.47721        14.250           0.563
  20142518.728     -125443.169 7    -64938.76923        27.500           3.063
  21248727.985    -1872450.857 6  -1399932.54522        19.250           1.531
 91  6  6 19  1 14.9970000  0  4G19G11G 2G 6
  21068079.134      120191.212 6     67146.88921        16.750           1.438
  23117858.813     1216950.306 6    915785.55321        13.000           0.594
  20138588.970     -146095.852 7    -81031.76623        27.250           3.000
  21241702.095    -1909356.216 6  -1428689.96222        19.750           1.625
 91  6  6 19  1 29.9970000  0  4G19G11G 2G 6
  21071394.571      137620.495 6     80728.11222        16.000           1.500
  23122984.165     1243874.148 6    936765.12621        13.250           0.500
  20134673.853     -166674.534 7    -97067.10623        27.500           3.125
  21234686.931    -1946237.435 7  -1457428.55921        20.250           1.469
 91  6  6 19  1 44.9970000  0  4G19G11G 2G 6
  21074724.978      155116.446 6     94361.27921        16.250           1.406
  23128128.978     1270912.164 6    957833.69421        14.250           0.469
  20130773.634     -187178.423 7   -113044.16623        27.750           3.000
  21227673.290    -1983093.533 7  -1486147.58922        20.000           1.531
 91  6  6 19  1 59.9970000  0  4G19G11G 2G 6
  21078069.181      172676.061 6    108044.06421        16.500           1.469
  23133298.040     1298061.051 6    978988.65521        13.500           0.563
  20126886.001     -207610.749 8   -128965.46123        28.000           3.031
  21220662.126    -2019927.491 6  -1514849.36322        19.500           1.531
 91  6  6 19  2 14.9970000  0  4G19G11G 2G 6
  21081418.056      190297.024 6    121774.64021        16.750           1.344
  23138481.657     1325318.190 6   1000227.95821        13.000           0.500
  20123008.673     -227973.654 7   -144832.66123        27.500           3.094
  21213657.556    -2056741.408 7  -1543535.52122        20.000           1.531
 91  6  6 19  2 29.9970000  0  4G19G11G 2G 6
  21084787.087      207984.862 6    135557.33621        16.500           1.344
  23143689.384     1352688.905 6   1021555.76721        13.000           0.469
  20119149.118     -248261.588 7   -160641.43823        27.250           3.094
  21206655.017    -2093529.580 7  -1572201.62022        20.000           1.563
 91  6  6 19  2 44.9970000  0  4G19G11G 2G 6
  21088162.056      225736.992 6    149390.12421        16.500           1.375
  23148921.845     1380170.022 6   1042969.60821        13.250           0.375
  20115301.517     -268477.568 7   -176394.15423        27.250           3.156
  21199658.728    -2130294.746 7  -1600849.79722        20.000           1.563
 91  6  6 19  2 59.9970000  0  4G19G11G 2G 6
  21091557.001      243555.684 6    163274.77821        16.250           1.469
  23154168.337     1407763.492 6   1064471.02321        12.750           0.563
  20111467.118     -288619.338 7   -192089.04023        27.000           3.094
  21192669.923    -2167034.463 7  -1629478.13522        20.000           1.563
 91  6  6 19  3 14.9970000  0  4G19G11G 2G 6
  21094955.103      261437.262 6    177208.44221        16.500           1.438
  23159445.251     1435465.561 6   1086056.98821        13.750           0.594
  20107648.790     -308690.588 7   -207728.97123        27.000           3.094
  21185684.649    -2203752.209 7  -1658089.36122        20.000           1.563
 91  6  6 19  3 29.9970000  0  4G19G11G 2G 6
  21098373.454      279386.055 6    191194.48121        16.000           1.406
  23164735.321     1463280.068 6   1107730.61821        13.250           0.531
  20103843.962     -328687.038 7   -223310.62523        27.500           3.125
  21178701.790    -2240443.608 7  -1686680.04522        20.250           1.563
 91  6  6 19  3 44.9970000  0  4G19G11G 2G 6
  21101796.407      297401.226 6    205232.23521        15.750           1.406
  23170047.228     1491205.904 6   1129490.99521        12.250           0.406
  20100053.923     -348609.452 7   -238834.58223        27.750           3.219
  21171723.134    -2277109.469 7  -1715250.83922        20.750           1.563
 91  6  6 19  3 59.9970000  0  4G19G11G 2G 6
  21105242.728      315481.215 6    219320.50421        15.750           1.438
  23175386.837     1519240.969 6   1151336.47521        14.000           0.531
  20096274.813     -368459.671 7   -254302.28123        27.250           3.156
  21164750.095    -2313751.291 7  -1743802.89122        20.000           1.656
 91  6  6 19  4 14.9970000  0  4G19G11G 2G 6
  21108692.829      333621.120 6    233455.44421        16.750           1.344
  23180739.899     1547379.989 6   1173262.96121        13.250           0.531
  20092511.321     -388242.646 7   -269717.58723        27.500           3.031
  21157776.954    -2350373.785 6  -1772339.89221        19.250           1.438
 91  6  6 19  4 29.9970000  0  4G19G11G 2G 6
  21112159.188      351826.745 6    247641.61321        16.250           1.344
  23186112.407     1575628.626 6   1195274.87821        13.250           0.531
  20088761.040     -407952.612 7   -285075.99423        27.500           3.031
  21150815.103    -2386970.873 7  -1800857.09222        20.000           1.656
 91  6  6 19  4 44.9970000  0  4G19G11G 2G 6
  21115635.306      370094.180 6    261875.93421        16.750           1.313
  23191509.524     1603982.533 6   1217368.78721        13.250           0.500
  20085021.962     -427593.606 7   -300380.66223        27.000           3.031
  21143854.423    -2423546.520 6  -1829357.58522        19.750           1.563
 91  6  6 19  4 59.9970000  0  4G19G11G 2G 6
  21119125.353      388427.674 6    276161.73721        15.750           1.375
  23196926.103     1632445.672 6   1239547.83621        13.500           0.531
  20081297.790     -447161.439 7   -315628.32023        27.000           3.125
  21136902.845    -2460096.359 7  -1857837.97222        21.250           1.625
 91  6  6 19  5 14.9970000  0  4G19G11G 2G 6
  21122623.728      406824.430 6    290496.83721        16.250           1.375
  23202365.798     1661014.820 6   1261809.48621        14.250           0.594
  20077589.720     -466658.921 7   -330821.15723        27.500           3.063
  21129950.501    -2496622.967 7  -1886300.25022        20.250           1.531
 91  6  6 19  5 29.9970000  0  4G19G11G 2G 6
  21126136.040      425287.325 6    304883.46921        16.250           1.313
  23207821.571     1689692.713 6   1284155.87421        13.750           0.594
  20073892.782     -486083.329 7   -345957.05223        27.500           3.031
  21123004.118    -2533123.596 7  -1914742.29322        20.250           1.625
 91  6  6 19  5 44.9970000  0  4G19G11G 2G 6
  21129663.134      443818.843 6    319323.56221        16.750           1.281
  23213299.767     1718481.482 6   1306588.64921        13.750           0.594
  20070208.298     -505432.083 7   -361033.99923        27.250           3.094
  21116061.892    -2569595.362 7  -1943161.84022        20.000           1.625
 91  6  6 19  5 59.9970000  0  4G19G11G 2G 6
  21133198.642      462414.587 6    333813.71721        15.750           1.313
  23218795.595     1747376.362 6   1329104.11721        13.000           0.531
  20066543.423     -524709.547 7   -376055.40023        27.750           3.125
  21109127.571    -2606042.671 7  -1971562.33122        20.000           1.563
 91  6  6 19  6 14.9970000  0  4G19G11G 2G 6
  21136753.845      481071.466 6    348351.49721        16.500           1.281
  23224314.290     1776373.951 6   1351699.60721        13.250           0.531
  20062884.524     -543919.134 7   -391023.90123        27.250           3.031
  21102194.454    -2642468.561 7  -1999946.14122        20.250           1.656
 91  6  6 19  6 29.9970000  0  4G19G11G 2G 6
  21140316.735      499793.841 6    362940.32021        15.250           1.313
  23229856.251     1805478.142 6   1374378.16921        13.250           0.656
  20059244.673     -563056.557 7   -405936.17623        27.250           3.000
  21095269.993    -2678868.442 7  -2028309.67222        20.750           1.625
 91  6  6 19  6 44.9970000  0  4G19G11G 2G 6
  21143890.173      518577.835 6    377577.15721        16.500           1.313
  23235411.165     1834684.889 6   1397136.63121        12.250           0.531
  20055616.259     -582125.667 7   -420795.22023        27.500           3.000
  21088344.954    -2715245.994 7  -2056655.80022        20.250           1.625
 91  6  6 19  6 59.9970000  0  4G19G11G 2G 6
  21147481.946      537424.072 6    392262.48921        15.750           1.281
  23240988.782     1863994.457 6   1419975.20321        13.250           0.594
  20051999.040     -601125.867 7   -435600.56523        27.500           3.125
  21081431.399    -2751600.691 7  -2084984.13022        20.500           1.500
 91  6  6 19  7 14.9970000  0  4G19G11G 2G 6
  21151073.290      556334.134 6    406997.56121        16.250           1.438
  23246585.649     1893407.933 6   1442894.78421        13.250           0.563
  20048397.196     -620055.788 7   -450351.15123        27.250           3.063
  21074517.610    -2787930.807 7  -2113293.30822        21.000           1.688
 91  6  6 19  7 29.9970000  0  4G19G11G 2G 6
  21154686.462      575310.071 6    421783.96221        15.750           1.375
  23252206.501     1922927.199 6   1465896.77621        12.750           0.688
  20044809.665     -638913.410 8   -465045.40023        28.000           3.094
  21067605.907    -2824233.980 7  -2141581.47422        20.500           1.531
 91  6  6 19  7 44.9970000  0  4G19G11G 2G 6
  21158303.173      594354.276 6    436623.55721        15.750           1.188
  23257844.321     1952554.318 6   1488982.79321        13.750           0.500
  20041236.399     -657696.396 8   -479681.49023        28.000           3.031
  21060703.087    -2860507.857 7  -2169846.83622        20.000           1.594
 91  6  6 19  7 59.9970000  0  4G19G11G 2G 6
  21161947.103      613458.594 6    451510.00321        16.000           1.250
  23263498.259     1982280.643 6   1512146.16321        13.250           0.594
  20037674.642     -676412.876 7   -494265.75723        27.750           3.125
  21053805.509    -2896760.451 7  -2198095.60622        20.500           1.594
 91  6  6 19  8 14.9970000  0  4G19G11G 2G 6
  21165593.907      632630.361 6    466448.99921        16.250           1.219
  23269177.173     2012113.262 6   1535392.30821        12.500           0.625
  20034126.188     -695055.440 7   -508792.42923        27.500           3.031
  21046914.712    -2932984.276 7  -2226321.95522        20.750           1.625
 91  6  6 19  8 29.9970000  0  4G19G11G 2G 6
  21169253.892      651867.516 6    481438.94021        16.250           1.344
  23274874.095     2042049.740 6   1558719.39021        12.000           0.594
  20030592.228     -713626.445 7   -523263.34223        27.500           2.969
  21040025.657    -2969181.334 7  -2254527.44822        20.500           1.688
 91  6  6 19  8 44.9970000  0  4G19G11G 2G 6
  21172926.110      671170.686 6    496480.32421        16.250           1.344
  23280587.478     2072090.233 5   1582127.53321        11.750           0.563
  20027072.399     -732125.391 7   -537678.09723        27.500           3.031
  21033145.040    -3005350.869 7  -2282711.48822        21.500           1.719
 91  6  6 19  8 59.9970000  0  4G19G11G 2G 6
  21176618.470      690539.298 6    511572.70121        16.000           1.281
  23286322.110     2102233.895 5   1605616.06721        11.000           0.563
  20023566.259     -750552.838 7   -552037.14323        27.500           3.094
  21026264.399    -3041493.284 7  -2310874.40322        20.750           1.688
 91  6  6 19  9 14.9970000  0  4G19G11G 2G 6
  21180311.446      709970.572 6    526713.90221        16.750           1.281
  23292078.431     2132477.859 5   1629182.75621        10.750           0.469
  20020072.798     -768911.642 7   -566342.70423        27.250           3.063
  21019393.384    -3077611.287 7  -2339018.30222        21.250           1.750
 91  6  6 19  9 29.9970000  0  4G19G11G 2G 6
  21184025.431      729473.142 6    541910.66921        15.500           1.219
  23297857.884     2162830.307 5   1652833.98721        11.750           0.438
  20016593.634     -787193.215 7   -580588.07823        27.500           3.094
  21012524.149    -3113695.906 7  -2367136.17022        20.500           1.688
 91  6  6 19  9 44.9970000  0  4G19G11G 2G 6
  21187746.181      749036.093 6    557154.48121        16.750           1.313
  23303651.610     2193279.889 5   1676560.89021        11.250           0.531
  20013127.915     -805408.409 7   -594781.73223        27.250           2.969
  21005664.970    -3149757.970 7  -2395236.47922        21.250           1.750
 91  6  6 19  9 59.9970000  0  4G19G11G 2G 6
  21191479.282      768661.491 6    572446.95721        15.250           1.219
  23309465.649     2223828.359 6   1700364.82421        12.750           0.406
  20009673.212     -823555.372 7   -608922.21623        27.250           2.969
  20998803.517    -3185795.404 7  -2423317.59122        20.750           1.750
 91  6  6 19 10 14.9970000  0  4G19G11G 2G 6
  21195228.204      788348.765 6    587787.64821        16.750           1.313
  23315293.571     2254474.714 5   1724245.10921        11.750           0.375
  20006235.063     -841634.860 7   -623010.12523        27.500           3.094
  20991954.337    -3221808.611 7  -2451379.82922        20.500           1.750
 91  6  6 19 10 29.9970000  0  4G19G11G 2G 6
  21198984.696      808100.363 6    603178.45621        16.000           1.219
  23321147.196     2285221.170 5   1748203.34121        11.250           0.375
  20002804.946     -859644.341 7   -637043.48023        27.250           3.000
  20985103.782    -3257795.097 7  -2479421.23622        21.000           1.844
 91  6  6 19 10 44.9970000  0  4G19G11G 2G 6
  21202755.204      827916.123 6    618619.26121        15.750           1.219
  23327016.118     2316067.327 6   1772239.27421        12.000           0.406
  19999395.267     -877583.949 7   -651022.38923        27.750           3.000
  20978260.228    -3293754.900 7  -2507441.85722        20.500           1.750
 91  6  6 19 10 59.9970000  0  4G19G11G 2G 6
  21206539.329      847795.525 6    634109.66021        16.250           1.219
  23332902.017     2347012.134 6   1796352.07721        12.250           0.500
  19995994.821     -895454.511 7   -664947.50123        27.250           2.969
  20971423.071    -3329688.163 7  -2535441.79422        20.500           1.719
 91  6  6 19 11 14.9970000  0  4G19G11G 2G 6
  21210335.946      867742.099 6    649652.39721        16.500           1.188
  23338812.353     2378058.875 6   1820544.28821        12.750           0.531
  19992602.165     -913252.411 7   -678815.99223        26.750           3.063
  20964591.665    -3365591.420 7  -2563418.35122        20.500           1.688
 91  6  6 19 11 29.9970000  0  4G19G11G 2G 6
  21214139.626      887748.239 6    665241.55321        16.000           1.219
  23344736.446     2409199.640 6   1844809.81021        12.500           0.375
  19989231.907     -930985.227 7   -692633.77023        27.500           2.906
  20957762.134    -3401472.194 7  -2591377.39522        20.500           1.750
 91  6  6 19 11 44.9970000  0  4G19G11G 2G 6
  21217962.517      907818.313 6    680880.51621        16.250           1.281
  23350682.985     2440438.507 6   1869151.76921        12.000           0.406
  19985871.267     -948648.712 7   -706397.52423        27.250           3.000
  20950939.399    -3437325.774 7  -2619315.24322        20.750           1.781
 91  6  6 19 11 59.9970000  0  4G19G11G 2G 6
  21221794.790      927951.725 6    696568.84821        15.500           1.313
  23356644.298     2471774.355 5   1893569.28721        11.750           0.281
  19982519.368     -966243.547 7   -720107.77823        27.000           3.031
  20944122.485    -3473152.667 7  -2647232.29622        21.250           1.813
 91  6  6 19 12 14.9970000  0  4G19G11G 2G 6
  21225639.368      948149.327 6    712307.18521        17.250           1.156
  23362630.938     2503207.965 5   1918062.95221        10.250           0.188
  19979186.603     -983768.752 7   -733763.77623        27.250           3.031
  20937307.993    -3508951.891 7  -2675127.78722        20.500           1.813
 91  6  6 19 12 29.9970000  0  4G19G11G 2G 6
  21229495.087      968409.558 6    728094.33021        16.250           1.219
  23368630.368     2534737.268 5   1942631.16721        10.500           0.219
  19975863.298    -1001226.246 7   -747367.01823        27.000           3.031
  20930502.657    -3544725.041 7  -2703002.96622        20.500           1.781
 91  6  6 19 12 44.9970000  0  4G19G11G 2G 6
  21233356.267      988734.689 6    743932.04221        16.000           1.156
  23374647.774     2566364.049 5   1967275.42621         8.750           0.188
  19972554.657    -1018614.011 7   -760915.92623        27.750           3.063
  20923703.032    -3580469.627 7  -2730855.88622        21.500           1.844
 91  6  6 19 12 59.9970000  0  4G19G11G 2G 6
  21237239.454     1009122.649 6    759818.71221        15.500           1.188
  23380680.048     2598085.960 4   1991993.72221         7.000           0.125
  19969256.657    -1035934.108 7   -774412.10223        27.500           3.000
  20916904.579    -3616187.697 7  -2758688.13622        21.250           1.750
 91  6  6 19 13 14.9970000  0  4G19G11G 2G 6
  21241128.509     1029573.033 6    775754.01921        16.000           1.188
  23386736.892     2629902.334 4   2016785.64721         7.000           0.094
  19965977.470    -1053186.925 8   -787855.85423        28.250           3.125
  20910112.212    -3651879.464 7  -2786499.89822        20.750           1.844
 91  6  6 19 13 29.9970000  0  4G19G11G 2G 6
  21245032.751     1050084.271 6    791736.75321        16.000           1.188
  23392806.821     2661811.194 3                         5.750
  19962702.821    -1070374.127 7   -801248.47823        27.750           3.063
  20903326.095    -3687546.173 7  -2814292.13622        21.500           1.781
 91  6  6 19 13 44.9970000  0  4G19G11G 2G 6
  21248947.978     1070663.686 6    807772.60621        15.750           1.156
  23398901.626     2693819.606 2                         4.500
  19959447.962    -1087488.373 8   -814584.25723        28.000           3.063
  20896544.899    -3723180.301 7  -2842058.98022        21.500           1.844
 91  6  6 19 13 59.9970000  0  3G19G 2G 6
  21252879.196     1091307.895 6    823858.95121        15.500           1.156
  19956204.798    -1104532.984 7   -827865.76623        27.750           3.094
  20889770.649    -3758785.360 7  -2869803.17922        22.750           1.813
 91  6  6 19 14 14.9970000  0  3G19G 2G 6
  21256817.009     1112016.013 6    839995.08921        16.000           1.219
  19952974.517    -1121509.077 7   -841093.89223        27.750           3.063
  20882999.837    -3794361.919 7  -2897525.16322        22.000           1.781
 91  6  6 19 14 29.9970000  0  3G19G 2G 6
  21260771.540     1132787.663 6    856180.74221        15.500           1.156
  19949756.735    -1138416.954 8   -854268.85923        28.000           3.063
  20876230.274    -3829910.223 7  -2925225.13322        21.500           1.875
 91  6  6 19 14 44.9970000  0  3G19G 2G 6
  21264737.274     1153622.391 6    872415.54721        16.000           1.219
  19946552.282    -1155257.162 7   -867391.10023        27.750           3.063
  20869475.509    -3865430.710 7  -2952903.43122        22.250           1.844
 91  6  6 19 14 59.9970000  0  3G19G 2G 6
  21268711.220     1174519.990 6    888699.33421        14.750           1.156
  19943361.813    -1172029.882 8   -880460.74323        28.250           3.063
  20862718.446    -3900923.181 7  -2980559.89022        21.500           1.813
 91  6  6 19 15 14.9970000  0  3G19G 2G 6
  21272702.196     1195480.862 6    905032.42721        15.750           1.219
  19940182.243    -1188734.962 8   -893477.69023        28.250           3.063
  20855970.306    -3936387.325 7  -3008194.28322        21.250           1.906
 91  6  6 19 15 29.9970000  0  3G19G 2G 6
  21276704.649     1216508.603 6    921417.62721        15.000           1.094
  19937020.220    -1205368.927 8   -906439.22023        28.250           3.031
  20849231.274    -3971819.471 7  -3035803.73722        21.750           1.719
 91  6  6 19 15 44.9970000  0  3G19G 2G 6
  21280718.103     1237600.188 6    937852.58521        16.250           1.281
  19933864.626    -1221934.794 8   -919347.68423        28.000           3.031
  20842492.704    -4007222.310 7  -3063390.35122        21.750           1.844
 91  6  6 19 15 59.9970000  0  3G19G 2G 6
  21284738.954     1258753.899 6    954335.94321        15.000           1.125
  19930725.407    -1238434.212 8   -932204.37323        28.250           3.063
  20835757.540    -4042597.313 7  -3090955.27822        21.500           1.938
 91  6  6 19 16 14.9970000  0  3G19G 2G 6
  21288779.228     1279969.552 6    970867.55721        15.750           1.125
  19927599.688    -1254867.534 8   -945009.56123        28.500           2.969
  20829031.446    -4077944.650 7  -3118498.64722        21.500           1.781
 91  6  6 19 16 29.9970000  0  3G19G 2G 6
  21292831.376     1301249.816 6    987449.52721        14.500           1.156
  19924485.384    -1271232.168 8   -957761.22223        28.750           3.031
  20822315.806    -4113261.286 7  -3146018.09822        21.500           1.938
 91  6  6 19 16 44.9970000  0  3G19G 2G 6
  21296892.274     1322589.945 6   1004078.13621        15.500           1.125
  19921383.149    -1287532.635 8   -970462.88423        28.500           3.000
  20815598.548    -4148551.951 7  -3173517.30922        22.000           1.906
 91  6  6 19 16 59.9970000  0  3G19G 2G 6
  21300961.743     1343996.117 6   1020758.20621        14.500           1.063
  19918296.110    -1303763.009 8   -983109.92823        28.500           2.969
  20808890.595    -4183810.273 7  -3200991.31622        22.250           1.813
 91  6  6 19 17 14.9970000  0  3G19G 2G 6
  21305050.845     1365466.741 6   1037488.50721        16.000           1.063
  19915218.251    -1319924.954 8   -995703.65023        28.500           3.063
  20802179.946    -4219037.808 7  -3228441.33522        21.000           1.875
 91  6  6 19 17 29.9970000  0  3G19G 2G 6
  21309146.313     1386999.712 6   1054267.39321        15.000           1.031
  19912154.126    -1336020.523 8  -1008245.65323        28.250           2.969
  20795482.985    -4254236.242 7  -3255868.68122        21.500           1.875
 91  6  6 19 17 44.9970000  0  3G19G 2G 6
  21313256.954     1408596.712 6   1071096.17321        15.750           1.094
  19909104.407    -1352048.157 8  -1020734.71723        28.250           2.938
  20788795.728    -4289403.894 7  -3283272.03322        21.750           1.875
 91  6  6 19 17 59.9970000  0  3G19G 2G 6
  21317372.735     1430255.133 6   1087972.80221        14.500           1.156
  19906067.548    -1368010.550 8  -1033172.94623        28.750           3.000
  20782107.688    -4324543.313 7  -3310653.39522        22.000           2.000
 91  6  6 19 18 14.9970000  0  3G19G 2G 6
  21321510.845     1451979.317 6   1104900.66821        15.000           1.156
  19903044.071    -1383903.573 8  -1045557.12023        28.500           3.125
  20775428.235    -4359649.850 7  -3338009.12822        22.000           1.969
 91  6  6 19 18 29.9970000  0  3G19G 2G 6
  21325657.173     1473767.229 6   1121878.20221        14.750           1.094
  19900031.282    -1399729.201 8  -1057888.77723        28.250           3.031
  20768751.853    -4394725.377 7  -3365340.70122        22.000           1.969
 91  6  6 19 18 44.9970000  0  3G19G 2G 6
  21329814.337     1495618.247 6   1138904.91021        14.500           1.219
  19897033.751    -1415487.943 8  -1070168.31123        28.500           3.000
  20762084.142    -4429770.429 7  -3392648.52322        22.500           1.906
 91  6  6 19 18 59.9970000  0  3G19G 2G 6
  21333991.040     1517530.937 6   1155979.68821        14.500           1.063
  19894045.634    -1431181.481 8  -1082397.03823        28.000           3.031
  20755418.259    -4464786.260 7  -3419933.56922        22.250           1.906
 91  6  6 19 19 14.9970000  0  3G19G 2G 6
  21338167.438     1539508.235 6   1173104.78621        15.500           1.031
  19891072.048    -1446806.999 8  -1094572.76523        28.000           3.031
  20748763.517    -4499769.815 7  -3447193.48122        22.000           2.000
 91  6  6 19 19 29.9970000  0  3G19G 2G 6
  21342363.892     1561548.168 6   1190278.70321        14.000           1.094
  19888112.399    -1462366.190 8  -1106696.80923        28.000           3.094
  20742112.985    -4534722.715 7  -3474429.50222        22.750           2.063
 91  6  6 19 19 44.9970000  0  3G19G 2G 6
  21346568.665     1583652.159 6   1207502.53121        15.250           0.969
  19885163.688    -1477857.815 8  -1118768.20123        28.000           2.969
  20735469.657    -4569643.452 7  -3501640.45422        22.750           1.938
 91  6  6 19 19 59.9970000  0  3G19G 2G 6
  21350787.173     1605823.592 6   1224778.91321        14.000           1.063
  19882229.048    -1493278.790 7  -1130784.53723        27.750           3.063
  20728829.423    -4604528.672 7  -3528823.73322        22.750           2.031
 91  6  6 19 20 14.9970000  0  3G19G 2G 6
  21355018.423     1628057.870 6   1242104.26721        15.250           1.063
  19879307.524    -1508633.700 7  -1142749.41223        27.750           2.969
  20722195.954    -4639382.634 7  -3555982.65422        22.500           2.000
 91  6  6 19 20 29.9970000  0  3G19G 2G 6
  21359260.454     1650354.981 6   1259478.57021        14.500           1.063
  19876397.142    -1523922.664 8  -1154662.88923        28.000           3.063
  20715567.431    -4674205.229 7  -3583117.13722        22.000           2.031
 91  6  6 19 20 44.9970000  0  3G19G 2G 6
  21363512.571     1672716.806 6   1276903.30621        14.750           1.063
  19873500.079    -1539143.735 7  -1166523.46223        27.750           3.031
  20708948.704    -4708994.472 7  -3610225.62922        22.500           2.063
 91  6  6 19 20 59.9970000  0  3G19G 2G 6
  21367784.173     1695140.930 6   1294376.59121        14.750           1.063
  19870615.712    -1554299.382 7  -1178333.05323        27.500           3.125
  20702334.868    -4743752.420 7  -3637309.73922        22.750           2.031
 91  6  6 19 21 14.9970000  0  3G19G 2G 6
  21372060.759     1717630.705 6   1311901.03121        14.750           1.031
  19867746.415    -1569386.380 8  -1190089.15423        28.000           3.125
  20695724.524    -4778475.625 7  -3664366.77322        22.000           2.063
 91  6  6 19 21 29.9970000  0  3G19G 2G 6
  21376354.728     1740184.558 6   1329475.40421        13.500           0.969
  19864888.431    -1584406.355 8  -1201793.03123        28.000           3.000
  20689126.415    -4813165.457 7  -3691397.80422        22.750           2.031
 91  6  6 19 21 44.9970000  0  3G19G 2G 6
  21380662.017     1762802.458 6   1347099.68021        15.250           1.094
  19862039.931    -1599359.471 8  -1213444.80323        28.000           3.094
  20682530.376    -4847821.994 7  -3718402.89422        22.000           2.125
 91  6  6 19 21 59.9970000  0  3G19G 2G 6
  21384980.743     1785484.370 6   1364773.84121        14.000           0.938
  19859210.509    -1614245.770 8  -1225044.51423        28.750           3.031
  20675939.329    -4882444.862 7  -3745381.74722        21.500           2.125
 91  6  6 19 22 14.9970000  0  3G19G 2G 6
  21389306.509     1808232.353 6   1382499.48421        14.750           1.063
  19856390.517    -1629062.927 8  -1236590.34423        28.250           3.063
  20669361.001    -4917031.865 7  -3772332.65322        22.500           2.063
 91  6  6 19 22 29.9970000  0  3G19G 2G 6
  21393651.048     1831044.006 6   1400274.73221        13.750           1.000
  19853583.790    -1643813.421 8  -1248084.23523        28.500           3.063
  20662786.681    -4951585.077 7  -3799257.23222        23.250           2.125
 91  6  6 19 22 44.9970000  0  3G19G 2G 6
  21397998.884     1853918.624 6   1418099.05021        14.750           0.938
  19850787.282    -1658498.355 8  -1259527.03723        28.000           3.063
  20656216.556    -4986105.134 7  -3826155.97322        22.500           2.125
 91  6  6 19 22 59.9970000  0  3G19G 2G 6
  21402365.110     1876854.953 6   1435971.45621        14.500           1.031
  19848006.993    -1673118.915 8  -1270919.67823        28.750           3.094
  20649652.642    -5020593.232 7  -3853029.80422        22.750           2.094
 91  6  6 19 23 14.9970000  0  3G19G 2G 6
  21406744.813     1899855.387 6   1453893.81121        15.000           0.906
  19845236.938    -1687672.598 8  -1282260.20523        28.500           3.125
  20643097.110    -5055046.631 7  -3879876.60722        23.000           2.094
 91  6  6 19 23 29.9970000  0  3G19G 2G 6
  21411129.040     1922921.123 6   1471867.05621        14.500           0.969
  19842481.001    -1702158.648 8  -1293548.04023        28.500           3.094
  20636548.353    -5089464.196 7  -3906695.48622        23.000           2.031
 91  6  6 19 23 44.9970000  0  3G19G 2G 6
  21415529.329     1946050.656 6   1489890.01121        14.000           1.063
  19839738.063    -1716578.548 8  -1304784.31723        29.000           3.063
  20630004.774    -5123847.286 7  -3933487.50422        22.750           2.156
 91  6  6 19 23 59.9970000  0  3G19G 2G 6
  21419948.306     1969241.981 6   1507961.10521        14.500           1.094
  19837006.024    -1730934.166 8  -1315970.51023        29.000           3.063
  20623465.337    -5158197.457 7  -3960253.86722        22.500           2.094
 91  6  6 19 24 14.9970000  0  3G19G 2G 6
  21424373.603     1992501.018 6   1526084.96621        15.250           0.938
  19834287.157    -1745219.567 8  -1327101.98723        28.250           2.969
  20616939.282    -5192508.601 7  -3986989.81922        23.000           2.094
 91  6  6 19 24 29.9970000  0  3G19G 2G 6
  21428810.587     2015824.721 6   1544259.23521        14.500           0.906
  19831580.454    -1759437.831 8  -1338181.14923        28.000           3.063
  20610416.493    -5226783.576 7  -4013697.58122        23.250           2.188
 91  6  6 19 24 44.9970000  0  3G19G 2G 6
  21433261.657     2039208.230 6   1562480.09021        15.000           1.000
  19828885.946    -1773594.060 7  -1349211.97223        27.750           3.094
  20603901.079    -5261027.092 7  -4040380.83222        23.250           2.094
 91  6  6 19 24 59.9970000  0  3G19G 2G 6
  21437719.649     2062654.075 6   1580749.50921        14.750           1.000
  19826203.837    -1787685.580 8  -1360192.36823        28.000           3.094
  20597390.407    -5295236.341 7  -4067037.38222        22.750           2.281
 91  6  6 19 25 14.9970000  0  3G19G 2G 6
  21442194.126     2086163.576 6   1599068.54821        14.750           0.906
  19823538.649    -1801711.131 8  -1371121.37223        28.250           3.125
  20590889.134    -5329409.887 7  -4093666.11322        23.250           2.250
 91  6  6 19 25 29.9970000  0  3G19G 2G 6
  21446681.017     2109735.930 6   1617436.54821        14.500           0.938
  19820879.118    -1815671.504 8  -1381999.57923        28.000           3.094
  20584392.368    -5363548.357 7  -4120267.50722        23.500           2.063
 91  6  6 19 25 44.9970000  0  3G19G 2G 6
  21451175.259     2133369.841 6   1635852.52821        14.250           0.938
  19818239.462    -1829568.118 8  -1392828.10523        28.500           3.094
  20577903.290    -5397652.853 7  -4146842.43122        23.500           2.250
 91  6  6 19 25 59.9970000  0  3G19G 2G 6
  21455683.642     2157070.479 6   1654320.49221        14.000           1.031
  19815606.829    -1843395.926 8  -1403603.01823        28.250           3.188
  20571419.181    -5431717.968 7  -4173386.66522        23.750           2.156
 91  6  6 19 26 14.9970000  0  3G19G 2G 6
  21460212.235     2180834.641 6   1672837.95721        14.000           0.938
  19812986.118    -1857158.218 8  -1414326.87823        28.500           3.125
  20564944.384    -5465746.763 7  -4199902.60422        23.750           2.031
 91  6  6 19 26 29.9970000  0  3G19G 2G 6
  21464744.212     2204658.027 6   1691401.56321        14.000           0.938
  19810376.728    -1870859.207 8  -1425002.96523        28.250           3.094
  20558476.907    -5499743.310 7  -4226393.40822        23.500           2.125
 91  6  6 19 26 44.9970000  0  3G19G 2G 6
  21469291.806     2228547.162 6   1710016.41121        14.750           0.906
  19807786.392    -1884492.348 8  -1435626.19323        28.500           3.125
  20552015.306    -5533700.855 7  -4252853.81822        23.750           2.156
 91  6  6 19 26 59.9970000  0  3G19G 2G 6
  21473845.759     2252496.711 6   1728678.33421        14.250           0.969
  19805201.493    -1898063.227 8  -1446200.90223        28.000           3.156
  20545557.470    -5567624.490 7  -4279287.81122        23.750           2.156
 91  6  6 19 27 14.9970000  0  3G19G 2G 6
  21478418.353     2276503.964 6   1747385.22421        15.250           0.844
  19802633.056    -1911574.356 8  -1456729.05423        28.500           3.125
  20539105.173    -5601516.740 7  -4305697.33822        22.750           2.125
 91  6  6 19 27 29.9970000  0  3G19G 2G 6
  21482995.610     2300571.912 6   1766139.40721        13.500           0.906
  19800073.157    -1925023.016 8  -1467208.52723        28.250           3.125
  20532668.188    -5635374.573 7  -4332080.06022        24.000           2.188
 91  6  6 19 27 44.9970000  0  3G19G 2G 6
  21487589.743     2324703.658 6   1784943.29821        15.000           0.875
  19797522.954    -1938406.178 7  -1477636.96123        27.500           3.125
  20526230.876    -5669194.614 7  -4358433.32522        24.000           2.250
 91  6  6 19 27 59.9970000  0  3G19G 2G 6
  21492192.821     2348897.135 6   1803795.29721        13.500           0.938
  19794988.720    -1951725.821 7  -1488015.90623        27.750           3.219
  20519800.603    -5702978.817 7  -4384758.67522        24.000           2.250
 91  6  6 19 28 14.9970000  0  3G19G 2G 6
  21496808.243     2373151.267 6   1822694.54821        14.250           0.906
  19792468.228    -1964983.123 8  -1498346.27623        28.250           3.156
  20513378.181    -5736727.996 7  -4411056.72322        23.750           2.156
 91  6  6 19 28 29.9970000  0  3G19G 2G 6
  21501433.048     2397465.412 6   1841640.57821        14.500           0.969
  19789956.923    -1978178.974 8  -1508628.76223        28.500           3.031
  20506961.126    -5770442.651 7  -4437327.87522        23.250           2.125
 91  6  6 19 28 44.9970000  0  3G19G 2G 6
  21506073.368     2421841.162 6   1860634.60821        14.750           0.969
  19787457.618    -1991311.519 8  -1518861.91223        28.000           3.156
  20500555.228    -5804120.887 7  -4463570.64422        23.750           2.188
 91  6  6 19 28 59.9970000  0  3G19G 2G 6
  21510721.821     2446278.539 6   1879676.65221        13.500           0.844
  19784969.774    -2004381.017 8  -1529045.93623        28.000           3.031
  20494152.376    -5837762.397 7  -4489784.81022        23.500           2.125
 91  6  6 19 29 14.9970000  0  3G19G 2G 6
  21515384.149     2470780.966 6   1898769.39021        14.000           0.906
  19782495.845    -2017384.223 8  -1539178.30823        28.250           3.156
  20487757.431    -5871363.766 7  -4515967.68122        23.250           2.094
 91  6  6 19 29 29.9970000  0  3G19G 2G 6
  21520062.985     2495345.310 6   1917910.37821        13.750           0.906
  19780031.126    -2030323.850 7  -1549261.13523        27.750           3.094
  20481369.767    -5904927.593 7  -4542121.31322        23.250           2.250
 91  6  6 19 29 44.9970000  0  3G19G 2G 6
  21524747.204     2519973.300 6   1937100.94421        14.250           0.906
  19777582.595    -2043198.361 7  -1559293.22323        27.750           3.094
  20474990.751    -5938452.108 7  -4568244.30922        23.250           2.250
 91  6  6 19 29 59.9970000  0  3G19G 2G 6
  21529446.626     2544665.069 6   1956341.22921        14.000           0.906
  19775146.243    -2056007.586 7  -1569274.43723        27.750           3.094
  20468618.392    -5971936.984 7  -4594336.41422        23.750           2.156
 91  6  6 19 30 14.9970000  0  3G19G 2G 6
  21534156.134     2569418.142 6   1975629.27221        14.000           0.938
  19772718.806    -2068754.003 7  -1579206.71223        27.750           3.094
  20462256.149    -6005384.450 7  -4620399.36522        23.750           2.281
 91  6  6 19 30 29.9970000  0  3G19G 2G 6
  21538881.657     2594236.222 6   1994967.97321        13.000           0.906
  19770308.985    -2081434.263 8  -1589087.43623        28.250           3.125
  20455895.720    -6038790.691 7  -4646430.19722        23.750           2.281
 91  6  6 19 30 44.9970000  0  3G19G 2G 6
  21543612.243     2619120.709 6   2014358.40821        13.750           0.844
  19767907.563    -2094046.985 7  -1598915.53323        27.750           2.969
  20449550.962    -6072154.143 7  -4672427.69022        24.250           2.281
 91  6  6 19 30 59.9970000  0  3G19G 2G 6
  21548363.759     2644065.043 6   2033795.49321        14.000           0.906
  19765516.915    -2106598.599 7  -1608696.01023        27.750           3.063
  20443205.353    -6105480.976 7  -4698396.64422        23.250           2.250
 91  6  6 19 31 14.9970000  0  3G19G 2G 6
  21553119.938     2669074.069 6   2053282.98121        14.250           0.813
  19763143.313    -2119084.385 8  -1618425.19823        28.000           3.031
  20436873.985    -6138766.193 7  -4724333.16722        24.000           2.281
 91  6  6 19 31 29.9970000  0  3G19G 2G 6
  21557897.087     2694148.236 6   2072821.22821        13.000           0.813
  19760778.563    -2131503.664 7  -1628102.55423        27.750           3.000
  20430544.642    -6172009.084 7  -4750236.71422        23.500           2.281
 91  6  6 19 31 44.9970000  0  3G19G 2G 6
  21562670.907     2719285.018 6   2092408.27421        13.750           0.781
  19758429.204    -2143859.048 8  -1637730.13423        28.000           3.094
  20424230.595    -6205211.904 7  -4776109.04422        24.000           2.219
 91  6  6 19 31 59.9970000  0  3G19G 2G 6
  21567470.743     2744481.733 6   2112042.01821        13.000           0.813
  19756089.126    -2156153.289 8  -1647310.06123        28.000           2.969
  20417918.743    -6238377.134 7  -4801952.07322        24.250           2.313
 91  6  6 19 32 14.9970000  0  3G19G 2G 6
  21572275.407     2769739.179 6   2131723.07421        13.750           0.875
  19753762.563    -2168385.823 8  -1656841.90823        28.000           3.063
  20411614.860    -6271503.981 7  -4827765.19822        24.000           2.344
 91  6  6 19 32 29.9970000  0  3G19G 2G 6
  21577096.478     2795060.159 6   2151453.64821        13.000           0.813
  19751445.024    -2180553.851 7  -1666323.48723        27.750           3.031
  20405317.251    -6304589.277 7  -4853545.93522        23.750           2.250
 91  6  6 19 32 44.9970000  0  3G19G 2G 6
  21581928.290     2820444.107 6   2171233.27721        14.750           1.000
  19749143.399    -2192657.912 8  -1675755.22123        28.250           3.000
  20399027.446    -6337633.408 7  -4879294.60222        23.000           2.344
 91  6  6 19 32 59.9970000  0  3G19G 2G 6
  21586764.868     2845895.231 6   2191065.25721        13.000           0.938
  19746851.774    -2204693.857 8  -1685133.87523        28.000           2.969
  20392750.571    -6370631.902 7  -4905007.70722        23.500           2.313
 91  6  6 19 33 14.9970000  0  3G19G 2G 6
  21591625.688     2871407.203 6   2210944.65821        13.750           0.844
  19744573.360    -2216668.035 8  -1694464.40223        28.000           3.063
  20386474.774    -6403590.844 7  -4930689.99522        23.500           2.313
 91  6  6 19 33 29.9970000  0  3G19G 2G 6
  21596488.235     2896980.699 6   2230871.98521        13.250           0.875
  19742305.587    -2228579.829 8  -1703746.31923        28.000           3.094
  20380213.517    -6436509.410 7  -4956340.81522        23.750           2.188
 91  6  6 19 33 44.9970000  0  3G19G 2G 6
  21601363.876     2922616.506 6   2250847.85921        13.500           0.844
  19740051.587    -2240428.415 8  -1712978.97823        28.000           3.000
  20373956.603    -6469386.502 7  -4981959.32222        23.750           2.344
 91  6  6 19 33 59.9970000  0  3G19G 2G 6
  21606260.134     2948313.320 6   2270871.29021        12.250           0.813
  19737810.149    -2252215.015 8  -1722163.34423        28.000           3.125
  20367707.970    -6502223.286 7  -5007546.42322        23.500           2.344
 91  6  6 19 34 14.9970000  0  3G19G 2G 6
  21611158.431     2974069.254 6   2290940.77821        13.250           0.781
  19735575.571    -2263941.737 8  -1731301.04623        28.000           3.000
  20361470.024    -6535021.272 7  -5033103.29022        23.500           2.281
 91  6  6 19 34 29.9970000  0  3G19G 2G 6
  21616078.665     2999887.680 6   2311058.96521        12.500           0.844
  19733356.110    -2275604.991 7  -1740389.28923        27.500           3.000
  20355233.485    -6567776.903 7  -5058627.14822        23.500           2.281
 91  6  6 19 34 44.9970000  0  3G19G 2G 6
  21620995.743     3025770.308 6   2331227.17021        12.750           0.781
  19731152.673    -2287203.425 8  -1749427.03023        28.250           3.031
  20349012.079    -6600488.372 7  -5084116.59722        23.500           2.250
 91  6  6 19 34 59.9970000  0  3G19G 2G 6
  21625936.298     3051713.954 6   2351442.93421        12.250           0.781
  19728958.634    -2298740.169 8  -1758416.69323        28.500           3.156
  20342793.884    -6633158.572 7  -5109573.88522        24.000           2.375
 91  6  6 19 35 14.9970000  0  3G19G 2G 6
  21630881.556     3077717.358 6   2371705.25721        13.250           0.750
  19726769.188    -2310216.595 8  -1767359.36023        28.000           3.063
  20336583.767    -6665788.517 7  -5134999.81022        23.750           2.375
 91  6  6 19 35 29.9970000  0  3G19G 2G 6
  21635844.782     3103781.493 6   2392014.91221        12.500           0.750
  19724601.056    -2321631.600 8  -1776254.16323        28.250           3.063
  20330382.610    -6698376.923 7  -5160393.36222        24.500           2.313
 91  6  6 19 35 44.9970000  0  3G19G 2G 6
  21640814.368     3129903.882 6   2412369.95121        13.500           0.750
  19722440.056    -2332987.717 8  -1785103.08423        28.250           2.969
  20324188.345    -6730926.008 7  -5185756.27622        23.750           2.344
 91  6  6 19 35 59.9970000  0  3G19G 2G 6
  21645796.392     3156087.642 6   2432772.80921        12.750           0.719
  19720288.134    -2344282.075 8  -1793903.88023        28.250           2.969
  20318000.243    -6763432.700 7  -5211086.15522        23.250           2.438
 91  6  6 19 36 14.9970000  0  3G19G 2G 6
  21650789.688     3182332.946 6   2453223.62321        13.000           0.813
  19718153.204    -2355514.300 8  -1802656.25723        28.500           3.094
  20311826.017    -6795896.451 7  -5236382.57322        23.500           2.344
 91  6  6 19 36 29.9970000  0  3G19G 2G 6
  21655798.438     3208641.811 6   2473723.96621        12.750           0.844
  19716028.118    -2366682.385 8  -1811358.66123        28.000           3.031
  20305659.728    -6828314.862 7  -5261643.66322        24.250           2.344
 91  6  6 19 36 44.9970000  0  3G19G 2G 6
  21660814.509     3235014.004 6   2494273.65021        13.500           0.813
  19713912.915    -2377786.615 8  -1820011.30423        28.000           3.000
  20299494.681    -6860688.049 7  -5286869.51922        23.000           2.344
 91  6  6 19 36 59.9970000  0  3G19G 2G 6
  21665846.345     3261443.266 6   2514867.80521        13.250           0.688
  19711808.056    -2388833.356 7  -1828619.15023        27.500           2.938
  20293340.603    -6893021.893 7  -5312064.70522        23.250           2.438
 91  6  6 19 37 14.9960000  0  3G19G 2G 6
  21670889.012     3287931.786 6   2535508.15021        13.000           0.656
  19709721.316    -2399817.651 8  -1837178.34423        28.000           3.063
  20287199.856    -6925310.117 7  -5337224.36322        23.750           2.469
 91  6  6 19 37 29.9960000  0  3G19G 2G 6
  21675941.981     3314480.988 6   2556195.75721        12.500           0.688
  19707645.090    -2410743.247 8  -1845691.79523        28.250           3.000
  20281058.887    -6957559.053 7  -5362353.39623        23.000           2.500
 91  6  6 19 37 44.9960000  0  4G19G15G 2G 6
  21680999.754     3341090.990 6   2576930.75521        12.250           0.781
  23246555.746          -0.89315                         7.750
  19705576.949    -2421607.562 8  -1854157.48923        28.250           3.031
  20274932.793    -6989764.295 7  -5387448.38322        23.250           2.375
 91  6  6 19 37 59.9960000  0  4G19G15G 2G 6
  21686078.637     3367762.983 5   2597714.05921        11.750           0.813
  23240162.566      -33598.320 5                         8.250
  19703517.957    -2432409.748 8  -1862574.77723        28.000           3.094
  20268810.645    -7021924.478 7  -5412508.25822        23.000           2.313
 91  6  6 19 38 14.9960000  0  4G19G15G 2G 6
  21691163.254     3394497.135 6   2618545.78721        12.250           0.750
  23233788.316      -67102.889 5                         8.750
  19701475.254    -2443149.488 8  -1870943.40223        28.000           3.156
  20262701.895    -7054039.133 7  -5437532.66422        23.000           2.406
 91  6  6 19 38 29.9960000  0  5G19G15G 2G13G 6
  21696259.176     3421291.957 6   2639424.79921        12.000           0.750
  23227428.441     -100515.620 5                         9.250
  19699444.465    -2453828.270 7  -1879264.52823        27.750           3.000
  23065252.152      -69506.363 4                         7.000
  20256597.598    -7086109.473 7  -5462522.52622        23.250           2.344
 91  6  6 19 38 44.9960000  0  5G19G15G 2G13G 6
  21701374.160     3448149.071 6   2660352.33921        13.000           0.656
  23221086.418     -133834.824 5                         9.000
  19697423.152    -2464444.593 7  -1887536.98323        27.750           3.156
  23052027.363     -138985.721 4                         6.750
  20250505.777    -7118133.782 7  -5487476.52122        23.250           2.375
 91  6  6 19 38 59.9960000  0  5G19G15G 2G13G 6
  21706499.113     3475069.261 6   2681329.04121        12.000           0.750
  23214765.777     -167059.028 5                         8.500
  19695414.848    -2474997.370 7  -1895759.92523        27.750           3.094
  23038815.223     -208437.734 4                         7.000
  20244421.543    -7150110.845 7  -5512393.72022        23.750           2.344
 91  6  6 19 39 14.9960000  0  5G19G15G 2G13G 6
  21711633.121     3502052.370 6   2702354.75821        13.250           0.594
  23208461.277     -200188.069 5        -0.04931         8.000           0.344
  19693419.043    -2485486.812 8  -1903933.51723        28.000           3.125
  23025597.699     -277862.117 4                         6.750
  20238344.621    -7182040.637 7  -5537274.07222        23.250           2.438
 91  6  6 19 39 29.9960000  0  5G19G15G 2G13G 6
  21716778.363     3529096.535 6   2723428.07521        12.000           0.781
  23202178.441     -233223.533 5    -25741.90221         9.000           0.344
  19691432.949    -2495915.034 7  -1912059.39923        27.750           3.125
  23012401.543     -347260.119 4                         7.250
  20232277.410    -7213924.686 7  -5562118.78022        23.250           2.406
 91  6  6 19 39 44.9960000  0  5G19G15G 2G13G 6
  21721936.223     3556198.600 6   2744546.47821        12.750           0.750
  23195904.395     -266168.035 5    -51412.90821         8.750           0.281
  19689458.277    -2506285.223 7  -1920140.06423        27.000           3.156
  22999193.473     -416634.856 4        -0.42531         6.750           0.156
  20226218.731    -7245766.089 7  -5586930.24822        23.500           2.469
 91  6  6 19 39 59.9960000  0  5G19G15G 2G13G 6
  21727103.020     3583360.572 6   2765711.58821        12.000           0.688
  23189655.238     -299019.496 5    -77011.39221         9.000           0.281
  19687500.027    -2516595.440 8  -1928174.00023        28.250           3.188
  22985995.816     -485984.009 4    -54038.42421         6.500           0.094
  20220167.402    -7277562.620 7  -5611706.75922        23.000           2.375
 91  6  6 19 40 14.9960000  0  5G19G15G 2G13G 6
  21732283.934     3610581.560 6   2786922.67621        12.250           0.688
  23183418.582     -331778.293 5   -102537.69421         9.000           0.375
  19685548.285    -2526846.312 8  -1936161.68923        28.250           2.969
  22972803.777     -555307.702 4   -108056.62821         6.750           0.156
  20214125.629    -7309314.786 7  -5636448.70323        23.000           2.500
 91  6  6 19 40 29.9960000  0  5G19G15G 2G13G 6
  21737482.231     3637864.768 6   2808182.25121        12.250           0.688
  23177202.309     -364440.581 5   -127988.79621         8.000           0.313
  19683609.027    -2537034.811 8  -1944100.77423        28.000           3.125
  22959618.941     -624602.304 4                         6.750
  20208090.598    -7341019.022 7  -5661153.29122        23.750           2.406
 91  6  6 19 40 44.9960000  0  5G19G15G 2G13G 6
  21742677.668     3665210.947 6   2829490.88521        12.000           0.688
  23171006.699     -397005.509 5   -153364.01221         8.500           0.281
  19681681.465    -2547160.286 8  -1951990.75723        28.000           3.031
  22946443.668     -693866.887 4                         6.500
  20202068.395    -7372674.668 7  -5685820.02622        24.000           2.406
 91  6  6 19 40 59.9960000  0  5G19G15G 2G13G 6
  21747894.934     3692618.679 6   2850847.48321        12.250           0.625
  23164826.996     -429473.979 5   -178664.07121         8.500           0.313
  19679767.129    -2557224.076 8  -1959832.67123        28.000           3.031
  22933261.988     -763102.284 4        -0.21031         6.250           0.125
  20196051.699    -7404282.522 7  -5710449.52322        23.500           2.375
 91  6  6 19 41 14.9960000  0  5G19G15G 2G13G 6
  21753122.512     3720086.265 6   2872250.71821        12.250           0.625
  23158666.629     -461847.455 5   -203890.12921         8.500           0.313
  19677862.645    -2567227.865 8  -1967627.82923        28.000           3.063
  22920085.856     -832309.682 4    -53927.77421         6.250           0.094
  20190046.957    -7435844.175 7  -5735043.01922        23.250           2.406
 91  6  6 19 41 29.9960000  0  5G19G15G 2G13G 6
  21758360.684     3747617.262 6   2893703.36221        12.000           0.688
  23152527.410     -494122.052 5   -229039.12021         8.750           0.281
  19675971.238    -2577168.090 7  -1975373.46323        27.750           3.094
  22906926.941     -901484.983 4   -107830.33821         6.500           0.125
  20184051.965    -7467355.743 7  -5759597.48722        23.250           2.344
 91  6  6 19 41 44.9960000  0  5G19G15G 2G13G 6
  21763609.941     3775209.646 6   2915203.85321        12.500           0.688
  23146403.113     -526299.391 5   -254112.35321         8.750           0.250
  19674092.106    -2587046.800 7  -1983071.16023        27.750           3.063
  22893768.793     -970629.828 4   -161709.19621         6.750           0.125
  20178064.043    -7498819.015 7  -5784114.32422        23.250           2.406
 91  6  6 19 41 59.9960000  0  5G19G15G 2G13G 6
  21768878.254     3802864.046 6   2936752.64921        12.500           0.656
  23140300.559     -558378.398 5   -279108.89721         9.000           0.375
  19672223.902    -2596863.590 7  -1990720.61023        27.750           3.063
  22880618.715    -1039743.397 4   -215563.67221         7.000           0.094
  20172087.606    -7530233.234 7  -5808592.92822        23.000           2.469
 91  6  6 19 42 14.9960000  0  5G19G15G 2G13G 6
  21774144.746     3830576.953 5   2958347.05021        11.750           0.594
  23134216.762     -590362.432 5   -304031.47121         9.000           0.219
  19670367.973    -2606621.927 8  -1998324.51123        28.000           3.031
  22867468.504    -1108828.712 4   -269396.12721         6.750           0.125
  20166118.043    -7561601.651 7  -5833035.84722        23.500           2.406
 91  6  6 19 42 29.9960000  0  5G19G15G 2G13G 6
  21779431.457     3858348.533 5   2979987.16721        11.500           0.656
  23128144.473     -622250.881 5   -328879.58821         9.500           0.313
  19668518.949    -2616321.620 7  -2005882.71323        27.750           3.094
  22854331.168    -1177885.050 4   -323206.05421         7.250           0.188
  20160156.848    -7592923.743 7  -5857442.67122        23.500           2.406
 91  6  6 19 42 44.9960000  0  5G19G15G 2G13G 6
  21784729.598     3886175.417 6   3001670.37921        12.500           0.594
  23122092.207     -654046.571 5   -353655.40021         9.250           0.281
  19666685.801    -2625965.929 7  -2013397.76423        27.750           3.031
  22841190.254    -1246915.431 4   -376995.71221         7.250           0.094
  20154202.535    -7624202.694 7  -5881815.88122        23.500           2.406
 91  6  6 19 42 59.9960000  0  5G19G15G 2G13G 6
  21790035.285     3914065.789 5   3023403.06221        11.500           0.781
  23116066.910     -685741.126 5   -378352.38221         9.500           0.344
  19664862.418    -2635546.776 8  -2020863.36623        28.250           3.156
  22828062.441    -1315911.126 5   -430758.38421         7.750           0.219
  20148260.051    -7655429.909 7  -5906148.77022        23.000           2.344
 91  6  6 19 43 14.9960000  0  5G19G15G 2G13G 6
  21795355.668     3942013.758 6   3045180.62021        12.250           0.625
  23110052.629     -717339.801 5   -402974.68221         9.250           0.219
  19663050.113    -2645070.049 8  -2028284.09623        28.000           3.094
  22814939.371    -1384877.831 5   -484498.48421         7.750           0.219
  20142326.215    -7686611.073 7  -5930445.77522        22.750           2.438
 91  6  6 19 43 29.9960000  0  5G19G15G 2G13G 6
  21800686.340     3970021.212 5   3067004.54421        11.750           0.656
  23104056.207     -748840.410 5   -427520.57921         9.250           0.344
  19661251.598    -2654533.770 8  -2035658.43023        28.250           3.063
  22801819.988    -1453813.194 5   -538214.17021         7.500           0.188
  20136400.621    -7717744.137 7  -5954705.30022        22.500           2.313
 91  6  6 19 43 44.9960000  0  5G19G15G 2G13G 6
  21806021.441     3998092.350 5   3088878.07621        11.750           0.719
  23098079.090     -780238.333 5   -451986.41721        10.000           0.219
  19659459.996    -2663933.781 7  -2042983.11623        27.500           3.063
  22788711.559    -1522712.471 5   -591901.70121         7.500           0.125
  20130488.113    -7748824.563 7  -5978923.80222        23.250           2.438
 91  6  6 19 43 59.9960000  0  5G19G15G 2G13G 6
  21811379.113     4026220.529 5   3110796.05221        10.750           0.719
  23092127.738     -811539.881 5   -476377.19921         9.750           0.188
  19657684.309    -2673276.718 7  -2050263.33323        27.750           3.094
  22775606.020    -1591581.854 5   -645565.98021         7.750           0.156
  20124582.238    -7779858.683 7  -6003106.23422        23.500           2.281
 91  6  6 19 44 14.9960000  0  5G19G15G 2G13G 6
  21816744.598     4054407.191 5   3132759.59821        11.750           0.656
  23086191.160     -842743.220 5   -500691.44621         9.500           0.125
  19655917.074    -2682561.221 8  -2057498.01223        28.000           3.094
  22762505.606    -1660419.498 5   -699205.53821         7.750           0.156
  20118687.270    -7810844.807 7  -6027251.25322        23.500           2.406
 91  6  6 19 44 29.9960000  0  5G19G15G 2G13G 6
  21822123.191     4082651.441 5   3154768.02821        11.500           0.656
  23080266.793     -873848.761 5   -524929.49321         9.500           0.281
  19654159.918    -2691788.135 7  -2064687.81823        27.500           3.125
  22749412.106    -1729225.698 4   -752820.54521         7.250           0.188
  20112797.613    -7841783.482 7  -6051359.30922        23.250           2.438
 91  6  6 19 44 44.9960000  0  5G19G15G 2G13G 6
  21827504.402     4110952.622 5   3176820.80621        11.500           0.813
  23074367.184     -904857.036 5                         9.500
  19652413.941    -2700958.288 7  -2071833.39523        27.250           3.094
  22736323.973    -1798000.807 5   -806411.38921         7.500           0.188
  20106920.746    -7872675.212 7                        23.500
 91  6  6 19 44 59.9960000  0  5G19G15G 2G13G 6
  21832905.887     4139315.974 5   3198922.04221        11.000           0.594
  23068486.543     -935762.453 5                        10.250
  19650683.035    -2710066.423 8  -2078930.64823        28.000           3.125
  22723245.785    -1866739.060 5   -859973.50721         7.750           0.188
  20101050.316    -7903514.600 7                        23.000
 91  6  6 19 45 14.9960000  0  5G19G15G 2G13G 6
  21838310.395     4167744.319 5   3221073.91621        11.500           0.625
  23062621.848     -966561.808 5                        10.000
  19648961.801    -2719109.617 7  -2085977.29923        27.500           3.156
  22710168.301    -1935437.213 5   -913504.35821         7.750           0.125
  20095194.996    -7934298.545 7                        23.000
 91  6  6 19 45 29.9960000  0  5G19G15G 2G13G 6
  21843732.496     4196227.502 5   3243268.51921        11.500           0.531
  23056778.035     -997264.785 5                         9.750
  19647251.356    -2728098.013 7  -2092981.24823        27.500           3.063
  22697108.020    -2004104.948 5   -967011.56621         7.750           0.188
  20089345.246    -7965036.790 7  -6147400.83122        23.750           2.313
 91  6  6 19 45 44.9960000  0  5G19G15G 2G13G 6
  21849162.402     4224768.221 5   3265507.97021        11.750           0.563
  23050954.918    -1027868.388 5                         9.250
  19645553.863    -2737028.999 8  -2099940.46323        28.250           3.156
  22684042.059    -2072739.111 5  -1020492.58021         7.500           0.156
  20083504.848    -7995726.369 7  -6171314.79022        23.250           2.313
 91  6  6 19 45 59.9960000  0  5G19G15G 2G13G 6
  21854606.512     4253371.243 5   3287795.96021        11.250           0.656
  23045149.738    -1058367.378 5                        10.000
  19643862.535    -2745897.922 7  -2106851.31623        27.500           3.000
  22670993.254    -2141334.573 4  -1073943.46721         7.250           0.156
  20077674.621    -8026362.269 7  -6195186.91822        23.500           2.375
 91  6  6 19 46 14.9960000  0  5G19G15G 2G13G 6
  21860059.465     4282031.176 6   3310128.28221        12.000           0.594
  23039371.309    -1088766.921 5                         9.000
  19642187.481    -2754709.967 8  -2113717.84723        28.000           3.063
  22657939.340    -2209896.355 4  -1127368.11821         7.000           0.188
  20071852.902    -8056949.633 7  -6219021.22422        23.500           2.469
 91  6  6 19 46 29.9960000  0  5G19G15G 2G13G 6
  21865524.738     4310751.007 5   3332507.31021        10.750           0.656
  23033609.598    -1119063.612 5        -0.14431        10.250           0.344
  19640520.707    -2763462.195 7  -2120537.76523        27.500           3.094
  22644898.356    -2278420.982 4  -1180763.83321         7.250           0.125
  20066042.231    -8087485.170 7  -6242815.14623        23.500           2.500
 91  6  6 19 46 44.9960000  0  5G19G15G 2G13G 6
  21871001.566     4339530.263 5   3354932.62421        11.000           0.688
  23027857.090    -1149257.422 5    -23527.72821         8.750           0.250
  19638869.910    -2772155.055 8  -2127311.43923        28.500           3.094
  22631865.020    -2346908.401 4  -1234130.52621         6.750           0.188
  20060244.816    -8117969.048 7  -6266568.81023        23.500           2.500
 91  6  6 19 46 59.9960000  0  5G19G15G 2G13G 6
  21876491.231     4368368.875 5   3377404.18321        10.000           0.656
  23022131.434    -1179348.374 5    -46975.21721        10.000           0.188
  19637224.277    -2780788.793 8  -2134039.01923        28.500           3.188
  22618845.340    -2415358.380 4  -1287468.06821         7.250           0.094
  20054451.520    -8148401.201 7  -6290282.17123        23.250           2.500
 91  6  6 19 47 14.9960000  0  5G19G15G 2G13G 6
  21881982.770     4397264.213 5   3399919.94621        11.000           0.594
  23016426.895    -1209338.662 5    -70344.20921         9.000           0.469
  19635592.934    -2789366.092 8  -2140722.63723        28.500           3.156
  22605825.457    -2483772.970 5  -1340778.09721         7.750           0.156
  20048670.020    -8178783.924 7  -6313957.01423        23.750           2.531
 91  6  6 19 47 29.9960000  0  5G19G15G 2G13G 6
  21887501.629     4426222.324 5   3422484.63521        11.000           0.688
  23010740.762    -1239221.800 5    -93629.73421         9.750           0.344
  19633970.324    -2797880.829 7  -2147357.49823        27.500           3.094
  22592811.629    -2552145.768 4  -1394055.49321         7.250           0.219
  20042900.434    -8209110.830 7  -6337588.37923        24.000           2.500
 91  6  6 19 47 44.9960000  0  5G19G15G 2G13G 6
  21893014.606     4455239.679 5   3445095.47921        11.250           0.625
  23005073.613    -1269000.915 5   -116834.21321         9.500           0.313
  19632361.410    -2806336.308 7  -2153946.19223        27.500           3.156
  22579813.684    -2620479.885 5  -1447302.77621         8.000           0.156
  20037136.848    -8239385.159 7  -6361178.74623        23.250           2.500
 91  6  6 19 47 59.9960000  0  5G19G15G 2G13G 6
  21898549.762     4484316.992 5   3467753.05621        10.250           0.594
  22999424.387    -1298674.965 5   -139956.79321         9.750           0.344
  19630766.035    -2814731.831 8  -2160488.16423        28.250           3.156
  22566810.551    -2688774.105 5  -1500518.96821         8.000           0.156
  20031385.668    -8269605.883 7  -6384727.36323        23.250           2.563
 91  6  6 19 48 14.9960000  0  5G19G15G 2G13G 6
  21904091.316     4513450.456 5   3490454.39921        10.250           0.563
  22993799.488    -1328247.446 5   -163000.23521        10.000           0.375
  19629178.902    -2823071.487 8  -2166986.60723        28.250           3.063
  22553828.207    -2757031.819 5  -1553706.72021         8.000           0.094
  20025645.066    -8299776.774 7  -6408237.14423        23.500           2.563
 91  6  6 19 48 29.9960000  0  5G19G15G 2G13G 6
  21909650.809     4542642.469 5   3513201.34321        10.500           0.563
  22988189.566    -1357715.495 5   -185962.30421        10.000           0.344
  19627604.496    -2831352.616 8  -2173439.44523        28.250           3.219
  22540851.449    -2825250.052 5  -1606863.74921         8.250           0.219
  20019913.973    -8329894.927 7  -6431705.83223        22.750           2.563
 91  6  6 19 48 44.9960000  0  5G19G15G 2G13G 6
  21915219.488     4571888.834 5   3535990.63921        11.000           0.594
  22982601.816    -1387082.961 5   -208846.02521         9.250           0.313
  19626037.777    -2839579.630 8  -2179850.10923        28.250           3.188
  22527872.606    -2893432.766 5  -1659993.06921         8.250           0.156
  20014190.543    -8359964.431 7  -6455136.60723        22.750           2.500
 91  6  6 19 48 59.9960000  0  5G19G15G 2G13G 6
  21920794.059     4601194.926 5   3558826.47421        10.750           0.500
  22977029.363    -1416344.096 5   -231646.84321         9.250           0.375
  19624480.691    -2847747.162 7  -2186214.42723        27.500           3.188
  22514904.293    -2961573.846 5  -1713089.94221         8.250           0.281
  20008479.941    -8389979.497 7  -6478524.97223        23.000           2.594
 91  6  6 19 49 14.9960000  0  5G19G15G 2G13G 6
  21926383.418     4630562.617 5   3581710.32021        11.250           0.469
  22971488.637    -1445496.589 5   -254363.02521         9.750           0.406
  19622942.738    -2855853.152 8  -2192530.78923        28.250           3.188
  22501945.449    -3029671.079 5  -1766152.66621         8.000           0.156
  20002775.723    -8419937.934 7  -6501869.20223        22.500           2.594
 91  6  6 19 49 29.9960000  0  5G19G15G 2G13G 6
  21931979.902     4659986.393 5   3604637.85421        11.000           0.563
  22965958.121    -1474545.968 5   -276998.87921        10.250           0.313
  19621408.770    -2863903.171 8  -2198803.53923        28.000           3.188
  22488988.613    -3097729.707 5  -1819185.29621         8.000           0.250
  19997091.496    -8449845.092 7  -6525173.47723        23.500           2.531
 91  6  6 19 49 44.9960000  0  5G19G15G 2G13G 6
  21937586.801     4689466.148 5   3627609.01821        11.000           0.563
  22960452.098    -1503491.669 5   -299553.93121         9.000           0.344
  19619885.277    -2871897.312 7  -2205032.74423        27.500           3.250
  22476048.621    -3165749.231 5  -1872187.46621         8.000           0.156
  19991409.527    -8479700.683 7  -6548437.56923        23.750           2.594
 91  6  6 19 49 59.9960000  0  5G19G15G 2G13G 6
  21943215.965     4719006.667 5   3650627.52821        10.750           0.625
  22954964.387    -1532328.580 5   -322024.19121        10.500           0.375
  19618379.223    -2879830.776 8  -2211214.67023        28.500           3.219
  22463111.934    -3233724.418 5  -1925155.09221         8.000           0.188
  19985735.590    -8509499.725 7  -6571657.60023        22.750           2.625
 91  6  6 19 50 14.9960000  0  5G19G15G 2G13G 6
  21948845.262     4748607.009 5   3673692.65021        11.000           0.625
  22949492.824    -1561057.494 5   -344410.33621         9.750           0.406
  19616879.543    -2887704.686 7  -2217350.18823        27.750           3.125
  22450188.520    -3301655.981 5  -1978088.68721         8.500           0.156
  19980075.527    -8539242.859 7  -6594834.05923        23.250           2.625
 91  6  6 19 50 29.9960000  0  5G19G15G 2G13G 6
  21954493.262     4778261.436 5   3696799.94021        11.500           0.531
  22944046.957    -1589683.829 5   -366716.50621         8.500           0.344
  19615390.723    -2895524.696 7  -2223443.70923        27.750           3.188
  22437269.598    -3369549.041 5  -2030992.34421         8.500           0.094
  19974427.254    -8568935.663 7  -6617971.30923        24.000           2.656
 91  6  6 19 50 44.9960000  0  5G19G15G 2G13G 6
  21960141.332     4807974.858 5   3719953.17721        10.750           0.469
  22938622.356    -1618202.057 5   -388938.45121         9.500           0.438
  19613913.379    -2903285.775 7  -2229491.30923        27.750           3.219
  22424363.988    -3437398.251 5  -2083861.78921         9.000           0.250
  19968787.691    -8598572.697 7  -6641065.09123        23.750           2.594
 91  6  6 19 50 59.9960000  0  5G19G15G 2G13G 6
  21965808.637     4837750.362 5   3743154.79921        11.000           0.500
  22933214.184    -1646608.617 5   -411073.38721         9.250           0.469
  19612450.223    -2910984.914 8  -2235490.64023        28.000           3.250
  22411457.051    -3505199.982 5  -2136694.25721         8.500           0.188
  19963157.887    -8628150.524 7  -6664112.74423        23.500           2.531
 91  6  6 19 51 14.9960000  0  5G19G15G 2G13G 6
  21971485.418     4867582.925 5   3766400.86421        10.500           0.531
  22927828.691    -1674908.222 5   -433124.97721        10.000           0.531
  19610997.840    -2918627.095 8  -2241445.59423        28.500           3.188
  22398564.457    -3572958.848 5  -2189493.29921         9.000           0.219
  19957539.473    -8657674.085 7  -6687118.10823        23.000           2.531
 91  6  6 19 51 29.9960000  0  5G19G15G 2G13G 6
  21977175.676     4897471.567 5   3789690.62921        10.750           0.625
  22922464.668    -1703101.708 5   -455093.88021         9.250           0.406
  19609551.082    -2926213.292 8  -2247356.92023        28.250           3.156
  22385675.074    -3640675.428 5  -2242259.41221         8.750           0.313
  19951933.848    -8687143.969 7  -6710081.65223        23.500           2.531
 91  6  6 19 51 44.9960000  0  5G19G15G 2G13G 6
  21982872.465     4927423.441 5   3813029.66921        11.250           0.594
  22917118.082    -1731181.376 5   -476974.08521         7.750           0.344
  19608119.590    -2933736.208 8  -2253218.93723        28.250           3.156
  22372795.613    -3708341.919 5  -2294986.45121         8.500           0.219
  19946335.020    -8716552.764 7  -6732997.59223        23.500           2.625
 91  6  6 19 51 59.9960000  0  5G19G15G 2G13G 6
  21988585.965     4957430.816 5   3836411.96921        10.250           0.469
  22911798.168    -1759154.596 5   -498771.33221         8.250           0.281
  19606697.621    -2941203.587 8  -2259037.67623        28.000           3.125
  22359929.770    -3775965.551 5  -2347680.10321         8.250           0.219
  19940751.715    -8745907.838 7  -6755871.67023        24.250           2.688
 91  6  6 19 52 14.9960000  0  5G19G15G 2G13G 6
  21994302.770     4987499.369 5   3859841.93621        10.500           0.563
  22906496.981    -1787015.332 5   -520480.96621         9.000           0.375
  19605290.582    -2948609.943 8  -2264808.87023        28.250           3.156
  22347070.957    -3843540.357 5  -2400335.72621         9.000           0.094
  19935174.481    -8775203.237 7  -6778699.25323        23.750           2.750
 91  6  6 19 52 29.9960000  0  5G19G15G 2G13G 6
  22000040.559     5017623.393 5   3883315.11321        10.500           0.531
  22901220.004    -1814769.022 5   -542107.16021         9.750           0.500
  19603891.871    -2955960.910 8  -2270536.89823        28.000           3.156
  22334215.715    -3911071.636 5  -2452957.39121         8.500           0.156
  19929609.895    -8804444.568 7  -6801484.70123        24.000           2.688
 91  6  6 19 52 44.9960000  0  5G19G15G 2G13G 6
  22005780.816     5047807.231 5   3906834.90621        10.750           0.594
  22895957.223    -1842411.089 5   -563646.39621         9.000           0.375
  19602504.668    -2963252.210 8  -2276218.43523        28.000           3.125
  22321379.426    -3978554.729 5  -2505541.53521         9.250           0.250
  19924059.184    -8833627.074 7  -6824224.31523        23.750           2.719
 91  6  6 19 52 59.9960000  0  5G19G15G 2G13G 6
  22011538.598     5078044.264 5   3930396.14821        10.750           0.500
  22890715.918    -1869947.747 5   -585103.45221         8.500           0.469
  19601126.863    -2970490.337 8  -2281858.53923        28.000           3.156
  22308544.363    -4045995.608 5  -2558092.74621         9.250           0.219
  19918514.676    -8862757.036 7  -6846922.98323        23.750           2.656
 91  6  6 19 53 14.9960000  0  5G19G15G 2G13G 6
  22017300.606     5108340.186 5   3954003.28421        10.250           0.594
  22885496.863    -1897372.687 5   -606473.51221         8.750           0.438
  19599762.637    -2977669.684 8  -2287452.83723        28.500           3.156
  22295719.191    -4113388.088 5  -2610606.27021         9.500           0.250
  19912982.363    -8891828.398 7  -6869575.98923        23.750           2.531
 91  6  6 19 53 29.9960000  0  5G19G15G 2G13G 6
  22023078.629     5138693.329 5   3977654.98821        10.250           0.563
  22880299.981    -1924687.505 5   -627757.73421         9.250           0.438
  19598403.504    -2984792.009 7  -2293002.70023        27.750           3.000
  22282903.129    -4180733.588 5  -2663083.17221         9.500           0.188
  19907459.598    -8920842.778 7  -6892184.59323        23.750           2.594
 91  6  6 19 53 44.9960000  0  5G19G15G 2G13G 6
  22028864.207     5169101.263 5   4001349.40321         9.750           0.469
  22875122.981    -1951894.508 5   -648957.94321         9.500           0.438
  19597059.488    -2991859.672 8  -2298509.97723        28.000           3.188
  22270094.606    -4248034.132 5  -2715525.01721         9.500           0.125
  19901948.996    -8949802.310 7  -6914750.46023        23.500           2.563
 91  6  6 19 53 59.9960000  0  5G19G15G 2G13G 6
  22034662.238     5199569.492 5   4025090.80121         9.750           0.531
  22869965.824    -1978987.576 5   -670069.35921         9.750           0.469
  19595724.316    -2998866.928 7  -2303970.17723        27.500           3.094
  22257300.996    -4315283.689 5  -2767927.11021         9.500           0.188
  19896450.465    -8978701.037 7  -6937268.94623        24.000           2.531
 91  6  6 19 54 14.9960000  0  5G19G15G 2G13G 6
  22040469.684     5230096.038 5   4048877.63521        10.500           0.469
  22864831.559    -2005968.164 5   -691093.16121         9.250           0.469
  19594403.316    -3005815.845 8  -2309384.92023        28.000           3.188
  22244513.738    -4382483.678 5  -2820290.59721         9.750           0.094
  19890962.223    -9007540.571 7  -6959741.31123        23.750           2.688
 91  6  6 19 54 29.9960000  0  5G19G15G 2G13G 6
  22046290.996     5260677.809 5   4072707.50721        10.000           0.594
  22859720.176    -2032838.990 5   -712031.43121         8.750           0.563
  19593092.863    -3012709.420 7  -2314756.54023        27.750           3.031
  22231737.012    -4449636.449 5  -2872617.28721         9.750           0.219
  19885485.512    -9036323.612 7  -6982169.64623        23.750           2.563
 91  6  6 19 54 44.9960000  0  5G19G15G 2G13G 6
  22052118.637     5291317.323 5   4096582.36321        10.250           0.500
  22854626.973    -2059597.481 5   -732882.14521         8.500           0.500
  19591791.949    -3019545.217 8  -2320083.14023        28.250           3.063
  22218962.043    -4516739.402 5  -2924905.15021         9.250           0.156
  19880019.043    -9065047.580 7  -7004551.95823        23.500           2.656
 91  6  6 19 54 59.9960000  0  5G19G15G 2G13G 6
  22057956.895     5322016.594 5   4120503.80921         9.750           0.406
  22849559.043    -2086240.943 5   -753643.22421         9.750           0.406
  19590501.746    -3026321.242 8  -2325363.16423        28.000           3.156
  22206199.949    -4583790.049 5  -2977152.22321         9.250           0.188
  19874562.707    -9093710.132 7  -7026886.41023        23.500           2.594
 91  6  6 19 55 14.9960000  0  5G19G15G 2G13G 6
  22063815.246     5352775.107 5   4144471.39121        10.500           0.500
  22844506.988    -2112769.932 5   -774315.12321         9.250           0.500
  19589223.316    -3033038.133 7  -2330597.10923        27.500           3.156
  22193454.238    -4650788.487 5  -3029358.60621         9.250           0.188
  19869125.012    -9122311.516 7  -7049173.20022        24.500           2.438
 91  6  6 19 55 29.9960000  0  5G19G15G 2G13G 6
  22069679.598     5383591.949 5   4168484.42921         9.750           0.563
  22839484.629    -2139185.044 5   -794898.25621         9.250           0.531
  19587953.020    -3039696.648 7  -2335785.56623        27.250           3.094
  22180713.449    -4717735.126 5  -3081524.65621         9.250           0.281
  19863693.410    -9150852.299 7  -7071412.77623        24.500           2.500
 91  6  6 19 55 44.9960000  0  5G19G15G 2G13G 6
  22075555.566     5414465.797 5   4192541.88521         9.500           0.500
  22834474.270    -2165486.901 5   -815393.19021         8.250           0.406
  19586697.129    -3046297.767 7  -2340929.30023        27.000           3.125
  22167986.090    -4784630.728 5  -3133650.88621         9.750           0.219
  19858274.832    -9179333.298 7  -7093605.76223        24.500           2.500
 91  6  6 19 55 59.9960000  0  5G19G15G 2G13G 6
  22081441.895     5445393.370 5   4216641.20721         9.750           0.500
  22829492.324    -2191678.811 5   -835802.41021         8.500           0.500
  19585454.254    -3052845.106 7  -2346031.12823        27.750           3.188
  22155263.637    -4851478.282 5  -3185739.70321         9.500           0.156
  19852864.254    -9207757.705 7  -7115754.65022        24.500           2.438
 91  6  6 19 56 14.9960000  0  5G19G15G 2G13G 6
  22087335.074     5476376.860 5   4240784.09921         9.500           0.594
  22824525.621    -2217758.081 5   -856123.86621         8.750           0.469
  19584216.590    -3059336.466 7  -2351089.33723        27.250           3.219
  22142555.629    -4918274.914 5  -3237788.83821        10.000           0.281
  19847462.637    -9236122.901 7  -7137857.40023        24.000           2.563
 91  6  6 19 56 29.9960000  0  5G19G15G 2G13G 6
  22093246.004     5507415.589 5   4264970.03321         9.000           0.500
  22819588.238    -2243724.928 5   -876357.74421         9.000           0.531
  19582993.559    -3065772.415 7  -2356104.36423        27.500           3.250
  22129855.402    -4985020.930 5  -3289798.48621         9.500           0.313
  19842081.316    -9264429.347 7  -7159914.36823        24.500           2.563
 91  6  6 19 56 44.9960000  0  5G19G15G 2G13G 6
  22099165.590     5538512.236 5   4289201.10121        10.500           0.563
  22814663.285    -2269576.176 5   -896501.53621         8.250           0.438
  19581778.895    -3072150.218 7  -2361074.08623        27.500           3.188
  22117165.949    -5051713.154 5  -3341766.25021        10.000           0.219
  19836703.340    -9292674.030 7  -7181923.21723        24.250           2.594
 91  6  6 19 56 59.9960000  0  5G19G15G 2G13G 6
  22105095.551     5569666.852 5   4313477.33321         9.750           0.438
  22809765.684    -2295311.370 5   -916554.87821         8.250           0.469
  19580578.582    -3078469.669 7  -2365998.33623        27.750           3.125
  22104482.590    -5118351.065 5  -3393691.67821         9.750           0.219
  19831341.652    -9320856.493 7  -7203883.57323        24.500           2.594
 91  6  6 19 57 14.9960000  0  5G19G15G 2G13G 6
  22111029.082     5600876.347 5   4337796.34421        10.250           0.469
  22804892.856    -2320933.362 5   -936520.01621         8.500           0.563
  19579385.809    -3084734.005 7  -2370879.64223        27.750           3.156
  22091805.520    -5184937.419 5  -3445576.94521         9.000           0.250
  19825989.559    -9348979.523 7  -7225797.63123        24.500           2.656
 91  6  6 19 57 29.9960000  0  5G19G15G 2G13G 6
  22116980.520     5632146.066 5   4362162.27621         9.750           0.531
  22800042.684    -2346436.674 5   -956392.66321         9.500           0.500
  19578202.856    -3090937.767 7  -2375713.74323        27.250           3.125
  22079146.582    -5251466.298 5  -3497417.41921         9.500           0.219
  19820652.098    -9377037.518 7  -7247661.00422        24.750           2.406
 91  6  6 19 57 44.9960000  0  5G19G15G 2G13G 6
  22122941.285     5663474.032 5   4386573.58921        10.250           0.500
  22795208.910    -2371822.595 5   -976173.86621         8.500           0.469
  19577037.254    -3097082.926 8  -2380502.18623        28.000           3.125
  22066494.231    -5317939.264 5  -3549214.30321         9.250           0.125
  19815323.332    -9405032.134 7  -7269474.99322        24.250           2.438
 91  6  6 19 57 59.9960000  0  5G19G15G 2G13G 6
  22128916.949     5694858.658 5   4411029.05921        10.250           0.531
  22790401.809    -2397092.935 5   -995865.02121         8.500           0.438
  19575878.231    -3103171.221 7  -2385246.31723        27.750           3.250
  22053858.824    -5384357.588 5  -3600968.65221         9.250           0.219
  19810008.426    -9432964.723 7  -7291240.64922        24.250           2.375
 91  6  6 19 58 14.9960000  0  5G19G15G 2G13G 6
  22134894.691     5726296.996 5   4435526.37521        10.000           0.438
  22785613.637    -2422250.192 5  -1015468.02421         9.250           0.500
  19574726.371    -3109205.591 7  -2389948.42623        27.500           3.094
  22041228.699    -5450723.492 5  -3652682.13321         9.000           0.250
  19804703.020    -9460837.965 7  -7312960.05523        24.500           2.531
